[[{"header":{"parameterUnit":"m.s-1","parameterCategory":1,"la1":30.6,"la2":29.2853,"lo1":-89.7004,"lo2":-87.6739,"dy":0.0162,"dx":0.0183,"nx":112,"ny":82,"refTime":"2025-04-24T06:00:00:Z","depth":0,"parameterNumber":2,"parameterNumberName":"U-component_of_WINDS"},"data":[0.0,0.0,0.0,0.0,0.0,0.0,0.0,0.0,0.0,0.0,0.0,0.0,0.0,0.0,0.0,0.0,0.0,0.0,0.0,0.0,0.0,0.0,0.0,0.0,0.0,0.0,0.0,0.0,0.0,0.0,0.0,0.0,0.0,0.0,0.0,0.0,0.0,0.0,0.0,0.0,0.0,0.0,0.0,0.0,0.0,0.0,0.0,0.0,0.0,0.0,0.0,0.0,0.0,0.0,0.0,0.0,0.0,0.0,0.0,0.0,0.0,0.0,0.0,0.0,0.0,0.0,0.0,0.0,0.0,0.0,0.0,0.0,0.0,0.0,0.0,0.0,0.0,0.0,0.0,0.0,0.0,0.0,0.0,0.0,0.0,0.0,0.0,0.0,0.0,0.0,-4.6498,-4.8029,-5.011,-5.1394,-5.1394,-5.0198,-4.7709,-4.3664,0.0,0.0,0.0,0.0,0.0,0.0,0.0,0.0,0.0,0.0,0.0,0.0,0.0,0.0,0.0,0.0,0.0,0.0,0.0,0.0,0.0,0.0,0.0,0.0,0.0,0.0,0.0,0.0,0.0,0.0,0.0,0.0,0.0,0.0,0.0,0.0,0.0,0.0,0.0,0.0,0.0,0.0,0.0,0.0,0.0,0.0,0.0,0.0,0.0,0.0,0.0,0.0,0.0,0.0,0.0,0.0,0.0,0.0,0.0,0.0,0.0,0.0,0.0,0.0,0.0,0.0,0.0,0.0,0.0,0.0,0.0,0.0,0.0,0.0,0.0,0.0,0.0,0.0,0.0,0.0,0.0,0.0,0.0,0.0,0.0,0.0,0.0,0.0,0.0,0.0,0.0,0.0,0.0,0.0,0.0,0.0,0.0,0.0,0.0,0.0,0.0,0.0,0.0,0.0,-4.5817,-5.0342,-5.116,-5.1394,-5.1394,-4.9172,-4.6512,-4.3586,0.0,0.0,0.0,0.0,0.0,0.0,0.0,0.0,0.0,0.0,0.0,0.0,0.0,0.0,0.0,0.0,0.0,0.0,0.0,0.0,0.0,0.0,0.0,0.0,0.0,0.0,0.0,0.0,0.0,0.0,0.0,0.0,0.0,0.0,0.0,0.0,0.0,0.0,0.0,0.0,0.0,0.0,0.0,0.0,0.0,0.0,0.0,0.0,0.0,0.0,0.0,0.0,0.0,0.0,0.0,0.0,0.0,0.0,0.0,0.0,0.0,0.0,0.0,0.0,0.0,0.0,0.0,0.0,0.0,0.0,0.0,0.0,0.0,0.0,0.0,0.0,0.0,0.0,0.0,0.0,0.0,0.0,0.0,0.0,0.0,0.0,0.0,0.0,0.0,0.0,0.0,0.0,0.0,0.0,0.0,0.0,0.0,0.0,0.0,0.0,0.0,0.0,0.0,-4.4689,-4.6734,-5.0945,-5.1394,-5.1394,-5.1394,-4.8947,-4.6255,-4.3571,-4.1575,0.0,0.0,0.0,0.0,0.0,0.0,0.0,0.0,0.0,0.0,0.0,0.0,0.0,0.0,0.0,0.0,0.0,0.0,0.0,0.0,0.0,0.0,0.0,0.0,0.0,0.0,0.0,0.0,0.0,0.0,0.0,0.0,0.0,0.0,0.0,0.0,0.0,0.0,0.0,0.0,0.0,0.0,0.0,0.0,0.0,0.0,0.0,0.0,0.0,0.0,0.0,0.0,0.0,0.0,0.0,0.0,0.0,0.0,0.0,0.0,0.0,0.0,0.0,0.0,0.0,0.0,0.0,0.0,0.0,0.0,0.0,0.0,0.0,0.0,0.0,0.0,0.0,0.0,0.0,0.0,0.0,0.0,0.0,0.0,0.0,0.0,0.0,0.0,0.0,0.0,0.0,0.0,0.0,0.0,0.0,0.0,0.0,0.0,0.0,0.0,0.0,0.0,-4.6976,-4.8281,-5.1102,-5.1394,-5.1394,-5.1394,-4.8588,-4.5845,-4.3551,-4.0528,0.0,0.0,0.0,0.0,0.0,0.0,0.0,0.0,0.0,0.0,0.0,0.0,0.0,0.0,0.0,0.0,0.0,0.0,0.0,0.0,0.0,0.0,0.0,0.0,0.0,0.0,0.0,0.0,0.0,0.0,0.0,0.0,0.0,0.0,0.0,0.0,0.0,0.0,0.0,0.0,0.0,0.0,0.0,0.0,0.0,0.0,0.0,0.0,0.0,0.0,0.0,0.0,0.0,0.0,0.0,0.0,0.0,0.0,0.0,0.0,0.0,0.0,0.0,0.0,0.0,0.0,0.0,0.0,0.0,0.0,0.0,0.0,0.0,0.0,0.0,0.0,0.0,0.0,0.0,0.0,0.0,0.0,0.0,0.0,0.0,0.0,0.0,0.0,0.0,0.0,0.0,0.0,0.0,0.0,0.0,0.0,0.0,0.0,0.0,0.0,0.0,0.0,-4.7403,-5.0234,-5.1297,-5.1394,-5.1394,-5.1394,-4.7565,-4.4663,-4.3478,-3.9473,0.0,0.0,0.0,0.0,0.0,0.0,0.0,0.0,0.0,0.0,0.0,0.0,0.0,0.0,0.0,0.0,0.0,0.0,0.0,0.0,0.0,0.0,0.0,0.0,0.0,0.0,0.0,0.0,0.0,0.0,0.0,0.0,0.0,0.0,0.0,0.0,0.0,0.0,0.0,0.0,0.0,0.0,0.0,0.0,0.0,0.0,0.0,0.0,0.0,0.0,0.0,0.0,0.0,0.0,0.0,0.0,0.0,0.0,0.0,0.0,0.0,0.0,0.0,0.0,0.0,0.0,0.0,0.0,0.0,0.0,0.0,0.0,0.0,0.0,0.0,0.0,0.0,0.0,0.0,0.0,0.0,0.0,0.0,0.0,0.0,0.0,0.0,0.0,0.0,0.0,0.0,0.0,0.0,0.0,0.0,0.0,0.0,0.0,0.0,0.0,0.0,0.0,-4.5586,-4.8066,0.0,-5.1394,-5.118,-5.0631,-4.7647,-4.4902,-4.2793,0.0,0.0,0.0,0.0,0.0,0.0,0.0,0.0,0.0,0.0,0.0,0.0,0.0,0.0,0.0,0.0,0.0,0.0,0.0,0.0,0.0,0.0,0.0,0.0,0.0,0.0,0.0,0.0,0.0,0.0,0.0,0.0,0.0,0.0,0.0,0.0,0.0,0.0,0.0,0.0,0.0,0.0,0.0,0.0,0.0,0.0,0.0,0.0,0.0,0.0,0.0,0.0,0.0,0.0,0.0,0.0,0.0,0.0,0.0,0.0,0.0,0.0,0.0,0.0,0.0,0.0,0.0,0.0,0.0,0.0,0.0,0.0,0.0,0.0,0.0,0.0,0.0,0.0,0.0,0.0,0.0,0.0,0.0,0.0,0.0,0.0,0.0,0.0,0.0,0.0,0.0,0.0,0.0,0.0,0.0,0.0,0.0,0.0,0.0,0.0,0.0,0.0,-4.3219,-4.5195,-4.7557,0.0,-5.116,-5.0633,-4.9753,-4.6846,-4.4012,-4.1556,0.0,0.0,0.0,0.0,0.0,0.0,0.0,0.0,0.0,0.0,0.0,0.0,0.0,0.0,0.0,0.0,0.0,0.0,0.0,0.0,0.0,0.0,0.0,0.0,0.0,0.0,0.0,0.0,0.0,0.0,0.0,0.0,0.0,0.0,0.0,0.0,0.0,0.0,0.0,0.0,0.0,0.0,0.0,0.0,0.0,0.0,0.0,0.0,0.0,0.0,0.0,0.0,0.0,0.0,0.0,0.0,0.0,0.0,0.0,0.0,0.0,0.0,0.0,0.0,0.0,0.0,0.0,0.0,0.0,0.0,0.0,0.0,0.0,0.0,0.0,0.0,0.0,0.0,0.0,0.0,0.0,0.0,0.0,0.0,0.0,0.0,0.0,0.0,0.0,0.0,0.0,0.0,0.0,0.0,0.0,0.0,0.0,0.0,0.0,0.0,0.0,0.0,-4.3334,-4.6718,-4.9492,-5.118,-5.0592,-4.9733,-4.8857,-4.4875,-4.164,0.0,0.0,0.0,0.0,0.0,0.0,0.0,0.0,0.0,0.0,0.0,0.0,0.0,0.0,0.0,0.0,0.0,0.0,0.0,0.0,0.0,0.0,0.0,0.0,0.0,0.0,0.0,0.0,0.0,0.0,0.0,0.0,0.0,0.0,0.0,0.0,0.0,0.0,0.0,0.0,0.0,0.0,0.0,0.0,0.0,0.0,0.0,0.0,0.0,0.0,0.0,0.0,0.0,0.0,0.0,0.0,0.0,0.0,0.0,0.0,0.0,0.0,0.0,0.0,0.0,0.0,0.0,0.0,0.0,0.0,0.0,0.0,0.0,0.0,0.0,0.0,0.0,0.0,0.0,0.0,0.0,0.0,0.0,0.0,0.0,0.0,0.0,0.0,0.0,0.0,0.0,0.0,0.0,0.0,0.0,0.0,0.0,0.0,0.0,0.0,0.0,0.0,0.0,-4.154,-4.4375,-4.7032,-4.9327,-4.9345,-4.8857,-4.8017,-4.5109,-4.2286,-3.9859,0.0,0.0,0.0,0.0,0.0,0.0,0.0,0.0,0.0,0.0,0.0,0.0,0.0,0.0,0.0,0.0,0.0,0.0,0.0,0.0,0.0,0.0,0.0,0.0,0.0,0.0,0.0,0.0,0.0,0.0,0.0,0.0,0.0,0.0,0.0,0.0,0.0,0.0,0.0,0.0,0.0,0.0,0.0,0.0,0.0,0.0,0.0,0.0,0.0,0.0,0.0,0.0,0.0,0.0,0.0,0.0,0.0,0.0,0.0,0.0,0.0,0.0,0.0,0.0,0.0,0.0,0.0,0.0,0.0,0.0,0.0,0.0,0.0,0.0,0.0,0.0,0.0,0.0,0.0,0.0,0.0,0.0,0.0,0.0,0.0,0.0,0.0,0.0,0.0,0.0,0.0,0.0,0.0,0.0,0.0,0.0,0.0,0.0,0.0,0.0,0.0,0.0,-4.0779,-4.3692,-4.6368,-4.8566,-4.8505,-4.7978,-4.7159,-4.4367,-4.155,-3.8911,0.0,0.0,0.0,0.0,0.0,0.0,0.0,0.0,0.0,0.0,0.0,0.0,0.0,0.0,0.0,0.0,0.0,0.0,0.0,0.0,0.0,0.0,0.0,0.0,0.0,0.0,0.0,0.0,0.0,0.0,0.0,0.0,0.0,0.0,0.0,0.0,0.0,0.0,0.0,0.0,0.0,0.0,0.0,0.0,0.0,0.0,0.0,0.0,0.0,0.0,0.0,0.0,0.0,0.0,0.0,0.0,0.0,0.0,0.0,0.0,0.0,0.0,0.0,0.0,0.0,0.0,0.0,0.0,0.0,0.0,0.0,0.0,0.0,0.0,0.0,0.0,0.0,0.0,0.0,0.0,0.0,0.0,0.0,0.0,0.0,0.0,0.0,0.0,0.0,0.0,0.0,0.0,0.0,0.0,0.0,0.0,0.0,0.0,0.0,0.0,0.0,0.0,-4.0545,-4.3849,-4.6604,-4.8371,-4.79,-4.7159,-4.6378,-4.3178,-4.0171,-3.7692,0.0,0.0,0.0,0.0,0.0,0.0,0.0,0.0,0.0,0.0,0.0,0.0,0.0,0.0,0.0,0.0,0.0,0.0,0.0,0.0,0.0,0.0,0.0,0.0,0.0,0.0,0.0,0.0,0.0,0.0,0.0,0.0,0.0,0.0,0.0,0.0,0.0,0.0,0.0,0.0,0.0,0.0,0.0,0.0,0.0,0.0,0.0,0.0,0.0,0.0,0.0,0.0,0.0,0.0,0.0,0.0,0.0,0.0,0.0,0.0,-4.2433,0.0,0.0,0.0,0.0,0.0,0.0,0.0,0.0,0.0,0.0,0.0,0.0,0.0,0.0,0.0,0.0,0.0,0.0,0.0,0.0,0.0,0.0,0.0,0.0,0.0,0.0,0.0,0.0,0.0,0.0,0.0,0.0,0.0,0.0,0.0,0.0,0.0,0.0,0.0,0.0,0.0,-3.8796,-4.1532,-4.4168,-4.6584,-4.668,-4.6503,-4.6321,-4.3723,-4.1303,-3.939,-3.5997,0.0,0.0,0.0,0.0,0.0,0.0,0.0,0.0,0.0,0.0,0.0,0.0,0.0,0.0,0.0,0.0,0.0,0.0,0.0,0.0,0.0,0.0,0.0,0.0,0.0,0.0,0.0,0.0,0.0,0.0,0.0,0.0,0.0,0.0,0.0,0.0,0.0,0.0,0.0,0.0,0.0,0.0,0.0,0.0,0.0,0.0,0.0,0.0,0.0,0.0,0.0,0.0,0.0,0.0,0.0,0.0,0.0,0.0,0.0,0.0,-4.3038,0.0,0.0,0.0,0.0,0.0,0.0,0.0,0.0,0.0,0.0,0.0,0.0,0.0,0.0,0.0,0.0,0.0,0.0,0.0,0.0,0.0,0.0,0.0,0.0,0.0,0.0,0.0,0.0,0.0,0.0,0.0,0.0,0.0,0.0,0.0,0.0,0.0,0.0,0.0,0.0,-3.8369,-4.1556,-4.4174,-4.5536,-4.6044,-4.5964,-4.5121,-4.3423,-4.1665,-3.9967,-3.6172,0.0,0.0,0.0,0.0,0.0,0.0,0.0,0.0,0.0,0.0,0.0,0.0,0.0,0.0,0.0,0.0,0.0,0.0,0.0,0.0,0.0,0.0,0.0,0.0,0.0,0.0,0.0,0.0,0.0,0.0,0.0,0.0,0.0,0.0,0.0,0.0,0.0,0.0,0.0,0.0,0.0,0.0,0.0,0.0,0.0,0.0,0.0,0.0,0.0,0.0,0.0,0.0,0.0,-4.6345,-4.6499,-4.6499,-4.6499,-4.6499,-4.6441,-4.5566,-4.5373,-4.5529,0.0,0.0,0.0,0.0,0.0,0.0,0.0,0.0,0.0,0.0,0.0,0.0,0.0,0.0,0.0,0.0,0.0,0.0,0.0,0.0,0.0,0.0,0.0,0.0,0.0,-3.8928,-3.8243,0.0,0.0,0.0,0.0,0.0,0.0,0.0,0.0,0.0,0.0,0.0,0.0,-3.8664,-4.2048,-4.4509,-4.4956,-4.5502,-4.5267,-4.382,-4.2767,-4.1517,-3.9994,-3.6246,-3.3688,0.0,0.0,0.0,0.0,0.0,0.0,0.0,0.0,0.0,0.0,0.0,0.0,0.0,0.0,0.0,0.0,0.0,0.0,0.0,0.0,0.0,0.0,0.0,0.0,0.0,0.0,0.0,0.0,0.0,0.0,0.0,0.0,-4.5363,-4.6109,0.0,0.0,0.0,0.0,0.0,0.0,0.0,0.0,0.0,0.0,0.0,0.0,0.0,-4.5479,-4.5594,-4.7048,-4.7778,-4.7798,-4.9298,-5.0038,-5.0038,-5.0038,-5.0038,-4.9981,-4.9106,0.0,-4.5582,-4.5263,0.0,0.0,0.0,0.0,0.0,0.0,0.0,0.0,0.0,0.0,0.0,0.0,0.0,0.0,0.0,0.0,0.0,0.0,0.0,0.0,0.0,0.0,-4.2152,-4.0811,-4.1053,-4.1295,0.0,-3.7117,-3.4791,-3.5371,0.0,0.0,0.0,0.0,0.0,0.0,0.0,0.0,-3.9314,-4.0878,-4.2558,-4.4763,-4.4431,-4.3942,-4.3724,-4.2219,-4.0872,-3.9955,-3.7945,-3.6384,-3.5523,-3.3201,0.0,0.0,0.0,0.0,0.0,0.0,0.0,0.0,0.0,0.0,0.0,0.0,0.0,0.0,0.0,0.0,0.0,0.0,0.0,0.0,0.0,0.0,0.0,0.0,0.0,0.0,0.0,0.0,0.0,-4.5536,-4.651,-4.6417,-4.729,-4.7616,0.0,0.0,0.0,0.0,0.0,0.0,0.0,0.0,0.0,-4.6868,-4.6935,-4.7443,-4.8461,-4.9183,-4.9548,-4.9567,-5.0346,-5.0712,-5.0712,-5.0712,-5.0712,-5.0673,-5.0308,-4.95,-4.8365,-4.6913,-4.6187,-4.5861,0.0,0.0,0.0,0.0,0.0,-4.3535,-4.3743,-4.3442,0.0,0.0,0.0,0.0,0.0,0.0,0.0,0.0,0.0,0.0,0.0,0.0,0.0,-4.2896,-4.2852,-4.2829,-4.2995,-4.0817,-3.8533,0.0,-3.6814,-3.5586,-3.3262,0.0,0.0,0.0,0.0,-3.6894,-3.8905,-4.0742,-4.2305,-4.3418,-4.3632,-4.332,-4.2381,-4.201,-4.1287,-3.9979,-3.8261,-3.7128,-3.6757,-3.4686,-3.3338,0.0,0.0,0.0,0.0,0.0,0.0,0.0,0.0,0.0,0.0,0.0,0.0,0.0,0.0,0.0,0.0,0.0,0.0,0.0,0.0,0.0,0.0,0.0,0.0,0.0,0.0,0.0,0.0,-4.6428,-4.7342,-4.6937,-4.8242,-4.8699,0.0,0.0,0.0,0.0,0.0,0.0,-4.6256,-4.653,-4.7328,-4.8605,-4.8673,-4.9336,-5.0693,-5.0712,-5.0712,-5.0712,-5.0712,-5.0712,-5.0712,-5.0712,-5.0712,-5.0712,-5.0712,-5.0712,-5.0539,-4.8413,-4.7759,-4.7971,-4.6775,-4.5819,-4.5191,-4.5838,-4.5829,-4.558,-4.6203,-4.588,-4.5118,-4.4718,0.0,-4.1332,-4.0749,0.0,0.0,0.0,0.0,-4.1913,-4.359,0.0,-4.3366,-4.4621,-4.4407,-4.4124,-4.4824,-4.3984,-4.2431,0.0,-3.9294,-3.7982,-3.5192,0.0,0.0,0.0,0.0,-3.8027,-3.912,-4.0918,-4.2168,-4.2383,-4.2793,-4.2558,-4.1308,-4.1543,-4.1133,-3.9668,-3.8359,-3.7422,-3.6992,-3.5722,-3.4511,-3.3417,0.0,0.0,0.0,0.0,0.0,0.0,0.0,0.0,0.0,0.0,0.0,0.0,0.0,0.0,0.0,0.0,0.0,0.0,0.0,0.0,0.0,0.0,0.0,0.0,0.0,0.0,0.0,0.0,0.0,-4.8123,-4.8568,0.0,0.0,0.0,0.0,-4.6902,-4.794,-4.8561,-4.8447,-4.9644,-5.0342,-5.0376,-5.0499,-5.0606,-5.0712,-5.0712,-5.0712,-5.0712,-5.0712,-5.0712,-5.0712,-5.0712,-5.0712,-5.0712,-5.0712,-5.0712,-5.0635,-4.9663,-4.8817,-4.8086,-4.8009,-4.7499,-4.6787,-4.6835,-4.7296,-4.7603,-4.5318,-4.5528,-4.6527,-4.5005,-4.3896,-4.3176,-4.3211,-4.2053,0.0,0.0,-4.3276,-4.3643,-4.526,-4.5659,-4.564,-4.5729,-4.571,-4.5691,-4.5736,-4.5782,-4.5308,0.0,-4.1299,-3.9349,-3.8401,0.0,-3.7017,-3.7031,-3.7891,-3.9141,-4.0859,-4.1172,-4.1543,-4.2324,-4.1758,-4.1289,-4.1211,-4.0488,-3.9648,-3.8711,-3.8574,-3.7793,-3.6133,-3.5976,-3.5136,-3.3436,-3.2499,0.0,0.0,0.0,0.0,0.0,0.0,0.0,0.0,0.0,0.0,0.0,0.0,0.0,0.0,0.0,0.0,0.0,0.0,0.0,0.0,0.0,0.0,0.0,0.0,0.0,0.0,0.0,0.0,-4.9095,-5.0149,0.0,-5.0025,-4.9831,-4.9812,-4.9981,-5.0399,-5.0732,-5.0973,-5.0912,-5.0987,-5.1256,-5.083,-5.0623,-5.0712,-5.0712,-5.0712,-5.0712,-5.0712,-5.0712,-5.0712,-5.0712,-5.0712,-5.0712,-5.0712,-5.0712,-5.0673,-5.0366,-5.0048,-4.976,-4.976,-4.926,-4.8432,-4.7875,-4.7855,-4.7894,-4.6499,-4.639,-4.6714,-4.5623,-4.5116,-4.4901,-4.495,-4.4512,-4.4143,-4.4763,-4.4938,-4.508,-4.564,-4.5807,-4.5807,-4.5807,-4.5807,-4.5671,-4.5142,-4.5067,-4.4763,-4.3602,-4.2259,-4.0698,-3.8767,-3.8188,-3.7783,-3.7256,-3.8391,-3.9556,-4.0203,-4.0791,-4.1049,-4.082,-4.1035,-4.0976,-4.041,-4.0586,-3.9883,-3.7891,-3.7754,-3.6973,-3.5234,-3.4629,-3.4297,-3.4238,-3.2324,-3.0605,0.0,0.0,0.0,0.0,0.0,0.0,0.0,0.0,0.0,0.0,0.0,0.0,0.0,0.0,0.0,0.0,0.0,0.0,0.0,0.0,0.0,0.0,0.0,0.0,0.0,0.0,-4.9665,-4.9958,-5.1208,-5.1768,-5.1174,-5.1119,-5.1195,-5.1375,-5.1496,-5.1553,-5.1528,-5.1103,-5.0884,-5.0919,-5.0554,-5.0418,-5.0493,-5.0624,-5.0712,-5.0712,-5.0712,-5.0712,-5.0712,-5.0712,-5.0712,-5.0712,-5.0712,-5.0712,-5.0712,-5.0712,-5.0712,-5.0712,-5.0712,-5.0173,-4.9336,-4.8759,-4.8355,-4.799,-4.7173,-4.6728,-4.6405,-4.5869,-4.5735,-4.5765,-4.5781,-4.5803,-4.5805,-4.58,-4.5807,-4.5807,-4.5807,-4.5807,-4.5729,-4.5452,-4.5394,-4.5162,-4.4349,-4.4149,-4.3904,-4.3034,-4.2468,-4.1598,-3.9945,-3.9423,-3.9052,-3.8533,-3.9402,-4.0154,-4.0224,-4.0727,-4.087,-4.0367,-4.0563,-4.0623,-4.0351,-4.0059,-3.9277,-3.7832,-3.6914,-3.5898,-3.4746,-3.3867,-3.3535,-3.3848,-3.1601,-3.027,-2.9976,0.0,0.0,0.0,0.0,0.0,0.0,0.0,0.0,0.0,0.0,0.0,0.0,0.0,0.0,0.0,0.0,0.0,0.0,0.0,0.0,0.0,0.0,0.0,-4.8306,-4.9077,-4.9978,-5.0747,-5.1555,-5.172,-5.0949,-5.0875,-5.0875,-5.0875,-5.1192,-5.0972,-5.0117,-5.0432,-5.0259,-4.9461,-4.9865,-5.008,-5.0092,-5.0483,-5.0683,-5.0712,-5.0712,-5.0712,-5.0712,-5.0712,-5.0712,-5.0712,-5.0712,-5.0712,-5.0712,-5.0712,-5.0712,-5.0712,-5.0673,-5.0144,-4.9394,-4.9336,-4.8779,-4.7913,-4.7144,-4.6343,-4.5701,-4.5701,-4.5706,-4.5708,-4.5773,-4.5807,-4.5795,-4.5793,-4.58,-4.5807,-4.5807,-4.5787,-4.5568,-4.4794,-4.4574,-4.4323,-4.346,-4.3266,-4.2995,-4.2125,-4.1951,-4.1969,-4.2043,-4.1403,-4.0945,-4.1072,-4.1044,0.0,-4.1081,-4.1047,-4.1014,-4.1046,-4.0307,-4.0162,-4.1035,-3.8789,-3.7656,-3.8437,-3.6094,-3.4668,-3.4629,-3.3789,-3.2949,-3.2168,-3.0401,-2.9871,-3.0663,0.0,0.0,0.0,0.0,0.0,0.0,0.0,0.0,0.0,0.0,0.0,0.0,0.0,0.0,0.0,0.0,0.0,0.0,0.0,0.0,0.0,-4.7884,-4.8306,-4.8306,-5.005,-5.1408,-5.1628,-5.238,-5.2784,-5.2564,-5.2546,-5.2546,-5.2546,-5.2631,-5.2427,-5.1844,-5.1375,-5.0873,-5.0365,-4.9858,-4.9746,-5.0092,-5.0206,-5.041,-5.0712,-5.0712,-5.0712,-5.0712,-5.0712,-5.0712,-5.0712,-5.0712,-5.0712,-5.0712,-5.0712,-5.0712,-5.0635,-4.999,-4.9606,-4.924,-4.8048,-4.7048,-4.6259,-4.6028,-4.5815,-4.5631,-4.5631,-4.5665,-4.5698,-4.5714,-4.5738,-4.5731,-4.5795,-4.5803,-4.581,-4.58,-4.5374,-4.4871,-4.4652,-4.411,-4.3421,-4.255,-4.2357,-4.2106,-4.1293,-4.1126,-4.1132,-4.1149,-4.0961,-4.0829,-4.0873,-4.0877,0.0,-4.0953,-4.0941,-4.073,-4.0203,-3.9937,-3.9648,-3.9265,-3.8583,-3.7463,-3.5802,-3.5038,-3.406,-3.2789,-3.1915,-3.1349,-3.1115,-3.0008,-2.9533,0.0,0.0,0.0,0.0,0.0,0.0,0.0,0.0,0.0,0.0,0.0,0.0,0.0,0.0,0.0,0.0,0.0,0.0,0.0,0.0,0.0,0.0,-4.9252,-4.9848,-4.9848,-5.1077,-5.2123,-5.2454,-5.2931,-5.3185,-5.3185,-5.3185,-5.3185,-5.3185,-5.2894,-5.2428,-5.1821,-5.1008,-5.0286,-4.9713,-4.9372,-4.9326,-4.9603,-4.9936,-5.0225,-5.0442,-5.0614,-5.0712,-5.0712,-5.0712,-5.0712,0.0,-5.0712,-5.0712,-5.0673,-5.0308,-5.0173,0.0,0.0,0.0,0.0,0.0,-4.6028,-4.5594,-4.5594,-4.5594,-4.5594,-4.5594,-4.5631,-4.5657,-4.5693,-4.5698,-4.5711,-4.575,-4.5758,-4.5754,-4.5791,-4.5179,-4.4476,-4.4149,-4.3401,-4.2512,-4.168,-4.1506,-4.1351,-4.0893,0.0,0.0,-4.0797,-4.0797,-4.0815,-4.0843,-4.0827,-4.082,0.0,-4.0888,-4.0558,-3.9792,-3.9391,-3.8973,-3.8491,-3.7457,0.0,0.0,0.0,-3.3431,-3.2065,-3.1154,0.0,0.0,0.0,0.0,0.0,0.0,0.0,0.0,-3.0659,-3.0818,0.0,0.0,0.0,0.0,0.0,0.0,0.0,0.0,0.0,0.0,0.0,0.0,0.0,0.0,0.0,0.0,-5.0636,-5.1972,-5.2105,-5.2142,-5.2399,-5.3133,-5.3185,-5.3185,-5.3185,-5.3112,-5.3078,-5.3078,-5.2325,-5.1499,-5.071,0.0,0.0,0.0,0.0,-4.8846,-4.8897,-4.9603,-4.9987,-5.0056,-5.0432,-5.0643,-5.0634,-5.0683,-5.0712,-5.0712,-5.0712,-5.0635,-5.05,-4.9721,-4.9279,-4.9125,-4.9125,-4.8586,-4.7644,-4.6152,-4.5594,0.0,0.0,0.0,0.0,-4.5594,-4.5594,-4.5603,-4.5665,-4.5693,-4.5682,-4.5703,-4.57,-4.5688,-4.5657,-4.5008,-4.4139,-4.3349,-4.2486,-4.1661,-4.0951,-4.0797,-4.0797,-4.0797,-4.0719,-4.0642,-4.0642,-4.0739,-4.0794,-4.0742,-4.0693,0.0,-4.0607,-4.0533,-4.0244,-3.9524,0.0,0.0,-3.8243,-3.6036,-3.5248,-3.6693,-3.4675,-3.3034,-3.2163,-3.1485,-3.1034,-3.0874,-3.1643,-3.2014,-3.1947,-3.272,-3.359,-3.4496,-3.2188,-3.2385,0.0,0.0,0.0,0.0,0.0,0.0,0.0,0.0,0.0,0.0,0.0,0.0,0.0,0.0,0.0,-5.0398,-5.108,-5.1734,-5.2813,-5.2968,-5.3041,-5.3167,-5.3185,-5.3185,-5.3185,-5.2619,-5.2234,-5.2234,-5.1481,-5.0674,-4.9886,-4.9684,0.0,-4.8343,-4.8383,-4.8568,-4.8897,-4.9043,-4.9322,-4.9695,0.0,0.0,-5.0325,-5.0594,-5.0712,-5.0712,-5.0712,-5.0308,-4.9644,-4.9471,-4.8606,-4.7375,-4.7375,-4.6855,-4.6037,-4.5729,-4.5594,-4.5594,-4.5594,-4.5594,-4.5594,-4.5594,-4.5594,-4.5594,-4.5622,-4.5622,0.0,-4.5682,-4.569,-4.5552,-4.4917,-4.4097,-4.3243,-4.2446,-4.1622,-4.099,-4.0835,-4.0797,-4.0797,-4.0797,-4.0236,-3.9752,-3.9752,-4.0332,-4.0571,-3.9865,-3.977,-3.9507,-3.8808,-3.8713,-3.8656,-3.8557,-3.7765,-3.7264,-3.7269,-3.6153,-3.5305,-3.4948,-3.4454,-3.3805,-3.2914,-3.3403,-3.3355,-3.2634,-3.2788,-3.2856,-3.2856,-3.303,-3.39,-3.5419,-3.4236,-3.4327,0.0,0.0,0.0,0.0,0.0,0.0,0.0,0.0,0.0,0.0,0.0,-4.5699,-4.73,0.0,-4.9185,-5.0742,-5.1226,-5.1728,-5.2662,-5.2806,-5.289,-5.3164,-5.3185,-5.3185,-5.3185,-5.2472,-5.1995,-5.1995,-5.0875,-5.0013,-4.9629,-4.9206,-4.8746,-4.8324,-4.8306,-4.8402,-4.8604,-4.8796,-4.9062,-4.9345,-4.9687,-4.9955,-5.0206,-5.0369,-5.0544,-5.0673,-5.025,-4.9798,-4.9336,-4.849,-4.7394,-4.624,-4.624,-4.597,-4.5594,-4.5594,-4.5594,-4.5594,-4.5594,-4.5594,-4.5594,-4.5594,-4.5594,-4.5594,-4.5594,-4.5594,-4.5518,-4.512,-4.4994,-4.4809,-4.4002,-4.3177,-4.2447,-4.2056,-4.1338,-4.0746,-4.0746,-4.0436,-4.0158,-4.0158,-3.9462,-3.8856,-3.8856,-3.9204,-3.934,-3.8914,-3.8856,-3.8682,-3.8251,-3.8193,-3.8048,-3.7647,-3.7201,-3.6794,-3.6372,-3.5941,-3.551,-3.5071,-3.4645,-3.42,-3.377,-3.375,-3.3532,-3.3107,-3.3532,-3.375,-3.375,-3.4195,-3.5278,-3.6942,-3.6497,-3.6765,0.0,0.0,0.0,0.0,0.0,0.0,0.0,-4.3318,-4.3921,-4.5003,-4.5841,-4.6828,-4.8329,-4.9104,-4.9796,-5.0643,-5.1158,-5.1626,-5.2155,-5.2338,-5.2563,-5.2995,-5.3143,-5.3151,-5.2986,-5.2234,-5.1701,-5.1557,-5.0198,-4.9353,-4.9353,-4.8673,-4.8306,-4.8306,-4.8306,-4.8306,-4.8306,-4.8604,-4.8849,-4.8988,-4.9311,-4.964,-5.0019,-5.0068,-5.0272,-5.0546,-4.9509,-4.901,-4.8798,-4.7213,-4.6184,-4.5594,-4.5594,-4.5594,-4.5594,-4.5594,-4.5594,-4.5594,-4.5594,-4.5594,-4.5594,-4.5594,-4.5594,-4.5594,-4.5594,-4.5479,-4.521,-4.4489,-4.4182,-4.3882,-4.3049,-4.2372,-4.1848,-4.1692,-4.1149,-4.0629,-4.0474,-3.9947,-3.943,-3.9276,-3.8541,-3.7941,-3.7941,-3.7825,-3.7767,-3.7922,-3.7941,-3.7883,-3.7729,-3.7709,-3.7444,-3.6748,-3.6671,-3.64,-3.5762,-3.5704,-3.5704,-3.5704,-3.5032,-3.4645,-3.4645,-3.3982,-3.361,-3.361,-3.4292,-3.4645,-3.4645,-3.5361,-3.6381,-3.7709,-3.8057,-3.876,-4.3291,-4.2811,-4.2455,-4.3115,-4.2777,-4.2828,0.0,-4.4874,-4.4897,-4.6447,-4.7476,-4.8218,-4.8546,-4.9332,-5.0131,-5.0721,-5.0857,-5.1096,-5.1601,-5.2108,-5.2408,-5.2477,-5.2912,-5.2931,-5.2197,-5.1408,-5.0637,-4.9922,-4.8985,-4.8453,-4.8453,-4.8361,-4.8306,-4.8306,-4.8306,-4.8306,-4.8306,-4.8345,-4.8439,-4.8569,-4.8849,-4.9094,-4.9321,-4.9561,-4.9873,-5.0165,-4.8589,-4.7633,-4.7087,-4.5878,-4.5467,-4.5594,-4.5594,-4.5594,-4.5594,-4.5594,-4.5594,-4.5594,-4.5594,-4.5594,-4.5594,-4.5594,-4.5594,-4.5594,-4.5594,-4.5056,-4.4432,-4.4335,-4.3797,-4.3047,-4.2162,-4.1925,-4.1705,-4.0923,-4.0682,-4.0428,-3.9695,-3.9464,-3.92,-3.8485,-3.764,-3.7058,-3.7058,-3.6458,-3.6226,-3.6942,-3.7058,-3.6787,-3.6071,-3.5974,-3.5936,-3.5839,-3.582,-3.58,-3.5704,-3.5704,-3.5704,-3.5704,-3.5607,-3.5549,-3.5549,-3.5452,-3.5414,-3.5414,-3.5491,-3.5549,-3.5549,-3.5646,-3.58,-3.6013,-3.7522,-3.9088,-4.4126,-4.3942,-4.3809,-4.4553,-4.4519,-4.4666,-4.6123,-4.6559,-4.6872,-4.7663,-4.8468,-4.9086,-4.9215,-4.9561,-4.993,-5.0274,-5.0331,-5.0509,-5.1052,-5.1594,-5.188,-5.171,-5.2178,-5.2362,-5.2013,-5.0839,-4.9978,-4.9629,-4.8783,-4.8306,-4.8306,-4.8306,-4.8306,-4.8306,-4.8306,-4.8306,-4.8306,-4.8306,-4.8363,-4.8513,-4.8605,-4.8834,-4.915,-4.9302,-4.9051,-4.8446,-4.7267,-4.6355,-4.5633,-4.5152,-4.5137,-4.5381,-4.5381,-4.5457,-4.5594,-4.5594,-4.5594,-4.5594,-4.5594,-4.5594,-4.5594,-4.5594,-4.5267,-4.4836,-4.4836,-4.4259,-4.3508,-4.2989,-4.2604,-4.2143,-4.1277,-4.1062,-4.0981,-4.0635,-4.0569,-4.0367,-3.9511,-3.8967,-3.8395,-3.7546,-3.6702,-3.6145,-3.6145,-3.5905,-3.58,-3.6149,-3.6207,-3.6071,-3.5742,-3.5704,-3.5704,-3.5704,-3.5704,-3.5704,-3.5704,-3.5704,-3.5704,-3.5704,-3.5704,-3.5704,-3.5704,-3.5704,-3.5704,-3.5704,-3.5704,-3.5704,-3.5704,-3.5704,-3.5936,-3.6419,-3.7116,-3.8121,-4.4695,-4.4709,-4.4784,-4.5517,-4.5703,-4.5969,-4.7017,-4.7687,-4.8218,-4.8604,-4.9171,-4.9607,-4.9755,-4.9784,-4.983,-4.9982,-5.0011,-5.0138,-5.0537,-5.0832,-5.1041,-5.0973,-5.1053,-5.1174,-5.1316,-5.029,-4.95,-4.9242,-4.8655,-4.8306,-4.8306,-4.8306,-4.8306,-4.8306,-4.8306,-4.8306,-4.8306,-4.8306,-4.8363,-4.8438,-4.8438,-4.8624,-4.892,-4.8877,-4.8213,-4.7087,-4.6301,-4.5521,-4.4788,-4.4714,-4.4849,-4.5085,-4.5085,-4.5211,-4.54,-4.5457,-4.555,-4.5594,-4.5594,-4.5594,-4.5556,-4.5325,-4.4797,-4.4259,-4.4047,-4.3393,-4.2604,-4.1981,-4.1643,-4.1296,-4.0669,-4.0496,-4.0496,-4.0496,-4.0358,-3.9995,-3.9129,-3.8309,-3.7469,-3.6607,-3.5996,-3.5589,-3.5589,-3.5637,-3.5673,-3.5673,-3.5679,-3.5704,-3.5704,-3.5704,-3.5704,-3.5704,-3.5704,-3.5704,-3.5704,-3.5704,-3.5704,-3.5704,-3.5704,-3.5704,-3.5704,-3.5704,-3.5704,-3.5704,-3.5704,-3.5704,-3.5704,-3.5704,-3.5994,-3.6574,-3.6806,-3.7251,-4.4803,-4.4709,-4.4784,-4.5517,-4.5703,-4.6092,-4.7547,-4.7988,-4.8371,-4.927,-4.9573,-4.9737,-4.9964,-5.0011,-5.0011,-5.0011,-5.0011,-5.0011,-5.0022,-4.9801,-4.9862,-5.0374,-4.9509,-4.9107,0.0,-4.9629,-4.9262,-4.8398,-4.8324,-4.8306,-4.8306,-4.8306,-4.8306,-4.8306,-4.8306,-4.8306,-4.8306,-4.8306,-4.8306,-4.8306,-4.8306,-4.8382,-4.8513,-4.812,-4.7489,-4.669,-4.5944,-4.531,-4.4776,-4.4519,-4.4572,-4.48,-4.48,-4.4812,-4.4868,-4.5107,-4.539,-4.5594,-4.5594,-4.5594,-4.546,-4.4605,-4.4316,-4.4143,-4.3374,-4.2527,-4.1827,-4.1808,-4.1181,-4.0535,-4.0516,-4.0496,-4.0496,-4.0496,-3.9919,-3.9092,-3.8219,-3.7401,-3.6581,-3.5701,-3.5579,-3.5598,-3.5598,-3.5602,-3.5606,-3.5606,-3.5668,-3.5704,-3.5704,-3.5704,-3.5704,-3.5704,-3.5704,-3.5704,-3.5704,-3.5704,-3.5704,-3.5704,-3.5704,-3.5704,-3.5704,-3.5704,-3.5704,-3.5704,-3.5704,-3.5704,-3.5704,-3.5704,-3.5704,-3.5762,-3.6535,-3.6903,-4.5059,-4.4951,-4.5029,-4.5767,-4.6272,-4.6859,-4.7979,-4.8545,-4.8848,-4.8876,-4.8941,-4.8861,-4.8551,-4.8861,-4.9189,-4.9189,-4.9666,-5.0011,-5.0011,-5.0227,-5.0198,-4.9659,-4.959,0.0,0.0,0.0,0.0,-4.8324,-4.8306,-4.8306,-4.8306,-4.8306,-4.8306,-4.8306,-4.8306,-4.8306,-4.8306,-4.8306,-4.8306,-4.8306,-4.8306,-4.8088,-4.7684,-4.7016,-4.6303,-4.5535,-4.4798,-4.4385,-4.421,-4.4151,-4.4289,-4.4533,-4.4533,-4.4637,-4.48,-4.4896,-4.4996,-4.5118,-4.5485,-4.5229,-4.4682,-4.4393,-4.3547,-4.2585,-4.2316,-4.1623,-4.0931,-4.0931,-4.0727,-4.0496,-4.0496,-4.0496,-4.0496,-4.0496,-3.99,-3.9073,-3.818,-3.7322,-3.6483,-3.5655,-3.5515,-3.5528,-3.5528,-3.5572,-3.5602,-3.5601,-3.5668,-3.5704,-3.5704,-3.5704,-3.5704,-3.5704,-3.5704,-3.5704,-3.5704,-3.5704,-3.5704,-3.5704,-3.5704,-3.5704,-3.5704,-3.5704,-3.5704,-3.5704,-3.5704,-3.5704,-3.5704,-3.5704,-3.5704,-3.5704,-3.5974,-3.6091,-4.5203,-4.5113,-4.5193,-4.5935,-4.6397,-4.6931,-4.7768,-4.8285,-4.8519,-4.8243,-4.8243,-4.8174,-4.7775,-4.8086,-4.8482,-4.8758,-4.9223,-4.9683,-4.9959,-5.0059,-4.9774,-4.9015,-4.9138,-4.897,0.0,0.0,0.0,-4.8306,-4.8306,-4.8306,-4.8306,-4.8306,-4.8306,-4.8306,-4.8306,-4.8306,-4.8306,-4.8306,-4.8306,-4.8306,-4.8012,-4.7665,-4.7187,-4.6102,-4.5346,-4.4898,-4.4118,-4.3816,-4.3867,-4.3913,-4.4048,-4.4221,-4.4221,-4.4336,-4.4498,-4.4604,-4.4436,-4.4266,-4.4711,-4.4518,-4.3953,-4.3434,-4.253,-4.1618,-4.1396,-4.0891,-4.0381,-4.0381,-4.0319,-4.0248,-4.0248,-4.0248,-4.0248,-4.0248,-3.9678,-3.8922,-3.8051,-3.7252,-3.6462,-3.5654,-3.5501,-3.5502,-3.5502,-3.5534,-3.5572,-3.5602,-3.5645,-3.5662,-3.5704,-3.5704,-3.5704,-3.5704,-3.5704,-3.5704,-3.5704,-3.5704,-3.5704,-3.5704,-3.5704,-3.5704,-3.5704,-3.5704,-3.5704,-3.5704,-3.5704,-3.5704,-3.5704,-3.5704,-3.5704,-3.5704,-3.5704,-3.5704,-4.5203,-4.5113,-4.5176,-4.5883,-4.6088,-4.6293,-4.6994,-4.7329,-4.7494,-4.7442,-4.7554,-4.7603,-4.7562,-4.7569,-4.7862,-4.8568,-4.8741,-4.9068,-4.989,-4.9321,-4.8706,-4.8435,-4.8154,-4.789,-4.7621,-4.8015,0.0,-4.8306,0.0,-4.8306,-4.8306,-4.8306,-4.8306,-4.8306,-4.8306,-4.8306,-4.8306,-4.8306,-4.8288,-4.8233,-4.7461,-4.7058,-4.6929,-4.5388,-4.4707,-4.4684,-4.393,-4.3667,-4.3788,-4.3749,-4.3779,-4.3841,-4.3788,-4.3786,-4.3799,-4.4065,-4.3676,-4.3057,-4.3341,-4.3443,-4.3236,-4.1836,-4.1342,-4.1208,-4.0647,-4.033,-4.0186,-4.0186,-4.0002,-3.9808,-3.9808,-3.9808,-3.9808,-3.9808,-3.9326,-3.864,-3.7772,-3.7094,-3.6421,-3.5633,-3.5479,-3.546,-3.5486,-3.5482,-3.5496,-3.5579,-3.5585,-3.561,-3.5679,-3.5684,-3.5704,-3.5704,-3.5704,-3.5704,-3.5704,-3.5704,-3.5704,-3.5704,-3.5704,-3.5704,-3.5704,-3.5704,-3.5704,-3.5704,-3.5704,-3.5704,-3.5704,-3.5704,-3.5704,-3.5698,-3.5698,-3.5698,-4.5344,-4.5318,-4.5325,-4.5532,-4.5915,-4.6295,-4.6484,-4.6907,-4.7164,-4.6683,-4.6618,-4.6357,-4.5354,-4.6113,-4.6958,-4.7148,-4.8068,-4.9068,-4.989,-4.9321,-4.8706,-4.8435,-4.8154,-4.789,-4.7621,-4.8015,0.0,0.0,-4.8306,-4.8306,-4.8306,-4.8306,-4.8306,-4.8306,-4.8306,-4.8306,-4.8306,-4.8306,-4.8012,-4.7388,-4.7204,-4.647,-4.5296,-4.4874,-4.4378,-4.3825,-4.3674,-4.3615,-4.3612,-4.3123,-4.2931,-4.2873,-4.2282,-4.2041,-4.2057,-4.2097,-4.1998,-4.175,-4.1188,-4.1323,-4.1677,-4.1296,-4.0748,-4.0188,-4.003,-3.9934,-3.9893,-3.9893,-3.9851,-3.9808,-3.9808,-3.9808,-3.9808,-3.9808,-3.9233,-3.8448,-3.7555,-3.6777,-3.6016,-3.5207,-3.5054,-3.5098,-3.525,-3.5157,-3.5122,-3.5289,-3.5311,-3.5383,-3.5595,-3.5637,-3.5643,-3.5684,-3.5704,-3.5704,-3.5704,-3.5704,-3.5704,-3.5704,-3.5704,-3.5704,-3.5704,-3.5704,-3.5704,-3.5704,-3.5704,-3.5704,-3.5704,-3.5704,-3.5651,-3.5547,-3.5547,-3.5502,-4.5397,-4.5397,-4.5397,-4.5397,-4.5654,-4.5927,-4.5927,-4.6155,-4.6213,-4.5566,-4.5411,-4.518,-4.444,-4.5018,-4.5924,-4.6924,-4.7758,-4.8706,-4.9855,-4.9321,-4.864,-4.8143,-4.7842,-4.7583,-4.732,-4.7713,-4.8093,0.0,-4.8306,-4.8306,-4.8306,-4.8306,-4.8306,-4.8306,-4.8306,-4.8306,-4.8306,-4.7957,-4.7553,-4.7094,-4.6379,-4.5572,-4.4691,-4.4342,-4.392,-4.3496,0.0,-4.3364,-4.2996,-4.2621,-4.2283,-4.1947,-4.1486,-4.132,-4.132,-4.132,-4.1098,-4.0729,-4.0216,-4.0095,-4.0159,-4.0313,-4.0045,-3.9683,-3.9775,-3.975,-3.9671,-3.9671,-3.959,-3.9494,-3.9494,-3.9494,-3.9494,-3.9494,-3.9239,-3.8667,-3.7422,-3.6873,-3.6281,-3.5116,-3.4908,-3.4945,-3.5054,-3.4963,-3.4936,-3.5051,-3.5069,-3.5108,-3.5273,-3.5464,-3.5614,-3.5643,-3.5668,-3.5673,-3.5704,-3.5704,-3.5704,-3.5704,-3.5704,-3.5668,-3.5608,-3.5608,-3.559,-3.5522,-3.5522,-3.5522,-3.5522,-3.5522,-3.5489,-3.5416,-3.5416,-3.5374,-4.5397,-4.5397,-4.5397,-4.5397,-4.5397,-4.5397,-4.5397,-4.5397,-4.5173,-4.4466,-4.4311,-4.4276,-4.4173,-4.4225,-4.4984,-4.7079,-4.7465,-4.8079,-4.9493,-4.9028,-4.8258,-4.762,-4.7317,-4.7061,-4.6842,-4.7291,-4.7775,-4.8172,-4.8267,-4.8306,-4.8306,-4.8306,-4.8306,-4.8306,-4.8306,-4.8251,-4.8141,-4.7443,-4.6984,-4.6764,-4.537,-4.4636,-4.4525,-4.3809,-4.3515,-4.3496,0.0,0.0,-4.2286,-4.2066,-4.1601,-4.1022,-4.0912,-4.0875,-4.0875,-4.0875,-4.0433,-3.9829,-3.9829,-3.9411,-3.8935,-3.9237,-3.9376,-3.9458,-3.963,-3.9585,-3.9452,-3.9452,-3.9285,-3.9101,-3.9101,-3.9101,-3.9101,-3.9101,-3.921,-3.8852,-3.7291,-3.693,-3.6476,-3.5076,-3.4812,-3.4812,-3.4841,-3.4821,-3.4821,-3.4841,-3.487,-3.4822,-3.4699,-3.5163,-3.5509,-3.5521,-3.5527,-3.554,-3.5602,-3.5614,-3.562,-3.562,-3.5645,-3.5596,-3.547,-3.547,-3.5416,-3.5289,-3.5308,-3.5308,-3.5308,-3.5308,-3.5281,-3.5266,-3.5266,-3.5258,-4.5397,-4.5397,-4.5397,-4.5397,-4.5397,-4.5397,-4.5397,-4.5397,-4.5173,-4.4466,-4.4311,-4.4121,-4.35,-4.3897,-4.4613,-4.5638,-4.6345,-4.7113,-4.7993,-4.7458,-4.6941,-4.682,-4.6559,-4.6376,-4.6332,-4.7093,0.0,0.0,-4.8075,-4.8306,-4.8306,-4.8306,-4.8306,-4.8306,-4.8306,-4.7994,-4.7314,-4.7168,-4.6434,-4.5095,-4.4819,-4.436,-4.3699,-4.3552,-4.3515,-4.346,0.0,0.0,-4.2194,-4.0855,-4.0246,-4.006,-3.9383,-3.9126,-3.9126,-3.9126,-3.9053,-3.8924,-3.8924,-3.8875,-3.8837,-3.895,-3.9036,-3.9087,-3.9142,-3.9151,-3.9183,-3.9183,-3.9142,-3.9101,-3.9101,-3.9101,-3.9101,-3.9101,-3.8622,-3.7917,-3.6968,-3.5683,-3.4657,-3.4384,-3.4309,-3.4397,-3.4615,-3.4465,-3.4397,-3.4615,-3.4647,-3.4384,-3.3671,-3.4415,-3.503,-3.51,-3.51,-3.5108,-3.5117,-3.5173,-3.5193,-3.5193,-3.5319,-3.536,-3.5345,-3.5326,-3.5311,-3.5308,-3.5308,-3.5308,-3.5308,-3.5308,-3.5235,-3.5138,-3.5138,-3.5079,-4.5397,-4.5397,-4.5397,-4.5397,-4.5397,-4.5397,-4.5397,-4.5397,-4.5173,-4.4466,-4.4311,-4.419,-4.3845,-4.4069,-4.4691,-4.5855,-4.6355,-4.6872,-4.7614,-4.7079,-4.6613,-4.6613,-4.6126,-4.5905,-4.6161,-4.684,-4.7335,-4.7591,-4.8035,-4.8306,-4.8306,-4.8306,-4.8306,-4.8306,-4.7902,-4.748,-4.7094,-4.6269,-4.5461,-4.4691,-4.4287,-4.3864,-4.3515,-4.3515,-4.3515,-4.346,-4.2653,0.0,-4.1572,-4.0377,-3.9643,-3.9239,-3.8854,-3.8707,-3.8707,-3.8707,-3.8707,-3.8707,-3.8707,-3.8719,-3.875,-3.8795,-3.8866,-3.895,-3.8979,-3.9021,-3.9064,-3.9087,-3.9101,-3.9101,-3.9101,-3.9101,-3.9101,-3.9101,-3.8172,-3.7058,-3.6253,-3.5101,-3.4197,-3.4197,-3.4197,-3.4245,-3.4363,-3.4281,-3.4245,-3.4363,-3.4386,-3.4236,-3.3825,-3.4228,-3.4475,-3.4336,-3.4324,-3.4504,-3.495,-3.5032,-3.5058,-3.5058,-3.5119,-3.5127,-3.5092,-3.5083,-3.5094,-3.5096,-3.5096,-3.5096,-3.5096,-3.5096,-3.5062,-3.4991,-3.4991,-3.4954,-4.5397,-4.5397,-4.5397,-4.5397,-4.5397,-4.5397,-4.5397,-4.5397,-4.5173,-4.4466,-4.4311,-4.4311,-4.4311,-4.4311,-4.476,-4.613,-4.6355,-4.6562,-4.7121,-4.669,-4.6355,-4.6355,-4.5776,-4.5563,-4.6005,-4.656,0.0,-4.7421,-4.7975,0.0,-4.8306,-4.8306,-4.8306,-4.8306,-4.7516,-4.7021,-4.6837,-4.5406,-4.4617,-4.4452,-4.3791,-4.3515,-4.3515,-4.3515,-4.3515,-4.346,-4.247,0.0,0.0,-4.0047,-3.9276,-3.8707,-3.8707,-3.8707,-3.8707,-3.8707,-3.8707,-3.8707,-3.8707,-3.8707,-3.8707,-3.8707,-3.878,-3.8896,-3.8935,-3.8983,-3.9007,-3.9059,-3.9087,-3.9101,-3.9101,-3.9101,-3.9008,-3.8674,-3.7485,-3.6216,-3.5398,-3.468,-3.4197,-3.4197,-3.4197,-3.4197,-3.4197,-3.4197,-3.4197,-3.4197,-3.4197,-3.4141,-3.3956,-3.3937,-3.3833,-3.3582,-3.3696,-3.4084,-3.4775,-3.486,-3.487,-3.487,-3.4908,-3.4889,-3.4841,-3.4841,-3.4841,-3.484,-3.487,-3.4879,-3.4879,-3.4898,-3.4908,-3.4908,-3.4908,-3.4898,-4.5397,-4.5397,-4.5397,-4.5397,-4.5397,-4.5397,-4.5397,-4.5397,-4.5173,-4.4466,-4.4311,-4.4311,-4.4311,-4.4311,-4.4561,-4.5363,-4.5518,-4.5535,-4.5604,-4.5552,-4.5518,-4.5518,-4.5449,-4.5423,-4.5476,-4.6321,-4.6908,-4.6976,0.0,0.0,-4.8306,-4.8306,-4.8306,-4.8306,-4.7516,-4.6746,-4.6012,-4.5149,-4.4342,-4.3608,-4.3551,-4.3515,-4.3515,-4.3515,-4.3515,-4.3423,0.0,0.0,0.0,-3.9426,-3.8781,-3.8707,-3.8707,-3.8707,-3.8707,-3.8707,-3.8707,-3.8707,-3.8707,-3.8707,-3.8707,-3.8707,-3.875,-3.8822,-3.8822,-3.8892,-3.8993,-3.9007,-3.9045,-3.9101,-3.9101,-3.9101,-3.8729,-3.7262,-3.6253,-3.538,-3.4506,-3.4253,-3.4197,-3.4197,-3.4197,-3.4197,-3.4197,-3.4197,-3.4197,-3.4197,-3.4197,-3.3937,-3.3194,-3.3101,-3.3087,-3.3071,-3.3722,-3.4188,-3.4274,-3.4397,-3.4454,-3.4454,-3.4572,-3.4636,-3.4626,-3.4626,-3.4626,-3.4634,-3.4758,-3.4809,-3.4809,-3.486,-3.4908,-3.4908,-3.4908,-3.4879,-4.5397,-4.5397,-4.5397,-4.5397,-4.5397,-4.5397,-4.5397,-4.5397,-4.5311,-4.5027,-4.4958,-4.4958,-4.4958,-4.4958,-4.5061,-4.5345,-4.5397,-4.5397,-4.5397,-4.5397,-4.5397,-4.5397,-4.5397,-4.5397,-4.5397,0.0,-4.6724,-4.727,0.0,0.0,-4.759,-4.8049,-4.8067,-4.759,-4.6801,-4.5993,-4.5186,-4.4378,-4.3809,-4.3515,-4.3515,-4.3515,-4.3515,-4.3515,-4.3515,-4.3423,0.0,0.0,0.0,-3.9368,-3.8707,-3.8707,-3.8707,-3.8707,-3.8707,-3.8707,-3.8707,-3.8707,-3.8707,-3.8707,-3.8707,-3.8707,-3.8723,-3.875,-3.8792,-3.8837,-3.891,-3.8983,-3.9021,-3.8938,-3.8493,-3.8024,-3.7355,-3.6253,-3.5733,-3.5268,-3.4383,-3.4197,-3.4197,-3.4197,-3.4197,-3.4197,-3.4197,-3.4197,-3.4197,-3.4197,-3.4197,-3.4067,-3.3751,-3.3714,-3.3714,-3.3714,-3.3577,-3.3658,-3.416,-3.4245,-3.4281,-3.4281,-3.4328,-3.4404,-3.4484,-3.4484,-3.4517,-3.4602,-3.4655,-3.4676,-3.4676,-3.4718,-3.4751,-3.484,-3.4751,-3.4749,-4.545,-4.5397,-4.5397,-4.5397,-4.5397,-4.5397,-4.5397,-4.5397,-4.5397,-4.5397,-4.5397,-4.5397,-4.5397,-4.5397,-4.5397,-4.5397,-4.5397,-4.5397,-4.5397,-4.5397,-4.5397,-4.5397,-4.5397,-4.5397,-4.5397,-4.5879,-4.6537,-4.7335,0.0,0.0,0.0,-4.7235,-4.7219,-4.6764,-4.5975,-4.5278,-4.4727,-4.3901,-4.3515,-4.3515,-4.3515,-4.3515,-4.3496,-4.324,-4.3149,-4.3057,0.0,0.0,0.0,-3.9276,-3.8707,-3.8707,-3.8707,-3.8707,-3.8707,-3.8707,-3.8707,-3.8707,-3.8707,-3.8707,-3.8707,-3.8707,-3.8707,-3.8723,-3.8765,-3.8777,-3.8822,-3.8906,-3.8798,-3.847,-3.7696,-3.6907,-3.6159,-3.5615,-3.5268,-3.4928,-3.4327,-3.4197,-3.4197,-3.4197,-3.4197,-3.4197,-3.4197,-3.4197,-3.4197,-3.4197,-3.4197,-3.4197,-3.4197,-3.4197,-3.4197,-3.4197,-3.3677,-3.3577,-3.4141,-3.4197,-3.4197,-3.4197,-3.4197,-3.4245,-3.4328,-3.434,-3.4393,-3.4484,-3.4517,-3.4539,-3.4539,-3.4572,-3.4645,-3.4747,-3.4645,-3.4655,-4.5537,-4.5397,-4.5397,-4.5397,-4.5397,-4.5397,-4.5397,-4.5397,-4.5397,-4.5397,-4.5397,-4.5397,-4.5397,-4.5397,-4.5397,-4.5397,-4.5397,-4.5397,-4.5397,-4.5397,-4.5397,-4.5397,-4.5397,-4.5397,-4.5397,-4.5879,-4.6387,0.0,0.0,0.0,0.0,-4.5727,-4.5507,-4.5883,-4.5131,-4.4727,-4.4691,-4.3901,-4.3515,-4.3515,-4.3515,-4.3515,-4.3478,-4.2671,-4.2304,0.0,0.0,0.0,0.0,-3.9038,-3.8707,-3.8707,-3.8707,-3.8707,-3.8707,-3.8707,-3.8707,-3.8707,-3.8707,-3.8707,-3.8707,-3.8707,-3.8707,-3.8707,-3.8707,-3.875,-3.8807,-3.8807,-3.8305,-3.7609,-3.6735,-3.5967,-3.5408,-3.5408,-3.4741,-3.4142,-3.4185,-3.4197,-3.4197,-3.4197,-3.4197,-3.4197,-3.4197,-3.4197,-3.4197,-3.4197,-3.4197,-3.4197,-3.4197,-3.4197,-3.4197,-3.4197,-3.4179,-3.4179,-3.4197,-3.4197,-3.4197,-3.4197,-3.4197,-3.4197,-3.4209,-3.4209,-3.4209,-3.4209,-3.4328,-3.4397,-3.4397,-3.4528,-3.4612,-3.4612,-3.4612,-3.4612,-4.5988,-4.5693,-4.5397,-4.5397,-4.5397,-4.5397,-4.5397,-4.5397,-4.5397,-4.5397,-4.5397,-4.5242,-4.4734,-4.4647,-4.4647,-4.4647,-4.4647,-4.482,-4.5328,-4.5397,-4.5397,-4.5397,-4.5397,-4.5397,0.0,0.0,-4.5433,0.0,0.0,0.0,0.0,-4.4603,-4.4651,-4.5076,-4.4837,-4.4452,-4.3883,-4.3643,-4.3515,-4.3515,-4.3515,-4.3515,-4.3478,-4.2671,0.0,0.0,0.0,0.0,0.0,-3.9038,-3.8707,-3.8707,-3.8707,-3.8707,-3.8707,-3.8707,-3.8707,-3.8707,-3.8707,-3.8707,-3.8707,-3.8707,-3.8707,-3.8707,-3.8707,-3.8704,-3.8624,-3.8114,-3.7058,-3.6033,-3.5761,-3.5058,-3.4443,-3.4443,-3.4277,-3.4111,-3.4124,-3.4173,-3.4197,-3.4197,-3.4197,-3.4197,-3.4197,-3.4197,-3.4197,-3.4197,-3.4197,-3.4197,-3.4197,-3.4197,-3.4197,-3.4197,-3.4197,-3.4197,-3.4197,-3.4197,-3.4197,-3.4197,-3.4197,-3.4197,-3.4197,-3.4197,-3.4197,-3.4197,-3.4245,-3.4257,-3.4257,-3.4305,-3.4328,-3.4328,-3.4427,-3.4397,-4.6125,-4.5803,-4.5397,-4.5397,-4.5397,-4.5397,-4.5397,-4.5371,-4.5327,-4.5327,-4.5103,-4.4776,-4.432,-4.4044,-4.3983,-4.4259,-4.4311,-4.457,-4.5294,-4.5397,-4.5397,-4.5397,-4.5397,0.0,0.0,-4.4815,0.0,0.0,0.0,0.0,0.0,-4.3454,-4.3586,-4.3999,-4.4179,-4.4011,-4.3515,-4.3515,-4.3515,-4.3515,-4.3515,-4.3332,-4.302,-4.2213,0.0,0.0,0.0,0.0,0.0,-3.8909,-3.8707,-3.8707,-3.8707,-3.8707,-3.8707,-3.8707,-3.8707,-3.8707,-3.8707,-3.8707,-3.8707,-3.8707,-3.8707,-3.8707,-3.8707,-3.8487,-3.8098,-3.7316,-3.621,-3.5177,-3.4818,-3.4352,-3.3959,-3.3959,-3.3998,-3.4036,-3.4086,-3.4136,-3.4173,-3.4197,-3.4197,-3.4197,-3.4197,-3.4197,-3.4197,-3.4197,-3.4197,-3.4197,-3.4197,-3.4197,-3.4197,-3.4197,-3.4197,-3.4197,-3.4197,-3.4197,-3.4197,-3.4197,-3.4197,-3.4197,-3.4197,-3.4197,-3.4197,-3.4197,-3.4197,-3.4197,-3.4197,-3.4197,-3.4197,-3.4209,-3.4281,-3.4281,0.0,-4.5732,-4.5363,-4.5337,-4.5311,-4.5311,-4.5242,-4.5146,0.0,-4.5022,-4.4473,-4.4009,-4.3992,-4.3494,-4.3354,-4.4147,-4.4234,-4.4492,-4.5276,-4.5397,-4.5397,-4.5397,-4.5397,0.0,-4.4354,-4.4259,0.0,0.0,0.0,0.0,0.0,-4.2314,-4.2378,-4.2844,-4.3214,-4.3444,-4.3515,-4.3515,-4.3515,-4.3515,-4.3441,-4.302,-4.2268,-4.1407,0.0,0.0,0.0,0.0,0.0,-3.8707,-3.8707,-3.8707,-3.8707,-3.8707,-3.8707,-3.8707,-3.8707,-3.8707,-3.8707,-3.8707,-3.8707,-3.8707,-3.8707,-3.8689,-3.8634,-3.8046,-3.7254,-3.6505,-3.5721,-3.4898,-3.4022,-3.386,-3.3895,-3.3895,-3.3895,-3.3934,-3.4061,-3.4086,-3.4111,-3.4185,-3.4197,-3.4197,-3.4197,-3.4197,-3.4197,-3.4197,-3.4197,-3.4197,-3.4197,-3.4197,-3.4197,-3.4197,-3.4197,-3.4197,-3.4197,-3.4197,-3.4197,-3.4197,-3.4197,-3.4197,-3.4197,-3.4197,-3.4197,-3.4197,-3.4197,-3.4197,-3.4197,-3.4197,-3.4197,-3.4197,-3.4197,-3.4197,-4.4942,0.0,-4.4931,-4.4647,-4.457,-4.438,0.0,-4.352,-4.3494,-4.3382,-4.3219,-4.3082,-4.3048,-4.2441,-4.2423,-4.3768,-4.3615,-4.3778,-4.5058,-4.5344,-4.5371,-4.5274,-4.5344,-4.5078,-4.4225,-4.3742,0.0,0.0,0.0,0.0,0.0,-4.171,-4.1885,-4.2358,-4.2458,-4.2827,-4.3479,-4.3515,-4.3515,-4.3496,-4.2873,-4.2488,-4.2249,-4.0836,0.0,0.0,0.0,0.0,-3.8707,-3.8707,-3.8707,-3.8707,-3.8707,-3.8707,-3.8707,-3.8707,-3.8707,-3.8707,-3.8707,-3.8707,-3.8707,-3.8707,-3.8707,-3.8597,-3.7955,-3.7217,-3.6541,-3.634,-3.5252,-3.4091,-3.3862,-3.3802,-3.3815,-3.3815,-3.3855,-3.3908,-3.3934,-3.3985,-3.4049,-3.4111,-3.4124,-3.4136,-3.4185,-3.4197,-3.4197,-3.4197,-3.4197,-3.4197,-3.4197,-3.4197,-3.4197,-3.4197,-3.4197,-3.4197,-3.4197,-3.4197,-3.4197,-3.4197,-3.4197,-3.4197,-3.4197,-3.4197,-3.4197,-3.4197,-3.4197,-3.4197,-3.4197,-3.4197,-3.4197,-3.4197,-3.4197,-3.4197,-4.4023,-4.4403,-4.4799,-4.4396,-4.4311,-4.4165,-4.3632,-4.3177,-4.2817,-4.2688,-4.2117,-4.1759,-4.204,-4.1553,-4.1604,-4.3099,-4.3399,-4.3837,-4.5022,-4.522,-4.5238,-4.5274,-4.53,-4.487,0.0,0.0,0.0,0.0,0.0,0.0,0.0,-4.1401,-4.1604,-4.1864,-4.2095,-4.2537,-4.3232,-4.3214,-4.3139,-4.2928,-4.2506,-4.1901,-4.1167,-4.0286,0.0,0.0,0.0,0.0,-3.8707,-3.8707,-3.8707,-3.8707,-3.8707,-3.8707,-3.8707,-3.8707,-3.8707,-3.8707,-3.8707,-3.8707,-3.8707,-3.8707,-3.8707,-3.856,-3.7749,-3.6942,-3.6211,-3.5826,-3.478,-3.3807,-3.3807,-3.3807,-3.3807,-3.3807,-3.3834,-3.3855,-3.3895,-3.3934,-3.3972,-3.4036,-3.4086,-3.4111,-3.4148,-3.4185,-3.4197,-3.4197,-3.4197,-3.4197,-3.4197,-3.4197,-3.4197,-3.4197,-3.4197,-3.4197,-3.4197,-3.4197,-3.4197,-3.4197,-3.4197,-3.4197,-3.4197,-3.4197,-3.4197,-3.4197,-3.4197,-3.4197,-3.4197,-3.4197,-3.4197,-3.4197,-3.4197,-3.4197,-4.3097,-4.3814,-4.446,-4.4188,-4.4199,-4.4199,-4.395,-4.3177,-4.2458,-4.2328,-4.1214,-4.0535,-4.1384,-4.1026,-4.1136,-4.2714,-4.3576,-4.4287,-4.5064,-4.5059,-4.5076,-4.5291,-4.5247,0.0,0.0,0.0,0.0,0.0,0.0,0.0,0.0,-4.1214,-4.1401,-4.1401,-4.1672,-4.204,-4.2512,-4.2587,-4.245,-4.2097,-4.1877,-4.1036,-3.9701,-3.9639,-3.9253,0.0,0.0,0.0,-3.8707,-3.8707,-3.8707,-3.8707,-3.8707,-3.8707,-3.8707,-3.8707,-3.8707,-3.8707,-3.8707,-3.8707,-3.8707,-3.8707,-3.8615,-3.8377,-3.7566,-3.6758,-3.5917,-3.5059,-3.4325,-3.3807,-3.3807,-3.3807,-3.3807,-3.3807,-3.3807,-3.382,-3.3868,-3.3881,-3.3895,-3.3972,-3.4036,-3.4074,-3.4099,-3.4148,-3.4185,-3.4197,-3.4197,-3.4197,-3.4197,-3.4197,-3.4197,-3.4197,-3.4197,-3.4197,-3.4197,-3.4197,-3.4197,-3.4197,-3.4197,-3.4197,-3.4197,-3.4197,-3.4197,-3.4197,-3.4197,-3.4197,-3.4197,-3.4197,-3.4197,-3.4197,-3.4197,-3.4197,-4.2029,-4.2564,-4.2933,-4.3289,-4.3743,-4.3906,-4.31,-4.2219,-4.1563,-4.1425,-4.0731,-4.0544,-4.1916,-4.1577,-4.1807,-4.3959,-4.451,-4.4749,-4.4988,-4.5005,-4.4951,-4.4913,0.0,0.0,0.0,0.0,0.0,0.0,0.0,0.0,0.0,-4.0965,-4.0989,-4.0989,-4.0383,-4.0328,-4.0782,-4.1174,-4.1339,-4.1254,-3.9892,-3.912,-3.8869,-3.8521,-3.8312,0.0,0.0,-3.8707,-3.8707,-3.8707,-3.8707,-3.8707,-3.8707,-3.8707,-3.8707,-3.8707,-3.8707,-3.8707,-3.8707,-3.8707,-3.8707,-3.8707,-3.823,-3.7529,-3.6725,-3.5881,-3.5023,-3.4211,-3.3899,-3.3807,-3.3807,-3.3807,-3.3807,-3.3807,-3.3807,-3.3788,-3.3802,-3.382,-3.3847,-3.3895,-3.3921,-3.3972,-3.4086,-3.4111,-3.4136,-3.4185,-3.4197,-3.4197,-3.4197,-3.4197,-3.4197,-3.4197,-3.4197,-3.4197,-3.4197,-3.4197,-3.4197,-3.4197,-3.4197,-3.4197,-3.4197,-3.4197,-3.4197,-3.4197,-3.4197,-3.4197,-3.4197,-3.4197,-3.4197,-3.4197,-3.4197,-3.4197,-4.0575,-4.1591,-4.2585,-4.2465,-4.322,-4.3861,-4.3361,-4.2601,-4.1953,-4.1822,-4.1204,-4.1018,-4.21,-4.2016,-4.2405,-4.4293,-4.4654,-4.4737,-4.4886,-4.4831,-4.4803,0.0,0.0,0.0,0.0,0.0,0.0,0.0,0.0,0.0,0.0,0.0,-4.0233,-4.0233,-3.9508,-3.9207,-3.9429,-3.9248,-3.9373,-3.9792,-3.9042,-3.847,-3.8041,-3.7847,-3.7896,-3.8101,0.0,-3.8499,-3.8707,-3.8707,-3.8707,-3.8707,-3.8707,-3.8707,-3.8707,-3.8707,-3.8707,-3.8707,-3.8707,-3.8707,-3.8707,-3.8707,-3.8157,-3.7345,-3.6541,-3.5697,-3.4839,-3.4027,-3.3807,-3.3807,-3.3807,-3.3807,-3.3807,-3.3807,-3.3807,-3.3807,-3.3807,-3.3807,-3.382,-3.3829,-3.3868,-3.3921,-3.3985,-3.4023,-3.4074,-3.4136,-3.4148,-3.4161,-3.4197,-3.4197,-3.4185,-3.4148,-3.4148,-3.4148,-3.4148,-3.4148,-3.4161,-3.4197,-3.4197,-3.4197,-3.4197,-3.4197,-3.4148,-3.4036,-3.4036,-3.3985,-3.3868,-3.3868,-3.3868,-3.3868,-3.3868,-3.3868,-3.992,-4.0863,-4.1963,-4.199,-4.2954,-4.3909,-4.3963,-4.3185,-4.246,-4.255,-4.1965,-4.1677,-4.2422,-4.2709,-4.3244,-4.4412,-4.4615,-4.4626,-4.4737,-4.4654,-4.4614,-4.463,0.0,0.0,0.0,0.0,0.0,0.0,0.0,0.0,0.0,0.0,-3.9439,-3.9439,-3.8715,-3.8336,-3.8336,-3.7616,-3.7631,-3.8417,-3.8222,-3.7832,-3.7209,-3.7321,-3.7523,-3.7826,-3.7913,-3.8203,-3.8546,-3.8467,-3.8483,-3.8546,-3.8546,-3.8611,-3.8707,-3.8707,-3.8707,-3.8707,-3.8707,-3.8707,-3.867,-3.8487,-3.7863,-3.707,-3.6248,-3.5389,-3.4582,-3.3972,-3.3807,-3.3807,-3.3807,-3.3807,-3.3807,-3.3807,-3.3807,-3.3793,-3.3694,-3.3734,-3.378,-3.3694,-3.3788,-3.3868,-3.3895,-3.3947,-3.3998,-3.4074,-3.4074,-3.4099,-3.4148,-3.4161,-3.4136,-3.4086,-3.4074,-3.4074,-3.4074,-3.4049,-3.4049,-3.4099,-3.4124,-3.4111,-3.4061,-3.4061,-3.3985,-3.3829,-3.3815,-3.3753,-3.3605,-3.3605,-3.3605,-3.3605,-3.3605,-3.3605,-4.1077,-4.0544,-4.0199,-4.2159,-4.327,-4.4046,-4.461,-4.3471,-4.2516,-4.32,-4.2726,-4.2439,-4.32,-4.3927,-4.4479,-4.4581,-4.4615,-4.4598,-4.4598,0.0,-4.4344,0.0,0.0,0.0,0.0,0.0,0.0,0.0,0.0,0.0,0.0,0.0,0.0,-3.8663,-3.7961,-3.7581,-3.7581,-3.6784,-3.6792,-3.7586,-3.6821,-3.644,-3.6388,-3.6761,-3.6958,-3.7017,-3.7395,-3.7756,-3.8118,-3.7738,-3.7809,-3.8135,-3.8135,-3.8368,-3.8707,-3.8707,-3.8707,-3.8707,-3.8707,-3.8707,-3.8579,-3.7841,-3.7052,-3.6211,-3.5353,-3.4527,-3.3862,-3.3825,-3.3807,-3.3807,-3.3807,-3.3807,-3.3807,-3.3807,-3.3807,-3.3707,-3.3408,-3.3583,-3.3707,-3.3394,-3.3578,-3.3834,-3.3881,-3.3895,-3.3934,-3.3998,-3.4011,-3.4011,-3.4011,-3.4011,-3.4011,-3.4011,-3.4011,-3.4011,-3.4011,-3.3895,-3.3815,-3.3815,-3.3881,-3.3847,-3.3643,-3.3629,-3.3647,-3.3615,-3.3633,-3.3601,-3.3605,-3.3605,-3.3605,-3.3605,-3.3605,-3.3605,-3.9041,-3.9623,-4.0306,-4.0519,-4.181,-4.318,-4.3783,-4.343,-4.3217,-4.3978,-4.391,-4.3836,-4.4079,-4.4384,-4.4615,-4.4615,-4.4615,-4.4615,-4.4615,-4.4164,0.0,0.0,0.0,0.0,0.0,0.0,0.0,0.0,0.0,0.0,0.0,0.0,0.0,-3.7927,-3.7146,-3.6749,-3.6749,-3.6456,-3.6456,-3.6749,-3.6439,-3.6301,-3.6301,-3.6451,-3.6658,-3.69,-3.7075,-3.7358,-3.7721,-3.756,-3.7596,-3.7738,-3.7999,-3.8203,-3.8368,-3.8611,-3.853,-3.8336,-3.8336,-3.799,-3.7517,-3.7241,-3.6398,-3.5426,-3.5096,-3.4435,-3.3807,-3.3807,-3.3807,-3.3807,-3.3807,-3.3807,-3.3807,-3.3807,-3.3652,-3.3451,-3.3335,-3.3243,-3.3136,-3.2999,-3.3075,-3.3199,-3.3211,-3.3211,-3.324,-3.331,-3.331,-3.3339,-3.3364,-3.3382,-3.3439,-3.3616,-3.363,-3.363,-3.363,-3.3429,-3.3255,-3.3124,-3.348,-3.3671,-3.3605,-3.3605,-3.3516,-3.3353,-3.3339,-3.3298,-3.3162,-3.3162,-3.3162,-3.3162,-3.3162,-3.3162,-3.8204,-3.9101,-4.0274,-3.9809,-4.0957,-4.2371,-4.2905,-4.3064,-4.3352,-4.4395,-4.4615,-4.4615,-4.4615,-4.4615,-4.4615,0.0,-4.4395,-4.4215,-4.4215,0.0,0.0,0.0,0.0,0.0,0.0,0.0,0.0,0.0,0.0,0.0,0.0,0.0,0.0,0.0,-3.6573,-3.6301,-3.6301,-3.6301,-3.6301,-3.6301,-3.6301,-3.6301,-3.6301,-3.6301,-3.6451,-3.6719,-3.6719,-3.6939,-3.7302,-3.717,-3.7208,-3.7339,-3.7614,-3.7879,-3.8118,-3.8269,-3.8236,-3.8085,-3.7948,-3.7553,-3.7012,-3.6525,-3.5768,-3.499,-3.4597,-3.4077,-3.3721,-3.4092,-3.3922,-3.3707,-3.3963,-3.3835,-3.3625,-3.3508,-3.3302,-3.3108,-3.3001,-3.3089,-3.3084,-3.2703,-3.2928,-3.3098,-3.2848,-3.2795,-3.29,-3.3198,-3.325,-3.3355,-3.3635,-3.3454,-3.3299,-3.3232,-3.3211,-3.3211,-3.3211,-3.2996,-3.2811,-3.2669,-3.2988,-3.322,-3.328,-3.328,-3.322,-3.3117,-3.3117,-3.3039,-3.29,-3.29,-3.29,-3.29,-3.29,-3.29,-3.9251,-3.9112,-3.9824,-4.0377,-4.1049,-4.1742,-4.2213,-4.2303,-4.277,-4.4293,-4.4615,-4.4615,-4.4598,-4.4598,-4.4598,-4.4581,-4.391,-4.3375,0.0,0.0,0.0,0.0,0.0,0.0,0.0,0.0,0.0,0.0,0.0,0.0,0.0,0.0,0.0,0.0,-3.6255,-3.6301,-3.6301,-3.6301,-3.6301,-3.6301,-3.6301,-3.6301,-3.6301,-3.6301,-3.6301,-3.6301,-3.6301,-3.6533,-3.686,-3.6471,-3.6516,-3.69,-3.69,-3.7395,-3.8051,-3.765,-3.7738,-3.8034,-3.7632,-3.7505,-3.7238,-3.5704,-3.5204,-3.4969,-3.3707,-3.3324,-3.3546,-3.4686,-3.4193,-3.3505,-3.4298,-3.3903,-3.3217,-3.2874,-3.2795,-3.2699,-3.2369,-3.3191,-3.3661,-3.2528,-3.3225,-3.3743,-3.2939,-3.2797,-3.3064,-3.3886,-3.3993,-3.4261,-3.501,-3.4457,-3.3706,-3.2886,-3.2813,-3.2813,-3.2813,-3.2669,-3.2589,-3.2589,-3.2403,-3.2386,-3.2589,-3.2606,-3.2688,-3.29,-3.29,-3.29,-3.29,-3.29,-3.29,-3.29,-3.29,-3.29,-3.7784,-3.8036,-3.8952,-3.9637,-4.1024,-4.2422,-4.3107,-4.3179,-4.3369,-4.4395,-4.4615,-4.4445,-4.3859,-4.3775,0.0,-4.3064,-4.2777,-4.2625,0.0,0.0,0.0,0.0,0.0,0.0,0.0,0.0,0.0,0.0,0.0,0.0,0.0,0.0,0.0,0.0,-3.6127,-3.617,-3.6301,-3.6255,-3.6255,-3.6301,-3.6301,-3.6301,-3.6301,-3.6301,-3.6301,-3.6301,-3.6301,-3.6385,-3.6471,-3.6364,-3.6385,-3.6512,-3.6781,-3.7055,-3.7283,-3.745,-3.7414,-3.7246,-3.7132,-3.6703,-3.6155,-3.5696,-3.5367,-3.5062,-3.4682,-3.4572,-3.4642,-3.499,-3.4833,-3.4576,-3.4569,-3.4376,-3.3985,-3.3032,-3.2619,-3.242,-3.2318,-3.2791,-3.3135,-3.278,-3.2993,-3.3328,-3.366,-3.3241,-3.3136,-3.3956,-3.4078,-3.4165,-3.4356,-3.4405,-3.4323,-3.4094,-3.3547,-3.3213,-3.3213,-3.2494,-3.2037,-3.2037,-3.1983,-3.2073,-3.2369,-3.2386,-3.242,-3.2489,-3.2471,-3.2471,-3.2471,-3.2622,-3.2688,-3.2688,-3.2818,-3.29,-3.781,-3.8637,-3.9903,-4.0319,-4.1757,-4.3163,-4.3515,-4.3728,-4.4012,-4.4513,-4.4361,-4.3978,-4.3504,-4.3139,0.0,-4.2371,-4.2049,0.0,0.0,0.0,0.0,0.0,0.0,0.0,0.0,0.0,0.0,0.0,0.0,0.0,0.0,0.0,0.0,0.0,-3.6079,-3.6127,-3.6255,-3.6251,-3.6255,-3.6301,-3.6259,-3.6259,-3.6301,-3.6301,-3.6301,-3.6301,-3.6301,-3.6301,-3.6301,-3.6301,-3.6301,-3.6322,-3.6557,-3.6761,-3.69,-3.6997,-3.6978,-3.688,-3.6719,-3.6342,-3.5886,-3.5608,-3.5346,-3.5096,-3.496,-3.4907,-3.5013,-3.5438,-3.5261,-3.4853,-3.4689,-3.4523,-3.422,-3.3495,-3.2914,-3.2544,-3.2544,-3.2987,-3.3283,-3.2955,-3.3386,-3.3869,-3.4079,-3.3697,-3.3628,-3.4404,-3.4803,-3.4869,-3.4559,-3.4705,-3.4739,-3.4425,-3.3972,-3.3676,-3.3676,-3.3088,-3.2697,-3.2697,-3.2403,-3.2342,-3.2526,-3.2336,-3.2249,-3.2301,-3.2301,-3.2301,-3.2301,-3.242,-3.2471,-3.2471,-3.2606,-3.2655,-3.8595,-4.0061,-4.1795,-4.181,-4.286,-4.3831,-4.3474,-4.391,-4.4395,-4.4395,-4.3809,-4.3274,-4.3206,-4.2658,-4.2168,-4.21,0.0,0.0,0.0,0.0,0.0,0.0,0.0,0.0,0.0,0.0,0.0,0.0,0.0,0.0,0.0,0.0,0.0,0.0,-3.6014,-3.6144,-3.6204,-3.6255,-3.628,0.0,-3.6229,-3.6229,-3.628,-3.628,-3.6301,-3.6301,-3.6301,-3.6301,-3.6301,-3.6301,-3.6301,-3.6301,-3.6301,-3.6533,-3.6801,-3.643,-3.6516,-3.6781,-3.643,-3.6301,-3.6197,-3.5508,-3.5283,-3.5224,-3.4866,-3.4734,-3.4985,-3.6006,-3.5558,-3.477,-3.4826,-3.4579,-3.4303,-3.4303,-3.3628,-3.3007,-3.3007,-3.3628,-3.3973,-3.3248,-3.4231,-3.5007,-3.4387,-3.4251,-3.4458,-3.518,-3.587,-3.6059,-3.5387,-3.5283,-3.5025,-3.4372,-3.4251,-3.4199,-3.4199,-3.4148,-3.4113,-3.4113,-3.3335,-3.2938,-3.3007,-3.2416,-3.2144,-3.2249,-3.2249,-3.2249,-3.2249,-3.2266,-3.2283,-3.2283,-3.2301,-3.2301,-3.6943,-3.843,-4.0474,-4.1657,-4.2937,-4.3831,-4.3474,-4.3098,-4.2777,-4.2777,-4.2658,-4.2354,-4.1796,-4.1542,-4.1255,0.0,0.0,0.0,0.0,0.0,0.0,0.0,0.0,0.0,0.0,0.0,0.0,0.0,0.0,0.0,0.0,0.0,0.0,-3.5795,-3.5734,-3.5866,-3.6204,-3.6105,-3.6131,0.0,-3.6229,-3.6225,-3.6208,-3.6208,-3.6255,-3.6301,-3.6301,-3.6301,-3.6301,-3.6301,-3.6301,-3.6301,-3.6301,-3.6364,-3.6409,-3.6343,-3.6346,-3.6409,-3.6343,-3.6301,-3.6266,-3.6111,-3.6059,-3.6063,-3.5956,-3.5925,-3.598,-3.6238,-3.6107,-3.5942,-3.5945,-3.5901,-3.5818,-3.5818,-3.48,-3.3835,-3.3835,-3.4421,-3.4904,-3.4731,-3.4956,-3.5318,-3.5749,-3.5335,-3.5197,-3.5956,-3.6197,-3.6232,-3.6077,-3.6059,-3.6008,-3.5835,-3.5301,-3.4956,-3.4956,-3.4441,-3.4113,-3.4113,-3.3335,-3.3179,-3.3818,-3.2581,-3.1892,-3.1911,-3.1911,-3.1911,-3.1911,-3.2073,-3.2144,-3.2144,-3.2249,-3.2301,-3.7509,-3.9287,-4.1406,-4.2674,-4.3443,-4.3627,-4.2683,-4.2102,-4.166,-4.1331,-4.1525,-4.166,-4.1271,-4.0916,-4.045,0.0,0.0,0.0,0.0,0.0,0.0,0.0,0.0,0.0,0.0,0.0,0.0,0.0,0.0,0.0,0.0,-3.56,-3.5622,-3.5689,-3.5689,-3.5795,-3.601,-3.5997,-3.6062,-3.617,-3.6058,-3.601,-3.6014,-3.6122,-3.6251,-3.6301,-3.6276,-3.6255,-3.6255,-3.6255,-3.6255,-3.6255,-3.628,-3.6301,-3.6301,-3.6301,-3.6301,-3.6301,-3.6301,-3.6301,-3.6301,-3.6301,-3.6301,-3.6301,-3.6301,-3.6301,-3.6301,-3.6301,-3.6301,-3.6215,-3.587,-3.6042,-3.6215,-3.5852,-3.518,-3.4628,-3.4628,-3.4921,-3.5197,-3.5197,-3.549,-3.5852,-3.6232,-3.5973,-3.5852,-3.6232,-3.6301,-3.6301,-3.6301,-3.6301,-3.6301,-3.6301,-3.5956,-3.5732,-3.5732,-3.537,-3.5145,-3.5145,-3.4421,-3.418,-3.4594,-3.3145,-3.2334,-3.2334,-3.1972,-3.18,-3.18,-3.191,-3.1964,-3.1947,-3.2037,-3.2055,-3.7923,-4.0022,-4.2213,-4.3579,-4.3708,-4.3167,-4.1759,-4.1231,-4.0823,-4.0104,-4.0519,-4.0967,-4.0849,-4.0307,0.0,0.0,0.0,0.0,0.0,0.0,0.0,0.0,0.0,0.0,0.0,0.0,0.0,0.0,0.0,0.0,-3.56,-3.56,-3.56,-3.56,-3.5706,-3.5773,-3.5795,-3.5927,-3.5975,-3.5997,-3.5861,-3.5795,-3.5795,-3.6014,-3.6187,-3.628,-3.6229,-3.6204,-3.6204,-3.6204,-3.6204,-3.6225,-3.6259,-3.6301,-3.628,-3.628,-3.628,-3.628,-3.628,-3.628,-3.6301,-3.6301,-3.6301,-3.628,-3.628,-3.628,-3.628,-3.628,-3.628,-3.6163,-3.5542,-3.5835,-3.6146,-3.5525,-3.5387,-3.5387,-3.5387,-3.5387,-3.5387,-3.5387,-3.587,-3.6301,-3.6301,-3.6301,-3.6301,-3.6301,-3.6301,-3.6301,-3.6301,-3.6301,-3.6301,-3.6301,-3.6301,-3.6301,-3.6301,-3.6301,-3.6301,-3.6301,-3.5611,-3.5249,-3.537,-3.3783,-3.2972,-3.3093,-3.2248,-3.18,-3.18,-3.18,-3.18,-3.18,-3.18,-3.18,-3.4883,-3.6858,-3.9761,-4.2412,-4.2585,-4.1978,-4.1664,-4.0992,-4.0212,-3.9481,-3.9807,-4.0062,-3.9411,-3.9208,0.0,0.0,0.0,0.0,0.0,0.0,0.0,0.0,0.0,0.0,0.0,0.0,0.0,0.0,0.0,0.0,-3.56,-3.56,-3.56,-3.56,-3.5622,-3.5667,-3.5795,-3.5817,-3.5883,-3.5997,-3.5861,-3.5795,-3.5795,-3.5839,-3.5993,-3.6208,-3.6187,-3.6204,-3.6204,-3.6204,-3.6204,-3.6225,-3.6259,-3.6255,-3.6208,-3.6208,-3.6208,-3.6208,-3.6208,-3.6255,-3.6301,-3.6301,-3.6255,-3.6208,-3.6208,-3.6208,-3.6208,-3.6208,-3.6255,-3.6284,-3.618,-3.6232,-3.6284,-3.618,-3.6146,-3.6146,-3.6146,-3.6146,-3.6146,-3.6146,-3.6232,-3.6301,-3.6301,-3.6301,-3.6301,-3.6301,-3.6301,-3.6301,-3.6301,-3.6301,-3.6301,-3.6301,-3.6301,-3.6301,-3.6301,-3.6301,-3.6301,-3.6301,-3.5611,-3.549,-3.6128,-3.4059,-3.3231,-3.3941,-3.2524,-3.18,-3.18,-3.18,-3.18,-3.18,-3.18,-3.18,-3.6166,-3.7998,-4.0023,-4.1916,-4.2085,-4.1668,-4.1207,-4.0417,-3.9712,-3.9389,-3.9098,-3.8814,-3.8454,-3.8379,0.0,0.0,0.0,0.0,0.0,0.0,0.0,0.0,0.0,0.0,0.0,0.0,0.0,0.0,0.0,-3.56,-3.56,-3.5216,-3.4979,-3.4979,-3.4568,-3.4409,-3.4452,-3.4452,-3.4699,-3.5171,-3.5508,-3.5706,-3.5689,-3.5773,-3.5905,-3.6079,-3.6014,-3.5971,-3.5971,-3.5971,-3.6014,-3.6101,-3.6127,-3.6148,-3.6187,-3.6122,-3.6101,-3.6101,-3.6165,-3.6208,-3.6233,-3.6233,-3.6229,-3.6204,-3.6122,-3.6144,-3.6204,-3.6204,-3.6251,-3.6301,-3.6301,-3.6301,-3.6301,-3.6301,-3.6301,-3.6301,-3.6301,-3.6301,-3.6301,-3.6301,-3.6301,-3.6301,-3.6301,-3.6301,-3.6301,-3.6301,-3.6301,-3.6301,-3.6301,-3.6301,-3.6301,-3.6301,-3.6301,-3.6301,-3.6301,-3.6301,-3.6301,-3.6301,-3.599,-3.5956,-3.6284,-3.4938,-3.4162,-3.4113,-3.2576,-3.18,-3.18,-3.18,-3.18,-3.18,-3.18,-3.18,-3.636,-3.7916,-3.9066,-4.0568,-4.1183,-4.1302,-4.0838,-4.0065,-3.9354,-3.9189,-3.8406,-3.7687,-3.7411,0.0,0.0,0.0,0.0,0.0,0.0,0.0,0.0,0.0,0.0,0.0,0.0,0.0,0.0,0.0,0.0,-3.5228,-3.5042,-3.4523,-3.4218,-3.4218,-3.3694,-3.3406,-3.3406,-3.3406,-3.3677,-3.4218,-3.4793,-3.5042,-3.5025,-3.513,-3.5239,-3.5364,-3.5669,-3.5795,-3.5795,-3.5795,-3.5861,-3.5954,-3.5975,-3.6036,-3.6096,-3.5993,-3.5954,-3.5954,-3.6058,-3.6122,-3.6144,-3.6144,-3.6122,-3.6079,-3.5993,-3.6014,-3.6096,-3.6096,-3.617,-3.6259,-3.6259,-3.628,-3.6301,-3.6301,-3.6301,-3.6301,-3.6301,-3.6301,-3.6301,-3.6301,-3.6301,-3.6301,-3.6301,-3.6301,-3.6301,-3.6301,-3.6301,-3.6301,-3.6301,-3.6301,-3.6301,-3.6301,-3.6301,-3.6301,-3.6301,-3.6301,-3.6301,-3.6301,-3.6301,-3.6301,-3.6301,-3.5576,-3.4835,-3.4113,-3.2766,-3.199,-3.18,-3.18,-3.18,-3.18,-3.18,-3.18,-3.2844,-3.3904,-3.4942,-3.7469,-3.9245,-4.0477,-4.081,-4.0173,-3.93,-3.8585,-3.7775,-3.6882,-3.6072,0.0,0.0,0.0,0.0,0.0,0.0,0.0,0.0,0.0,0.0,0.0,0.0,0.0,0.0,0.0,0.0,-3.4252,-3.3558,-3.3491,-3.3457,-3.3457,-3.3423,-3.3406,-3.3406,-3.3406,-3.3423,-3.3457,-3.3508,-3.3525,-3.3525,-3.3525,-3.3525,-3.363,-3.514,-3.5795,-3.5795,-3.5795,-3.5795,-3.5817,-3.5954,-3.5927,-3.5817,-3.5817,-3.5817,-3.5817,-3.5817,-3.5905,-3.6019,-3.6019,-3.591,-3.5817,-3.5817,-3.5817,-3.5817,-3.5817,-3.601,-3.6225,-3.6225,-3.6255,-3.6301,-3.6301,-3.6301,-3.6301,-3.6301,-3.6301,-3.6301,-3.6301,-3.6301,-3.6301,-3.6301,-3.6301,-3.6301,-3.6301,-3.6301,-3.6301,-3.6301,-3.6301,-3.6301,-3.6301,-3.6301,-3.6301,-3.6301,-3.6301,-3.6301,-3.6301,-3.6301,-3.6301,-3.6301,-3.5576,-3.4835,-3.4113,-3.3266,-3.2507,-3.18,-3.18,-3.18,-3.18,-3.18,-3.18,-3.2144,-3.3309,-3.4675,-3.6395,-3.7431,-3.823,-3.8885,-3.8611,-3.8131,-3.7878,-3.7136,-3.6426,-3.6109,0.0,0.0,0.0,0.0,0.0,0.0,0.0,0.0,0.0,0.0,0.0,0.0,0.0,0.0,0.0,0.0,0.0,-3.3402,-3.2949,-3.2679,-3.2679,-3.2222,-3.1985,-3.1985,-3.2459,-3.2679,-3.2699,-3.3169,-3.3406,-3.3406,-3.3406,-3.3406,-3.344,-3.4024,-3.4537,-3.5011,-3.548,-3.5728,-3.5795,-3.5756,-3.5773,-3.5795,-3.5689,-3.5667,-3.5689,-3.5773,-3.5839,-3.5883,-3.5883,-3.5839,-3.5795,-3.5689,-3.5728,-3.5795,-3.5795,-3.5927,-3.6101,-3.6182,-3.6208,-3.6251,-3.6251,-3.617,-3.6105,-3.6105,-3.6216,-3.628,-3.6233,-3.6276,-3.6301,-3.6301,-3.6301,-3.6301,-3.6301,-3.6301,-3.6301,-3.6301,-3.6301,-3.6301,-3.6301,-3.6301,-3.6301,-3.6301,-3.6301,-3.6301,-3.6301,-3.6301,-3.6301,-3.6301,-3.5576,-3.4835,-3.4113,-3.33,-3.2541,-3.18,-3.18,-3.18,-3.18,-3.18,-3.18,-3.0988,-3.2363,-3.4084,-3.5286,-3.5794,-3.6423,-3.8018,-3.7596,-3.6984,-3.7413,-3.6827,-3.6229,-3.6187,0.0,0.0,0.0,0.0,0.0,0.0,0.0,0.0,0.0,0.0,0.0,0.0,0.0,0.0,0.0,0.0,0.0,-3.2658,-3.2188,-3.1938,-3.1938,-3.1464,-3.119,-3.119,-3.1701,-3.1938,-3.1938,-3.2425,-3.2662,-3.2662,-3.2662,-3.2662,-3.2679,-3.2916,-3.3457,-3.4167,-3.4653,-3.5074,-3.5338,-3.5272,-3.5447,-3.5728,-3.5622,-3.56,-3.5622,-3.5689,-3.5728,-3.5728,-3.5728,-3.5728,-3.5728,-3.5622,-3.5667,-3.5728,-3.5728,-3.5822,-3.5954,-3.6036,-3.6101,-3.6122,-3.6122,-3.6062,-3.5997,-3.5932,-3.6084,-3.6191,-3.6144,-3.6208,-3.6276,-3.6276,-3.628,-3.6301,-3.6301,-3.6301,-3.6301,-3.6301,-3.6301,-3.6301,-3.6301,-3.6301,-3.6301,-3.6301,-3.6301,-3.6301,-3.6301,-3.6301,-3.6301,-3.6301,-3.5576,-3.4835,-3.4113,-3.33,-3.2541,-3.18,-3.18,-3.18,-3.18,-3.18,-3.18,0.0,0.0,0.0,-3.3991,-3.4279,-3.5115,-3.8252,-3.7171,-3.5859,-3.7145,-3.6788,-3.6228,-3.6208,0.0,0.0,0.0,0.0,0.0,0.0,0.0,0.0,0.0,0.0,0.0,0.0,0.0,0.0,0.0,0.0,-3.1445,-3.1205,-3.119,-3.119,-3.119,-3.119,-3.119,-3.119,-3.119,-3.119,-3.119,-3.119,-3.119,-3.119,-3.119,-3.119,-3.1241,-3.1955,-3.2662,-3.3339,-3.3389,-3.3829,-3.4455,-3.4489,-3.4945,-3.5566,-3.5583,-3.56,-3.56,-3.56,-3.56,-3.56,-3.56,-3.56,-3.56,-3.56,-3.56,-3.56,-3.56,-3.5689,-3.5795,-3.5761,-3.5871,-3.5963,-3.5963,-3.5963,-3.5937,-3.5817,-3.5905,-3.5997,-3.5997,-3.6101,-3.6204,-3.6204,-3.6255,-3.6301,-3.6301,-3.6301,-3.6301,-3.6301,-3.6301,-3.6301,-3.6301,-3.6301,-3.6301,-3.6301,-3.6301,-3.6301,-3.6301,-3.6284,-3.6266,-3.6266,-3.5525,-3.4783,-3.4079,-3.3283,-3.2524,-3.18,-3.18,-3.18,-3.18,-3.18,-3.18,-2.9372,0.0,0.0,0.0,0.0,0.0,0.0,-3.3562,-3.3561,-3.5039,-3.4998,-3.5025,-3.6069,0.0,0.0,0.0,0.0,0.0,0.0,0.0,0.0,0.0,0.0,0.0,0.0,0.0,0.0,0.0,-3.1084,-3.0561,-3.1168,-3.119,-3.119,-3.119,-3.119,-3.119,-3.119,-3.119,-3.119,-3.119,-3.119,-3.119,-3.119,-3.119,-3.119,-3.1207,-3.141,-3.1613,-3.1884,-3.2966,-3.3525,-3.3761,-3.4286,-3.4624,-3.4861,-3.5397,-3.56,-3.56,-3.56,-3.56,-3.56,-3.56,-3.56,-3.56,-3.56,-3.56,-3.56,-3.56,-3.5622,-3.5548,-3.5115,-3.5044,-3.5066,-3.5066,-3.4984,-3.5033,-3.5548,-3.5689,-3.5734,-3.5839,-3.5971,-3.6101,-3.6182,-3.6208,-3.6233,-3.6301,-3.6301,-3.628,-3.6229,-3.6276,-3.628,-3.6229,-3.6276,-3.6301,-3.6301,-3.6301,-3.6301,-3.6301,-3.5801,-3.549,-3.549,-3.4231,-3.3438,-3.3231,-3.249,-3.199,-3.18,-3.18,-3.18,-3.18,-3.18,-3.18,-3.0356,-3.0925,-3.1788,-3.1329,0.0,0.0,-3.2661,-3.2565,-3.2588,0.0,-3.4428,-3.4532,-3.5255,0.0,0.0,0.0,0.0,0.0,0.0,0.0,0.0,0.0,0.0,0.0,0.0,0.0,0.0,-3.1649,-3.0528,-3.0118,-3.0858,-3.1095,-3.119,-3.119,-3.119,-3.119,-3.119,-3.119,-3.119,-3.119,-3.119,-3.119,-3.119,-3.119,-3.119,-3.119,-3.119,-3.119,-3.1258,-3.2138,-3.2662,-3.2983,-3.3406,-3.3761,-3.4083,-3.4518,-3.4895,-3.5148,-3.5148,-3.5329,-3.5549,-3.525,-3.5148,-3.5076,-3.4771,-3.467,-3.467,-3.467,-3.467,-3.459,-3.4253,-3.4156,-3.424,-3.4546,-3.4571,-3.4692,-3.543,-3.56,-3.5622,-3.5689,-3.5822,-3.5949,-3.6014,-3.6079,-3.6144,-3.6233,-3.6212,-3.6191,-3.6204,-3.5933,-3.5727,-3.5706,-3.5456,-3.5449,-3.5818,-3.5835,-3.5835,-3.5835,-3.5439,-3.5059,-3.4749,-3.3559,-3.2904,-3.2904,-3.2179,-3.18,-3.18,-3.18,-3.1744,-3.1579,-3.1727,-3.1653,-3.177,-3.2192,-3.2803,-3.2528,0.0,0.0,-3.3397,-3.2842,-3.2328,0.0,-3.4162,-3.4087,-3.3977,0.0,0.0,0.0,0.0,0.0,0.0,0.0,0.0,0.0,0.0,0.0,0.0,-3.0498,-3.0751,-3.0705,-3.0253,-3.014,-3.0559,-3.0958,-3.119,-3.119,-3.119,-3.119,-3.119,-3.119,-3.119,-3.119,-3.119,-3.119,-3.119,-3.119,-3.119,-3.119,-3.119,-3.119,-3.119,-3.119,-3.1599,-3.2192,-3.2276,-3.2699,-3.3288,-3.3372,-3.3812,-3.437,-3.437,-3.481,-3.5245,-3.459,-3.437,-3.4252,-3.3609,-3.3406,-3.3406,-3.3406,-3.3406,-3.3389,-3.3305,-3.3288,-3.344,-3.41,-3.4252,-3.4455,-3.5194,-3.5363,-3.5363,-3.5363,-3.5587,-3.5773,-3.5795,-3.5905,-3.6019,-3.6144,-3.6079,-3.6023,-3.6041,-3.5377,-3.4873,-3.4854,-3.4274,-3.4194,-3.4967,-3.5056,-3.5056,-3.5056,-3.499,-3.4645,-3.399,-3.3197,-3.2783,-3.2783,-3.2127,-3.1781,-3.1727,-3.1781,-3.1634,-3.1315,-3.1615,-3.1408,-3.2748,-3.3426,-3.4069,0.0,0.0,0.0,-3.0533,-3.0672,-3.1251,0.0,-3.1367,-3.1574,-3.2767,0.0,0.0,0.0,0.0,0.0,0.0,0.0,0.0,0.0,0.0,0.0,0.0,-3.1062,-3.0937,-3.1877,-3.1315,-3.0975,-3.1055,-3.1151,-3.119,-3.119,-3.119,-3.119,-3.119,-3.119,-3.119,-3.119,-3.119,-3.119,-3.119,-3.119,-3.119,-3.119,-3.119,-3.119,-3.119,-3.119,-3.1275,-3.1461,-3.2073,-3.2395,-3.2598,-3.3186,-3.3491,-3.3609,-3.3609,-3.3711,-3.3812,-3.366,-3.3609,-3.3592,-3.344,-3.3406,-3.3406,-3.3406,-3.3406,-3.3271,-3.2682,-3.2513,-3.2564,-3.2699,-3.2733,-3.2936,-3.3677,-3.3846,-3.3846,-3.3846,-3.481,-3.5667,-3.5773,-3.5817,-3.5883,-3.6019,-3.6019,-3.577,-3.507,-3.4946,-3.4643,-3.3945,-3.3857,-3.3901,-3.4059,-3.4103,-3.4123,-3.4076,-3.3616,-3.3261,-3.3063,-3.2383,-3.2007,-3.2007,-3.1869,-3.1671,-3.1408,-3.1671,-3.1634,-3.1295,-3.1372,-3.1179,0.0,0.0,0.0,-3.2908,0.0,0.0,0.0,-3.0698,-3.0758,-3.1333,-3.1016,-3.0965,-3.1981,0.0,0.0,0.0,0.0,0.0,0.0,0.0,0.0,0.0,0.0,0.0,0.0,-3.1197,-3.0907,-3.1049,-3.0937,-3.0757,-3.0514,-3.072,-3.0975,-3.119,-3.119,-3.119,-3.119,-3.119,-3.119,-3.119,-3.119,-3.119,-3.119,-3.119,-3.119,-3.119,-3.119,-3.119,-3.119,-3.119,-3.119,-3.1241,-3.1616,-3.1752,-3.1802,-3.2171,-3.2544,-3.2848,-3.2848,-3.3085,-3.3339,-3.2966,-3.2848,-3.278,-3.2408,-3.2307,-3.2307,-3.2307,-3.2307,-3.2222,-3.1853,-3.1752,-3.1853,-3.2209,-3.2293,-3.2513,-3.3237,-3.3406,-3.3406,-3.3406,-3.4015,-3.4523,-3.4588,-3.4609,-3.4652,-3.478,-3.4738,-3.458,-3.4185,-3.3832,-3.3458,-3.3097,-3.275,-3.2721,-3.3157,-3.3231,-3.3251,-3.3191,-3.2914,-3.2576,-3.2175,-3.1859,-3.1653,-3.1542,-3.1542,-3.1389,-3.1044,-3.1218,-3.1123,-3.0804,-3.0965,-3.0744,0.0,0.0,0.0,0.0,0.0,-3.2265,0.0,0.0,0.0,-3.1347,-3.0984,0.0,0.0,0.0,0.0,0.0,0.0,0.0,0.0,0.0,0.0,0.0,0.0,0.0,0.0,-3.1072,-3.0704,-2.9989,-3.0157,-3.0182,-2.9946,-3.0293,-3.072,-3.119,-3.119,-3.119,-3.119,-3.119,-3.119,-3.119,-3.119,-3.119,-3.119,-3.119,-3.119,-3.119,-3.119,-3.119,-3.119,-3.119,-3.119,-3.119,-3.119,-3.119,-3.119,-3.119,-3.1562,-3.209,-3.209,-3.2476,-3.2882,-3.2293,-3.209,-3.1989,-3.1376,-3.119,-3.119,-3.119,-3.119,-3.119,-3.119,-3.119,-3.1343,-3.1955,-3.209,-3.2259,-3.2848,-3.2983,-3.2983,-3.2983,-3.2983,-3.3068,-3.3355,-3.3406,-3.3427,-3.3549,-3.3486,-3.3376,-3.3345,-3.2744,-3.228,-3.2258,-3.1684,-3.1567,-3.2258,-3.2329,-3.2349,-3.2346,-3.2366,-3.2073,-3.1363,-3.1315,-3.124,-3.1067,-3.1083,-3.0908,-3.0563,-3.0625,-3.0539,-3.0293,-3.0543,-3.023,0.0,0.0,0.0,0.0,-3.478,0.0,0.0,0.0,-3.0907,-2.963,0.0,0.0,0.0,0.0,0.0,0.0,0.0,0.0,0.0,0.0,0.0,0.0,0.0,0.0,0.0,0.0,-3.0286,-3.0406,-2.986,-2.9794,-3.0402,-3.0477,-3.072,-3.119,-3.119,-3.119,-3.119,-3.119,-3.119,-3.119,-3.119,-3.119,-3.119,-3.119,-3.119,-3.119,-3.119,-3.119,-3.119,-3.119,-3.119,-3.119,-3.119,-3.119,-3.119,-3.119,-3.1241,-3.1309,-3.1309,-3.1376,-3.1427,-3.1343,-3.1309,-3.1309,-3.1224,-3.119,-3.119,-3.119,-3.119,-3.119,-3.119,-3.119,-3.1207,-3.1309,-3.1309,-3.1343,-3.1427,-3.1444,-3.1444,-3.1444,-3.1444,-3.1867,-3.3186,-3.3406,-3.3406,-3.3427,-3.3406,-3.3169,-3.2534,-3.2361,-3.2056,-3.1413,-3.1261,-3.1244,-3.1348,-3.1409,-3.1412,-3.1348,-3.1521,-3.1356,-3.0744,-3.0427,-3.026,-3.0222,-3.0239,-3.0069,-2.9739,-2.9973,-3.0161,-3.0309,-3.0161,-2.9875,0.0,0.0,0.0,0.0,0.0,0.0,-3.098,0.0,-2.9941,0.0,0.0,0.0,0.0,0.0,0.0,0.0,0.0,0.0,0.0,0.0,0.0,0.0,0.0,0.0,0.0,0.0,0.0,0.0,0.0,-2.9731,-3.0464,-3.0497,-3.072,-3.119,-3.119,-3.119,-3.119,-3.119,-3.119,-3.119,-3.119,-3.119,-3.119,-3.119,-3.119,-3.119,-3.119,-3.119,-3.119,-3.119,-3.119,-3.119,-3.119,-3.119,-3.119,-3.119,-3.119,-3.119,-3.119,-3.119,-3.119,-3.119,-3.119,-3.119,-3.119,-3.119,-3.119,-3.119,-3.119,-3.119,-3.119,-3.119,-3.119,-3.119,-3.119,-3.119,-3.119,-3.119,-3.119,-3.119,-3.119,-3.1393,-3.2019,-3.2121,-3.2121,-3.2121,-3.2121,-3.2002,-3.1698,-3.1667,-3.1529,-3.1224,-3.119,-3.119,-3.119,-3.0978,-3.0825,-3.0801,-3.0617,-3.0435,-3.0197,-3.0053,-2.994,-2.981,-2.981,-2.9651,-2.9319,-2.9409,-2.9522,-2.9611,-2.9677,-2.9477,-3.7331,0.0,0.0,0.0,0.0,0.0,0.0,0.0,0.0,0.0,0.0,0.0,0.0,0.0,0.0,0.0,0.0,0.0,0.0,0.0,0.0,0.0,0.0,0.0,0.0,0.0,0.0,0.0,0.0,0.0,-3.0448,-3.0497,-3.072,-3.119,-3.1092,-3.1055,-3.119,-3.1075,-3.1075,-3.119,-3.119,-3.119,-3.119,-3.119,-3.119,-3.119,-3.119,-3.119,-3.119,-3.119,-3.119,-3.119,-3.119,-3.119,-3.119,-3.119,-3.119,-3.119,-3.119,-3.119,-3.119,-3.119,-3.119,-3.119,-3.119,-3.119,-3.119,-3.119,-3.119,-3.119,-3.119,-3.119,-3.119,-3.119,-3.119,-3.119,-3.119,-3.119,-3.119,-3.119,-3.119,-3.119,-3.119,-3.119,-3.119,-3.119,-3.119,-3.1151,-3.1015,-3.1015,-3.0975,-3.0818,-3.0834,-3.0834,-3.0834,-3.0497,-3.0309,-3.0309,-2.9881,-2.9623,-2.9679,-2.9546,-2.9429,-2.9264,-2.9264,-2.9159,-2.8905,-2.8959,-2.8959,-2.8912,-2.9152,-2.9082,0.0,0.0,0.0,-3.4633,0.0,0.0,0.0,0.0,-3.1121,0.0,0.0,0.0,0.0,0.0,0.0,-3.032,0.0,0.0,0.0,0.0,0.0,0.0,0.0,0.0,0.0,0.0,0.0,0.0,0.0,0.0,-3.0415,-3.0497,-3.072,-3.119,-3.076,-3.074,-3.119,-3.074,-3.074,-3.119,-3.119,-3.119,-3.119,-3.119,-3.119,-3.119,-3.119,-3.119,-3.119,-3.119,-3.119,-3.119,-3.119,-3.119,-3.119,-3.119,-3.119,-3.119,-3.119,-3.119,-3.119,-3.119,-3.119,-3.119,-3.119,-3.119,-3.119,-3.119,-3.119,-3.119,-3.119,-3.119,-3.119,-3.119,-3.119,-3.119,-3.119,-3.119,-3.119,-3.119,-3.119,-3.119,-3.119,-3.119,-3.119,-3.119,-3.119,-3.1035,-3.058,-3.0518,-3.0351,-2.9881,-2.9837,-2.9837,-2.9837,-2.9815,-2.9815,-2.9815,-2.9371,-2.912,-2.912,-2.87,-2.8444,-2.8444,-2.8444,-2.842,-2.842,-2.8605,-2.8605,-2.8436,-2.8629,-2.8708,0.0,0.0,-3.8193,-3.5991,0.0,0.0,0.0,0.0,0.0,0.0,0.0,0.0,0.0,0.0,0.0,-3.0338,0.0,0.0,0.0,0.0,0.0,0.0,0.0,0.0,0.0,0.0,0.0,0.0,0.0,0.0,0.0,-3.0958,-3.0898,-3.074,-3.0878,-3.0898,-3.074,-3.0878,-3.1035,-3.119,-3.119,-3.119,-3.119,-3.119,-3.119,-3.119,-3.119,-3.119,-3.119,-3.119,-3.119,-3.119,-3.119,-3.119,-3.119,-3.119,-3.119,-3.119,-3.119,-3.119,-3.119,-3.119,-3.119,-3.119,-3.119,-3.119,-3.119,-3.119,-3.119,-3.119,-3.119,-3.119,-3.119,-3.119,-3.119,-3.1114,-3.0801,-3.074,-3.0638,-3.033,-3.0284,-3.0284,-3.0284,-3.0284,-3.0472,-3.1112,-3.119,-3.1035,-3.0559,-3.0497,-3.033,-2.9837,-2.9793,-2.9793,-2.9793,-2.9506,-2.9205,-2.8889,-2.8724,-2.8645,-2.8645,-2.8493,-2.8411,-2.8411,-2.8411,-2.8411,-2.8411,-2.8468,-2.8468,-2.8411,-2.8468,-2.8501,-3.8643,-3.8658,0.0,-3.6641,-3.5463,0.0,-3.2265,0.0,0.0,0.0,0.0,0.0,0.0,0.0,0.0,-3.1146,-3.0577,0.0,0.0,-2.8378,0.0,0.0,0.0,0.0,0.0,0.0,-2.7655,-2.9159,0.0,0.0,0.0,0.0,-3.1055,-3.076,-3.0878,-3.0878,-3.074,-3.0736,-3.0875,-3.119,-3.1035,-3.1035,-3.119,-3.119,-3.119,-3.119,-3.119,-3.119,-3.119,-3.119,-3.119,-3.119,-3.119,-3.119,-3.119,-3.119,-3.119,-3.119,-3.119,-3.119,-3.119,-3.119,-3.119,-3.119,-3.119,-3.119,-3.119,-3.119,-3.119,-3.1171,-3.0978,-3.1075,-3.1112,-3.0777,-3.0818,-3.0818,-3.0351,-3.0246,-3.0161,-2.9859,-2.9793,-2.9793,-2.9793,-2.9793,-3.0027,-3.0597,-3.0695,-3.0535,-3.0059,-2.9995,-2.9821,-2.9341,-2.9296,-2.9296,-2.9296,-2.902,-2.8724,-2.842,-2.8411,-2.8411,-2.8411,-2.8411,-2.8411,-2.8411,-2.8411,-2.8411,-2.8411,-2.8411,-2.8288,-2.8042,-2.8042,-2.7919]},{"header":{"parameterUnit":"m.s-1","parameterCategory":1,"la1":30.6,"la2":29.2853,"lo1":-89.7004,"lo2":-87.6739,"dy":0.0162,"dx":0.0183,"nx":112,"ny":82,"refTime":"2025-04-24T06:00:00:Z","depth":0,"parameterNumber":3,"parameterNumberName":"V-component_of_WINDS"},"data":[0.0,0.0,0.0,0.0,0.0,0.0,0.0,0.0,0.0,0.0,0.0,0.0,0.0,0.0,0.0,0.0,0.0,0.0,0.0,0.0,0.0,0.0,0.0,0.0,0.0,0.0,0.0,0.0,0.0,0.0,0.0,0.0,0.0,0.0,0.0,0.0,0.0,0.0,0.0,0.0,0.0,0.0,0.0,0.0,0.0,0.0,0.0,0.0,0.0,0.0,0.0,0.0,0.0,0.0,0.0,0.0,0.0,0.0,0.0,0.0,0.0,0.0,0.0,0.0,0.0,0.0,0.0,0.0,0.0,0.0,0.0,0.0,0.0,0.0,0.0,0.0,0.0,0.0,0.0,0.0,0.0,0.0,0.0,0.0,0.0,0.0,0.0,0.0,0.0,0.0,-0.0761,-0.131,-0.164,-0.1795,-0.1795,-0.3675,-0.4594,-0.4012,0.0,0.0,0.0,0.0,0.0,0.0,0.0,0.0,0.0,0.0,0.0,0.0,0.0,0.0,0.0,0.0,0.0,0.0,0.0,0.0,0.0,0.0,0.0,0.0,0.0,0.0,0.0,0.0,0.0,0.0,0.0,0.0,0.0,0.0,0.0,0.0,0.0,0.0,0.0,0.0,0.0,0.0,0.0,0.0,0.0,0.0,0.0,0.0,0.0,0.0,0.0,0.0,0.0,0.0,0.0,0.0,0.0,0.0,0.0,0.0,0.0,0.0,0.0,0.0,0.0,0.0,0.0,0.0,0.0,0.0,0.0,0.0,0.0,0.0,0.0,0.0,0.0,0.0,0.0,0.0,0.0,0.0,0.0,0.0,0.0,0.0,0.0,0.0,0.0,0.0,0.0,0.0,0.0,0.0,0.0,0.0,0.0,0.0,0.0,0.0,0.0,0.0,0.0,0.0,-0.145,-0.1703,-0.1787,-0.1795,-0.1795,-0.29,-0.3712,-0.4005,0.0,0.0,0.0,0.0,0.0,0.0,0.0,0.0,0.0,0.0,0.0,0.0,0.0,0.0,0.0,0.0,0.0,0.0,0.0,0.0,0.0,0.0,0.0,0.0,0.0,0.0,0.0,0.0,0.0,0.0,0.0,0.0,0.0,0.0,0.0,0.0,0.0,0.0,0.0,0.0,0.0,0.0,0.0,0.0,0.0,0.0,0.0,0.0,0.0,0.0,0.0,0.0,0.0,0.0,0.0,0.0,0.0,0.0,0.0,0.0,0.0,0.0,0.0,0.0,0.0,0.0,0.0,0.0,0.0,0.0,0.0,0.0,0.0,0.0,0.0,0.0,0.0,0.0,0.0,0.0,0.0,0.0,0.0,0.0,0.0,0.0,0.0,0.0,0.0,0.0,0.0,0.0,0.0,0.0,0.0,0.0,0.0,0.0,0.0,0.0,0.0,0.0,0.0,-0.1268,-0.1479,-0.1779,-0.1795,-0.1795,-0.1795,-0.2726,-0.3488,-0.3956,-0.5473,0.0,0.0,0.0,0.0,0.0,0.0,0.0,0.0,0.0,0.0,0.0,0.0,0.0,0.0,0.0,0.0,0.0,0.0,0.0,0.0,0.0,0.0,0.0,0.0,0.0,0.0,0.0,0.0,0.0,0.0,0.0,0.0,0.0,0.0,0.0,0.0,0.0,0.0,0.0,0.0,0.0,0.0,0.0,0.0,0.0,0.0,0.0,0.0,0.0,0.0,0.0,0.0,0.0,0.0,0.0,0.0,0.0,0.0,0.0,0.0,0.0,0.0,0.0,0.0,0.0,0.0,0.0,0.0,0.0,0.0,0.0,0.0,0.0,0.0,0.0,0.0,0.0,0.0,0.0,0.0,0.0,0.0,0.0,0.0,0.0,0.0,0.0,0.0,0.0,0.0,0.0,0.0,0.0,0.0,0.0,0.0,0.0,0.0,0.0,0.0,0.0,0.0,-0.123,-0.137,-0.1785,-0.1795,-0.1795,-0.1795,-0.2493,-0.3206,-0.3954,-0.4707,0.0,0.0,0.0,0.0,0.0,0.0,0.0,0.0,0.0,0.0,0.0,0.0,0.0,0.0,0.0,0.0,0.0,0.0,0.0,0.0,0.0,0.0,0.0,0.0,0.0,0.0,0.0,0.0,0.0,0.0,0.0,0.0,0.0,0.0,0.0,0.0,0.0,0.0,0.0,0.0,0.0,0.0,0.0,0.0,0.0,0.0,0.0,0.0,0.0,0.0,0.0,0.0,0.0,0.0,0.0,0.0,0.0,0.0,0.0,0.0,0.0,0.0,0.0,0.0,0.0,0.0,0.0,0.0,0.0,0.0,0.0,0.0,0.0,0.0,0.0,0.0,0.0,0.0,0.0,0.0,0.0,0.0,0.0,0.0,0.0,0.0,0.0,0.0,0.0,0.0,0.0,0.0,0.0,0.0,0.0,0.0,0.0,0.0,0.0,0.0,0.0,0.0,-0.1345,-0.1425,-0.1791,-0.1795,-0.1795,-0.1795,-0.1765,-0.239,-0.3899,-0.3931,0.0,0.0,0.0,0.0,0.0,0.0,0.0,0.0,0.0,0.0,0.0,0.0,0.0,0.0,0.0,0.0,0.0,0.0,0.0,0.0,0.0,0.0,0.0,0.0,0.0,0.0,0.0,0.0,0.0,0.0,0.0,0.0,0.0,0.0,0.0,0.0,0.0,0.0,0.0,0.0,0.0,0.0,0.0,0.0,0.0,0.0,0.0,0.0,0.0,0.0,0.0,0.0,0.0,0.0,0.0,0.0,0.0,0.0,0.0,0.0,0.0,0.0,0.0,0.0,0.0,0.0,0.0,0.0,0.0,0.0,0.0,0.0,0.0,0.0,0.0,0.0,0.0,0.0,0.0,0.0,0.0,0.0,0.0,0.0,0.0,0.0,0.0,0.0,0.0,0.0,0.0,0.0,0.0,0.0,0.0,0.0,0.0,0.0,0.0,0.0,0.0,0.0,-0.1343,-0.1364,0.0,-0.1795,-0.1787,-0.1823,-0.1664,-0.2304,-0.3885,0.0,0.0,0.0,0.0,0.0,0.0,0.0,0.0,0.0,0.0,0.0,0.0,0.0,0.0,0.0,0.0,0.0,0.0,0.0,0.0,0.0,0.0,0.0,0.0,0.0,0.0,0.0,0.0,0.0,0.0,0.0,0.0,0.0,0.0,0.0,0.0,0.0,0.0,0.0,0.0,0.0,0.0,0.0,0.0,0.0,0.0,0.0,0.0,0.0,0.0,0.0,0.0,0.0,0.0,0.0,0.0,0.0,0.0,0.0,0.0,0.0,0.0,0.0,0.0,0.0,0.0,0.0,0.0,0.0,0.0,0.0,0.0,0.0,0.0,0.0,0.0,0.0,0.0,0.0,0.0,0.0,0.0,0.0,0.0,0.0,0.0,0.0,0.0,0.0,0.0,0.0,0.0,0.0,0.0,0.0,0.0,0.0,0.0,0.0,0.0,0.0,0.0,-0.1415,-0.1331,-0.1401,0.0,-0.1787,-0.1768,-0.1792,-0.1636,-0.2114,-0.3453,0.0,0.0,0.0,0.0,0.0,0.0,0.0,0.0,0.0,0.0,0.0,0.0,0.0,0.0,0.0,0.0,0.0,0.0,0.0,0.0,0.0,0.0,0.0,0.0,0.0,0.0,0.0,0.0,0.0,0.0,0.0,0.0,0.0,0.0,0.0,0.0,0.0,0.0,0.0,0.0,0.0,0.0,0.0,0.0,0.0,0.0,0.0,0.0,0.0,0.0,0.0,0.0,0.0,0.0,0.0,0.0,0.0,0.0,0.0,0.0,0.0,0.0,0.0,0.0,0.0,0.0,0.0,0.0,0.0,0.0,0.0,0.0,0.0,0.0,0.0,0.0,0.0,0.0,0.0,0.0,0.0,0.0,0.0,0.0,0.0,0.0,0.0,0.0,0.0,0.0,0.0,0.0,0.0,0.0,0.0,0.0,0.0,0.0,0.0,0.0,0.0,0.0,-0.1466,-0.1376,-0.1404,-0.1787,-0.1822,-0.1791,-0.1706,-0.1567,-0.1818,0.0,0.0,0.0,0.0,0.0,0.0,0.0,0.0,0.0,0.0,0.0,0.0,0.0,0.0,0.0,0.0,0.0,0.0,0.0,0.0,0.0,0.0,0.0,0.0,0.0,0.0,0.0,0.0,0.0,0.0,0.0,0.0,0.0,0.0,0.0,0.0,0.0,0.0,0.0,0.0,0.0,0.0,0.0,0.0,0.0,0.0,0.0,0.0,0.0,0.0,0.0,0.0,0.0,0.0,0.0,0.0,0.0,0.0,0.0,0.0,0.0,0.0,0.0,0.0,0.0,0.0,0.0,0.0,0.0,0.0,0.0,0.0,0.0,0.0,0.0,0.0,0.0,0.0,0.0,0.0,0.0,0.0,0.0,0.0,0.0,0.0,0.0,0.0,0.0,0.0,0.0,0.0,0.0,0.0,0.0,0.0,0.0,0.0,0.0,0.0,0.0,0.0,0.0,-0.136,-0.1307,-0.1334,-0.1669,-0.1723,-0.1706,-0.1677,-0.1575,-0.18,-0.2569,0.0,0.0,0.0,0.0,0.0,0.0,0.0,0.0,0.0,0.0,0.0,0.0,0.0,0.0,0.0,0.0,0.0,0.0,0.0,0.0,0.0,0.0,0.0,0.0,0.0,0.0,0.0,0.0,0.0,0.0,0.0,0.0,0.0,0.0,0.0,0.0,0.0,0.0,0.0,0.0,0.0,0.0,0.0,0.0,0.0,0.0,0.0,0.0,0.0,0.0,0.0,0.0,0.0,0.0,0.0,0.0,0.0,0.0,0.0,0.0,0.0,0.0,0.0,0.0,0.0,0.0,0.0,0.0,0.0,0.0,0.0,0.0,0.0,0.0,0.0,0.0,0.0,0.0,0.0,0.0,0.0,0.0,0.0,0.0,0.0,0.0,0.0,0.0,0.0,0.0,0.0,0.0,0.0,0.0,0.0,0.0,0.0,0.0,0.0,0.0,0.0,0.0,-0.1335,-0.1287,-0.1315,-0.1643,-0.1694,-0.1675,-0.1647,-0.1549,-0.1632,-0.2039,0.0,0.0,0.0,0.0,0.0,0.0,0.0,0.0,0.0,0.0,0.0,0.0,0.0,0.0,0.0,0.0,0.0,0.0,0.0,0.0,0.0,0.0,0.0,0.0,0.0,0.0,0.0,0.0,0.0,0.0,0.0,0.0,0.0,0.0,0.0,0.0,0.0,0.0,0.0,0.0,0.0,0.0,0.0,0.0,0.0,0.0,0.0,0.0,0.0,0.0,0.0,0.0,0.0,0.0,0.0,0.0,0.0,0.0,0.0,0.0,0.0,0.0,0.0,0.0,0.0,0.0,0.0,0.0,0.0,0.0,0.0,0.0,0.0,0.0,0.0,0.0,0.0,0.0,0.0,0.0,0.0,0.0,0.0,0.0,0.0,0.0,0.0,0.0,0.0,0.0,0.0,0.0,0.0,0.0,0.0,0.0,0.0,0.0,0.0,0.0,0.0,0.0,-0.1327,-0.1244,-0.1271,-0.1636,-0.1673,-0.1647,-0.162,-0.1461,-0.1403,-0.1316,0.0,0.0,0.0,0.0,0.0,0.0,0.0,0.0,0.0,0.0,0.0,0.0,0.0,0.0,0.0,0.0,0.0,0.0,0.0,0.0,0.0,0.0,0.0,0.0,0.0,0.0,0.0,0.0,0.0,0.0,0.0,0.0,0.0,0.0,0.0,0.0,0.0,0.0,0.0,0.0,0.0,0.0,0.0,0.0,0.0,0.0,0.0,0.0,0.0,0.0,0.0,0.0,0.0,0.0,0.0,0.0,0.0,0.0,0.0,0.0,0.7244,0.0,0.0,0.0,0.0,0.0,0.0,0.0,0.0,0.0,0.0,0.0,0.0,0.0,0.0,0.0,0.0,0.0,0.0,0.0,0.0,0.0,0.0,0.0,0.0,0.0,0.0,0.0,0.0,0.0,0.0,0.0,0.0,0.0,0.0,0.0,0.0,0.0,0.0,0.0,0.0,0.0,-0.0974,-0.0952,-0.1012,-0.1271,-0.1324,-0.137,-0.1567,-0.1527,-0.1442,-0.1376,-0.165,0.0,0.0,0.0,0.0,0.0,0.0,0.0,0.0,0.0,0.0,0.0,0.0,0.0,0.0,0.0,0.0,0.0,0.0,0.0,0.0,0.0,0.0,0.0,0.0,0.0,0.0,0.0,0.0,0.0,0.0,0.0,0.0,0.0,0.0,0.0,0.0,0.0,0.0,0.0,0.0,0.0,0.0,0.0,0.0,0.0,0.0,0.0,0.0,0.0,0.0,0.0,0.0,0.0,0.0,0.0,0.0,0.0,0.0,0.0,0.0,0.7057,0.0,0.0,0.0,0.0,0.0,0.0,0.0,0.0,0.0,0.0,0.0,0.0,0.0,0.0,0.0,0.0,0.0,0.0,0.0,0.0,0.0,0.0,0.0,0.0,0.0,0.0,0.0,0.0,0.0,0.0,0.0,0.0,0.0,0.0,0.0,0.0,0.0,0.0,0.0,0.0,-0.0879,-0.0725,-0.0723,-0.0994,-0.1005,-0.1053,-0.1182,-0.1137,-0.1091,-0.1047,-0.1184,0.0,0.0,0.0,0.0,0.0,0.0,0.0,0.0,0.0,0.0,0.0,0.0,0.0,0.0,0.0,0.0,0.0,0.0,0.0,0.0,0.0,0.0,0.0,0.0,0.0,0.0,0.0,0.0,0.0,0.0,0.0,0.0,0.0,0.0,0.0,0.0,0.0,0.0,0.0,0.0,0.0,0.0,0.0,0.0,0.0,0.0,0.0,0.0,0.0,0.0,0.0,0.0,0.0,0.812,0.8147,0.8147,0.8147,0.8147,0.8137,0.8035,0.7542,0.6804,0.0,0.0,0.0,0.0,0.0,0.0,0.0,0.0,0.0,0.0,0.0,0.0,0.0,0.0,0.0,0.0,0.0,0.0,0.0,0.0,0.0,0.0,0.0,0.0,0.0,0.3235,0.2716,0.0,0.0,0.0,0.0,0.0,0.0,0.0,0.0,0.0,0.0,0.0,0.0,-0.0759,-0.0505,-0.0437,-0.0687,-0.0745,-0.0741,-0.0813,-0.0746,-0.0725,-0.0698,-0.0554,-0.0478,0.0,0.0,0.0,0.0,0.0,0.0,0.0,0.0,0.0,0.0,0.0,0.0,0.0,0.0,0.0,0.0,0.0,0.0,0.0,0.0,0.0,0.0,0.0,0.0,0.0,0.0,0.0,0.0,0.0,0.0,0.0,0.0,1.4412,1.4317,0.0,0.0,0.0,0.0,0.0,0.0,0.0,0.0,0.0,0.0,0.0,0.0,0.0,0.7968,0.7988,0.8296,0.8425,0.8428,0.8693,0.8767,0.8767,0.8767,0.8767,0.8757,0.8659,0.0,0.7832,0.7727,0.0,0.0,0.0,0.0,0.0,0.0,0.0,0.0,0.0,0.0,0.0,0.0,0.0,0.0,0.0,0.0,0.0,0.0,0.0,0.0,0.0,0.0,0.5269,0.4469,0.4405,0.4158,0.0,0.1945,0.0987,0.0154,0.0,0.0,0.0,0.0,0.0,0.0,0.0,0.0,-0.0386,-0.0178,-0.0139,-0.0439,-0.0436,-0.0527,-0.0763,-0.0783,-0.0758,-0.0697,-0.0538,-0.0476,-0.0581,-0.0398,0.0,0.0,0.0,0.0,0.0,0.0,0.0,0.0,0.0,0.0,0.0,0.0,0.0,0.0,0.0,0.0,0.0,0.0,0.0,0.0,0.0,0.0,0.0,0.0,0.0,0.0,0.0,0.0,0.0,1.5513,1.5056,1.5026,1.3784,1.2536,0.0,0.0,0.0,0.0,0.0,0.0,0.0,0.0,0.0,0.8739,0.8593,0.8526,0.849,0.8672,0.8737,0.874,0.8821,0.8885,0.8885,0.8885,0.8885,0.8878,0.8814,0.8672,0.8474,0.8272,0.7885,0.7469,0.0,0.0,0.0,0.0,0.0,0.4336,0.4598,0.4662,0.0,0.0,0.0,0.0,0.0,0.0,0.0,0.0,0.0,0.0,0.0,0.0,0.0,0.5457,0.5499,0.5211,0.4235,0.3616,0.2779,0.0,0.0402,0.0,0.0,0.0,0.0,0.0,0.0,-0.0161,-0.0297,-0.0133,-0.0046,-0.0142,-0.019,-0.0236,-0.0324,-0.0367,-0.036,-0.0305,-0.0209,-0.0203,-0.0241,-0.0265,-0.0327,0.0,0.0,0.0,0.0,0.0,0.0,0.0,0.0,0.0,0.0,0.0,0.0,0.0,0.0,0.0,0.0,0.0,0.0,0.0,0.0,0.0,0.0,0.0,0.0,0.0,0.0,0.0,0.0,1.61,1.584,1.5819,1.5153,1.4252,0.0,0.0,0.0,0.0,0.0,0.0,0.9621,0.9255,0.9039,0.9118,0.8966,0.8921,0.8881,0.8885,0.8885,0.8885,0.8885,0.8885,0.8885,0.8885,0.8885,0.8885,0.8885,0.8885,0.8854,0.8537,0.8421,0.8459,0.8037,0.7359,0.6552,0.6442,0.5932,0.5395,0.6083,0.6142,0.594,0.5838,0.0,0.4892,0.3924,0.0,0.0,0.0,0.0,0.3851,0.4918,0.0,0.5325,0.6122,0.6241,0.6005,0.5305,0.4914,0.4179,0.0,0.1329,0.0704,0.0461,0.0,0.0,0.0,0.0,-0.0041,-0.0213,-0.0089,0.0,0.0,0.0,0.0,0.0,0.0,0.0,0.0,0.0,0.0,0.0,-0.0156,-0.0226,-0.0219,0.0,0.0,0.0,0.0,0.0,0.0,0.0,0.0,0.0,0.0,0.0,0.0,0.0,0.0,0.0,0.0,0.0,0.0,0.0,0.0,0.0,0.0,0.0,0.0,0.0,0.0,0.0,0.0,0.0,1.7456,1.6546,0.0,0.0,0.0,0.0,1.3007,1.1897,1.1323,1.1631,1.0213,0.9501,0.9735,0.9189,0.8923,0.8885,0.8885,0.8885,0.8885,0.8885,0.8885,0.8885,0.8885,0.8885,0.8885,0.8885,0.8885,0.8871,0.8757,0.8608,0.8479,0.8465,0.8322,0.8197,0.8153,0.8233,0.818,0.7635,0.7568,0.763,0.6877,0.6365,0.5876,0.4971,0.4606,0.0,0.0,0.474,0.4973,0.6059,0.6315,0.6313,0.6376,0.6373,0.6371,0.6326,0.552,0.4462,0.0,0.2978,0.2579,0.1677,0.0,0.101,0.0121,0.0,0.0,0.0,0.0,0.0,0.0,0.0,0.0,0.0,0.0,0.0,0.0,0.0,0.0,0.0,0.0,-0.0115,-0.0292,-0.0248,0.0,0.0,0.0,0.0,0.0,0.0,0.0,0.0,0.0,0.0,0.0,0.0,0.0,0.0,0.0,0.0,0.0,0.0,0.0,0.0,0.0,0.0,0.0,0.0,0.0,0.0,0.0,0.0,1.7869,1.7882,0.0,1.6435,1.5831,1.517,1.4391,1.3918,1.3357,1.265,1.1988,1.1129,1.0021,0.965,0.9268,0.8885,0.8885,0.8885,0.8885,0.8885,0.8885,0.8885,0.8885,0.8885,0.8885,0.8885,0.8885,0.8878,0.8824,0.8825,0.8774,0.8774,0.8686,0.854,0.8442,0.8438,0.8445,0.8147,0.7971,0.7817,0.7226,0.6793,0.651,0.6167,0.5909,0.5714,0.5794,0.5816,0.5935,0.6313,0.6387,0.6387,0.6387,0.6387,0.6368,0.6344,0.6033,0.5645,0.5161,0.393,0.2891,0.2498,0.2377,0.227,0.1912,0.1886,0.1641,0.0965,0.089,0.0672,0.0045,0.0,0.0,0.0,0.0,0.0,0.0,0.0,0.0,0.0,0.0,-0.0037,-0.0112,-0.0071,-0.0134,0.0,0.0,0.0,0.0,0.0,0.0,0.0,0.0,0.0,0.0,0.0,0.0,0.0,0.0,0.0,0.0,0.0,0.0,0.0,0.0,0.0,0.0,0.0,0.0,0.0,0.0,1.8015,1.8183,1.8575,1.8459,1.7434,1.7353,1.7067,1.626,1.5805,1.521,1.423,1.3633,1.2687,1.1347,1.063,1.0029,0.9644,0.9154,0.8885,0.8885,0.8885,0.8885,0.8885,0.8885,0.8885,0.8885,0.8885,0.8885,0.8885,0.8885,0.8885,0.8885,0.8885,0.879,0.8699,0.8598,0.8526,0.8462,0.8371,0.8082,0.7766,0.7419,0.7141,0.6942,0.6842,0.6692,0.6539,0.6437,0.6387,0.6387,0.6387,0.6387,0.6376,0.6388,0.638,0.6347,0.6233,0.6254,0.617,0.6048,0.4933,0.3868,0.3495,0.3406,0.3159,0.2483,0.2669,0.2544,0.1536,0.1689,0.1517,0.0572,0.0487,0.0355,0.0044,0.0,0.0,0.0,0.0,0.0,0.0,0.0,0.0,0.0,0.0241,0.0429,0.0523,0.0,0.0,0.0,0.0,0.0,0.0,0.0,0.0,0.0,0.0,0.0,0.0,0.0,0.0,0.0,0.0,0.0,0.0,0.0,0.0,0.0,0.0,0.0,1.7582,1.7862,1.8129,1.847,1.8764,1.8824,1.8544,1.8517,1.8517,1.8517,1.7502,1.6746,1.6344,1.4939,1.4056,1.3717,1.2087,1.116,1.1105,0.9699,0.8937,0.8885,0.8885,0.8885,0.8885,0.8885,0.8885,0.8885,0.8885,0.8885,0.8885,0.8885,0.8885,0.8885,0.8878,0.8842,0.871,0.8699,0.8601,0.8448,0.8313,0.8015,0.7596,0.7596,0.7444,0.7188,0.6892,0.6795,0.6742,0.6487,0.6437,0.6387,0.6387,0.6384,0.6404,0.6295,0.6314,0.6279,0.6108,0.6081,0.6043,0.592,0.5896,0.5619,0.4697,0.4443,0.3717,0.1838,0.2376,0.0,0.1614,0.2331,0.2553,0.1523,0.1408,0.1052,0.0134,0.0042,0.0041,0.0084,0.0079,0.0076,0.0076,0.0074,0.0072,0.007,0.0763,0.1369,0.1909,0.0,0.0,0.0,0.0,0.0,0.0,0.0,0.0,0.0,0.0,0.0,0.0,0.0,0.0,0.0,0.0,0.0,0.0,0.0,0.0,0.0,1.7428,1.7582,1.7582,1.8217,1.8711,1.8791,1.9065,1.9212,1.9132,1.9125,1.9125,1.9125,1.8832,1.8116,1.6845,1.626,1.5372,1.3967,1.3301,1.2403,1.1105,1.0672,0.997,0.8885,0.8885,0.8885,0.8885,0.8885,0.8885,0.8885,0.8885,0.8885,0.8885,0.8885,0.8885,0.8871,0.8815,0.8747,0.8682,0.8472,0.8296,0.8157,0.8116,0.7975,0.7892,0.7892,0.7693,0.7494,0.7394,0.7244,0.7039,0.6742,0.6692,0.6642,0.6437,0.6377,0.6306,0.6325,0.6248,0.6102,0.598,0.5953,0.5918,0.5803,0.5734,0.5689,0.5417,0.5347,0.5149,0.4612,0.4748,0.0,0.3628,0.3762,0.325,0.158,0.1395,0.1255,0.0985,0.0926,0.1145,0.1641,0.1683,0.1673,0.1683,0.1568,0.154,0.1529,0.1737,0.1839,0.0,0.0,0.0,0.0,0.0,0.0,0.0,0.0,0.0,0.0,0.0,0.0,0.0,0.0,0.0,0.0,0.0,0.0,0.0,0.0,0.0,0.0,1.8292,1.8143,1.8143,1.8591,1.8971,1.9092,1.9265,1.9424,1.9424,1.9424,1.9424,1.9424,1.9252,1.8759,1.7654,1.7377,1.6704,1.5555,1.4801,1.3911,1.2886,1.1701,1.0676,0.9805,0.921,0.8885,0.8885,0.8885,0.8885,0.0,0.8885,0.8885,0.8878,0.8814,0.879,0.0,0.0,0.0,0.0,0.0,0.8116,0.7988,0.7988,0.7988,0.7988,0.7988,0.7892,0.7743,0.7646,0.7494,0.7291,0.7042,0.6992,0.6889,0.6639,0.65,0.6449,0.6254,0.61,0.5975,0.5858,0.5833,0.5812,0.5702,0.0,0.0,0.5688,0.5688,0.5555,0.5196,0.5466,0.5374,0.0,0.4659,0.4263,0.2695,0.2539,0.2341,0.1849,0.1799,0.0,0.0,0.0,0.2374,0.2313,0.2179,0.0,0.0,0.0,0.0,0.0,0.0,0.0,0.0,0.2514,0.2223,0.0,0.0,0.0,0.0,0.0,0.0,0.0,0.0,0.0,0.0,0.0,0.0,0.0,0.0,0.0,0.0,1.9437,1.9045,1.8965,1.8978,1.9072,1.9339,1.9424,1.9424,1.9424,1.9397,1.9319,1.9319,1.9045,1.8744,1.8457,0.0,0.0,0.0,0.0,1.5577,1.5417,1.2886,1.1483,1.1269,0.986,0.9158,0.9099,0.8937,0.8885,0.8885,0.8885,0.8871,0.8848,0.8767,0.8689,0.8662,0.8662,0.8567,0.8401,0.8086,0.7988,0.0,0.0,0.0,0.0,0.7988,0.7988,0.7939,0.7693,0.7646,0.7593,0.7341,0.7238,0.7185,0.6874,0.6726,0.6597,0.6189,0.6018,0.5855,0.571,0.5688,0.5688,0.5688,0.5677,0.5667,0.5667,0.568,0.5416,0.4552,0.5132,0.0,0.4537,0.5156,0.5254,0.4198,0.0,0.0,0.2716,0.2638,0.2697,0.2767,0.2767,0.2709,0.2567,0.2478,0.2715,0.3347,0.35,0.386,0.4525,0.4635,0.4758,0.4771,0.317,0.2727,0.0,0.0,0.0,0.0,0.0,0.0,0.0,0.0,0.0,0.0,0.0,0.0,0.0,0.0,0.0,2.0619,2.0444,2.0118,1.9418,1.9279,1.9305,1.9417,1.9424,1.9424,1.9424,1.9152,1.9011,1.9011,1.8738,1.8444,1.8095,1.8022,0.0,1.7595,1.7312,1.6605,1.5417,1.4877,1.3852,1.2448,0.0,0.0,1.0296,0.932,0.8885,0.8885,0.8885,0.8814,0.8754,0.8723,0.857,0.8353,0.8353,0.8262,0.8066,0.8012,0.7988,0.7988,0.7988,0.7988,0.7988,0.7988,0.7988,0.7988,0.7942,0.7942,0.0,0.7593,0.7543,0.7419,0.7064,0.6738,0.6511,0.6296,0.5989,0.5715,0.5694,0.5688,0.5688,0.5688,0.561,0.5543,0.5543,0.5623,0.5612,0.5293,0.5412,0.5464,0.5238,0.5355,0.5046,0.4053,0.3928,0.3834,0.3589,0.3561,0.3789,0.433,0.4345,0.4338,0.4224,0.4249,0.4317,0.4405,0.4426,0.4508,0.4654,0.4679,0.4802,0.4938,0.4507,0.4253,0.0,0.0,0.0,0.0,0.0,0.0,0.0,0.0,0.0,0.0,0.0,2.4299,2.3971,0.0,2.3,2.2791,2.2274,2.1493,2.0479,2.027,2.0104,1.9482,1.9424,1.9424,1.9424,1.9098,1.8925,1.8925,1.8517,1.8203,1.8002,1.7849,1.7742,1.7589,1.7582,1.7259,1.6499,1.5796,1.4883,1.3917,1.2561,1.1533,1.0672,1.0076,0.9482,0.8878,0.8804,0.8781,0.8699,0.855,0.8357,0.8153,0.8153,0.8106,0.7988,0.7988,0.7988,0.7988,0.7988,0.7988,0.7988,0.7988,0.7988,0.7988,0.7988,0.7988,0.7975,0.7753,0.7681,0.7599,0.7215,0.6935,0.6675,0.652,0.6178,0.5908,0.5908,0.5728,0.5599,0.5599,0.5502,0.5461,0.5461,0.551,0.5529,0.5469,0.5461,0.5436,0.5418,0.541,0.5178,0.4622,0.4568,0.4518,0.4426,0.4413,0.4557,0.489,0.4831,0.4769,0.4746,0.4743,0.475,0.469,0.475,0.4743,0.4743,0.4806,0.4958,0.5192,0.5129,0.5044,0.0,0.0,0.0,0.0,0.0,0.0,0.0,2.501,2.5294,2.5526,2.587,2.6225,2.6377,2.563,2.4963,2.4837,2.3991,2.2918,2.1737,2.1345,2.0838,1.988,1.954,1.9345,1.9285,1.9011,1.8818,1.8701,1.8209,1.7902,1.7902,1.7716,1.7582,1.7582,1.7582,1.7582,1.7582,1.644,1.5695,1.5387,1.3965,1.2665,1.1433,1.1214,1.0457,0.9254,0.9064,0.8862,0.8604,0.8591,0.8352,0.7988,0.7988,0.7988,0.7988,0.7988,0.7988,0.7988,0.7988,0.7988,0.7988,0.7988,0.7988,0.7988,0.7988,0.7968,0.7921,0.7845,0.779,0.7688,0.7349,0.7138,0.6956,0.6697,0.6379,0.6163,0.6139,0.5837,0.5585,0.5564,0.5459,0.5375,0.5375,0.5358,0.535,0.5372,0.5375,0.5366,0.5344,0.5342,0.5262,0.5165,0.5154,0.5116,0.5026,0.5018,0.5018,0.5018,0.4884,0.4831,0.4831,0.4776,0.4761,0.4761,0.4819,0.4831,0.4831,0.493,0.5113,0.5342,0.5391,0.5447,2.5057,2.4717,2.4512,2.4893,2.4697,2.4727,0.0,2.5908,2.5791,2.6345,2.6588,2.6659,2.6427,2.6369,2.6027,2.4944,2.4667,2.4167,2.2974,2.1851,2.1174,2.1002,2.0046,1.9265,1.8998,1.8711,1.843,1.8109,1.7829,1.7635,1.7635,1.7602,1.7582,1.7582,1.7582,1.7582,1.7582,1.7417,1.7213,1.6961,1.5695,1.4776,1.4143,1.3048,1.1801,1.0491,1.0106,0.9313,0.8409,0.9126,0.8889,0.7988,0.7988,0.7988,0.7988,0.7988,0.7988,0.7988,0.7988,0.7988,0.7988,0.7988,0.7988,0.7988,0.7988,0.7894,0.7834,0.7818,0.7723,0.759,0.7434,0.7204,0.6979,0.6802,0.658,0.6313,0.6198,0.603,0.5815,0.5709,0.5416,0.5208,0.5208,0.5124,0.5091,0.5192,0.5208,0.517,0.5069,0.5056,0.505,0.5037,0.5034,0.5031,0.5018,0.5018,0.5018,0.5018,0.5004,0.4996,0.4996,0.4982,0.4977,0.4977,0.4988,0.4996,0.4996,0.501,0.5031,0.5061,0.5273,0.5494,2.5093,2.5179,2.5293,2.5723,2.5703,2.5723,2.6361,2.6543,2.6586,2.6693,2.6935,2.7069,2.6791,2.6769,2.6618,2.5962,2.5852,2.5459,2.4214,2.3038,2.1888,2.1023,1.9834,1.9058,1.8931,1.8504,1.8129,1.8002,1.7756,1.7582,1.7582,1.7582,1.7582,1.7582,1.7582,1.7582,1.7582,1.7582,1.7483,1.7179,1.6677,1.5867,1.4793,1.4137,1.2914,1.1296,1.1021,1.0542,1.0012,1.0372,0.9903,0.8924,0.8924,0.8528,0.7988,0.7988,0.7988,0.7988,0.7988,0.7988,0.7988,0.7988,0.7931,0.7906,0.7906,0.7804,0.7672,0.758,0.7512,0.7431,0.7278,0.7148,0.7042,0.6982,0.6789,0.6574,0.6479,0.6172,0.591,0.5779,0.5485,0.5241,0.5241,0.5126,0.5031,0.508,0.5089,0.5069,0.5023,0.5018,0.5018,0.5018,0.5018,0.5018,0.5018,0.5018,0.5018,0.5018,0.5018,0.5018,0.5018,0.5018,0.5018,0.5018,0.5018,0.5018,0.5018,0.5018,0.505,0.5118,0.5216,0.5358,2.5158,2.5489,2.5791,2.6279,2.6387,2.6473,2.6804,2.7049,2.7142,2.7011,2.7116,2.7215,2.6944,2.689,2.6845,2.6646,2.6591,2.6309,2.5404,2.4178,2.2792,2.1375,1.9982,1.9006,1.8677,1.8242,1.7955,1.7923,1.7709,1.7582,1.7582,1.7582,1.7582,1.7582,1.7582,1.7582,1.7582,1.7582,1.7483,1.7331,1.7331,1.6683,1.5601,1.4885,1.3825,1.2397,1.2082,1.1667,1.1219,1.1512,1.0974,1.0047,1.0047,0.9558,0.8825,0.8528,0.8237,0.7988,0.7988,0.7988,0.7982,0.7941,0.7899,0.7804,0.7767,0.7651,0.7512,0.745,0.7343,0.7282,0.7125,0.7095,0.7095,0.7095,0.698,0.6783,0.6636,0.6325,0.6018,0.5839,0.558,0.5398,0.5398,0.5207,0.5093,0.5093,0.5054,0.5018,0.5018,0.5018,0.5018,0.5018,0.5018,0.5018,0.5018,0.5018,0.5018,0.5018,0.5018,0.5018,0.5018,0.5018,0.5018,0.5018,0.5018,0.5018,0.5018,0.5018,0.5059,0.514,0.5173,0.5235,2.5284,2.5489,2.5791,2.6279,2.6387,2.6611,2.7451,2.7428,2.7228,2.7381,2.7196,2.6935,2.6636,2.6591,2.6591,2.6591,2.6591,2.6591,2.6527,2.517,2.3716,2.256,2.0825,1.922,0.0,1.8002,1.7869,1.7615,1.7589,1.7582,1.7582,1.7582,1.7582,1.7582,1.7582,1.7582,1.7582,1.7582,1.7582,1.7582,1.7582,1.743,1.706,1.5346,1.4349,1.3886,1.3446,1.2459,1.1268,1.2242,1.2047,1.117,1.117,1.1121,1.0979,0.9948,0.8874,0.7988,0.7988,0.7988,0.7965,0.7865,0.7814,0.7784,0.7648,0.7499,0.7422,0.7419,0.7261,0.7102,0.7098,0.7095,0.7095,0.7095,0.6994,0.6849,0.6739,0.6427,0.6122,0.5934,0.5715,0.5598,0.5598,0.544,0.5282,0.5282,0.5132,0.5018,0.5018,0.5018,0.5018,0.5018,0.5018,0.5018,0.5018,0.5018,0.5018,0.5018,0.5018,0.5018,0.5018,0.5018,0.5018,0.5018,0.5018,0.5018,0.5018,0.5018,0.5018,0.5026,0.5135,0.5186,2.4784,2.4981,2.5282,2.5762,2.6179,2.6647,2.7007,2.7396,2.7496,2.6883,2.6642,2.6461,2.5883,2.6048,2.6223,2.6223,2.6408,2.6591,2.6591,2.5454,2.401,2.2435,2.0986,0.0,0.0,0.0,0.0,1.7589,1.7582,1.7582,1.7582,1.7582,1.7582,1.7582,1.7582,1.7582,1.7582,1.7582,1.7582,1.7582,1.7582,1.7324,1.6827,1.6074,1.5437,1.496,1.4448,1.3941,1.3516,1.3709,1.3119,1.2193,1.2193,1.1804,1.117,1.0779,1.044,0.9899,0.8482,0.7924,0.7879,0.7828,0.7678,0.7509,0.7461,0.7339,0.7217,0.7217,0.7136,0.7095,0.7095,0.7095,0.7095,0.7095,0.6991,0.6846,0.6732,0.6539,0.6351,0.6207,0.5983,0.5786,0.5786,0.5634,0.544,0.5321,0.5132,0.5018,0.5018,0.5018,0.5018,0.5018,0.5018,0.5018,0.5018,0.5018,0.5018,0.5018,0.5018,0.5018,0.5018,0.5018,0.5018,0.5018,0.5018,0.5018,0.5018,0.5018,0.5018,0.5018,0.5056,0.5072,2.448,2.4686,2.4987,2.5462,2.5917,2.6282,2.6546,2.6902,2.6964,2.633,2.6126,2.5885,2.547,2.5635,2.5846,2.5993,2.6241,2.6417,2.6564,2.5782,2.4613,2.2856,2.1493,2.0034,0.0,0.0,0.0,1.7582,1.7582,1.7582,1.7582,1.7582,1.7582,1.7582,1.7582,1.7582,1.7582,1.7582,1.7582,1.7582,1.7475,1.7231,1.6884,1.6496,1.6058,1.5624,1.5191,1.4927,1.4838,1.464,1.41,1.3414,1.3414,1.3028,1.2393,1.2004,1.1803,1.1448,0.9657,0.8956,0.8793,0.8295,0.8027,0.7807,0.7392,0.744,0.7621,0.7621,0.7837,0.8097,0.8097,0.8097,0.8097,0.8097,0.7758,0.7346,0.7224,0.682,0.647,0.6327,0.618,0.606,0.606,0.5867,0.5634,0.544,0.5287,0.5171,0.5018,0.5018,0.5018,0.5018,0.5018,0.5018,0.5018,0.5018,0.5018,0.5018,0.5018,0.5018,0.5018,0.5018,0.5018,0.5018,0.5018,0.5018,0.5018,0.5018,0.5018,0.5018,0.5018,0.5018,2.448,2.4686,2.4977,2.5434,2.5547,2.5661,2.6049,2.5966,2.5787,2.5759,2.5552,2.5378,2.5289,2.5359,2.5515,2.5892,2.5984,2.6159,2.6527,2.6224,2.5422,2.3885,2.2391,2.0885,1.9361,1.8251,0.0,1.7582,0.0,1.7582,1.7582,1.7582,1.7582,1.7582,1.7582,1.7582,1.7582,1.7582,1.7575,1.7555,1.7333,1.7186,1.7139,1.6576,1.6162,1.5878,1.561,1.5356,1.5131,1.5064,1.4914,1.4669,1.4704,1.4651,1.4549,1.3525,1.2989,1.2601,1.136,1.0882,1.058,0.9275,0.8882,0.8665,0.7579,0.7885,0.8588,0.8588,0.9235,0.9879,0.9879,0.9879,0.9879,0.9879,0.9124,0.8345,0.8201,0.7336,0.6586,0.6443,0.6416,0.6412,0.6377,0.6177,0.598,0.5715,0.5676,0.5521,0.5054,0.5015,0.5018,0.5018,0.5018,0.5018,0.5018,0.5018,0.5018,0.5018,0.5018,0.5018,0.5018,0.5018,0.5018,0.5018,0.5018,0.5018,0.5018,0.5018,0.5018,0.5057,0.5057,0.5057,2.4301,2.435,2.4418,2.4529,2.493,2.5333,2.5436,2.5801,2.5942,2.5479,2.5312,2.4974,2.4115,2.4519,2.4968,2.5069,2.5626,2.6159,2.6527,2.6224,2.5422,2.3885,2.2391,2.0885,1.9361,1.8251,0.0,0.0,1.7582,1.7582,1.7582,1.7582,1.7582,1.7582,1.7582,1.7582,1.7582,1.7582,1.7475,1.7306,1.7239,1.6971,1.6543,1.6388,1.6152,1.5789,1.5573,1.5445,1.5337,1.4901,1.4678,1.4606,1.4404,1.4322,1.4276,1.4034,1.39,1.3717,1.3234,1.1849,1.0295,0.9962,0.9736,0.9556,0.9288,0.9357,0.9531,0.9531,0.9705,0.9879,0.9879,0.9879,0.9879,0.9879,0.96,0.9275,0.906,0.8702,0.8356,0.8128,0.8093,0.7902,0.7292,0.7633,0.7706,0.6899,0.6784,0.6398,0.5359,0.5207,0.5168,0.5015,0.5018,0.5018,0.5018,0.5018,0.5018,0.5018,0.5018,0.5018,0.5018,0.5018,0.5018,0.5018,0.5018,0.5018,0.5018,0.5018,0.5249,0.567,0.567,0.5941,2.4202,2.4202,2.4202,2.4202,2.4467,2.4742,2.4742,2.506,2.5157,2.4548,2.4464,2.4276,2.3629,2.3874,2.4418,2.495,2.546,2.5966,2.6509,2.6224,2.5591,2.4596,2.3141,2.1622,2.0086,1.8975,1.8101,0.0,1.7582,1.7582,1.7582,1.7582,1.7582,1.7582,1.7582,1.7582,1.7582,1.7455,1.7367,1.7199,1.6938,1.6643,1.6321,1.6139,1.5985,1.5778,0.0,1.5569,1.5437,1.5093,1.4818,1.4597,1.4437,1.4379,1.4379,1.4379,1.4302,1.4173,1.4044,1.2931,1.1515,1.1038,1.0683,1.0448,1.0009,1.0188,1.0491,1.0491,1.0794,1.1139,1.1139,1.1139,1.1139,1.1139,1.0744,1.0316,0.9983,0.9536,0.9088,0.8755,0.8703,0.8551,0.8093,0.8394,0.8508,0.7931,0.7855,0.7583,0.6777,0.5935,0.5362,0.5168,0.5132,0.5093,0.5018,0.5018,0.5018,0.5018,0.5018,0.5132,0.5401,0.5401,0.5518,0.5825,0.5825,0.5825,0.5825,0.5825,0.6018,0.6325,0.6325,0.6556,2.4202,2.4202,2.4202,2.4202,2.4202,2.4202,2.4202,2.4202,2.4082,2.3581,2.3499,2.348,2.3425,2.3453,2.3855,2.5032,2.5304,2.5564,2.6316,2.6068,2.5727,2.5387,2.398,2.251,2.1224,1.9952,1.8819,1.7891,1.7687,1.7582,1.7582,1.7582,1.7582,1.7582,1.7582,1.7562,1.7522,1.7326,1.7159,1.7079,1.6569,1.6301,1.6206,1.5945,1.5784,1.5778,0.0,0.0,1.5391,1.5311,1.4988,1.4577,1.4538,1.4525,1.4525,1.4525,1.4368,1.4202,1.4202,1.386,1.3264,1.2277,1.1757,1.1408,1.0572,1.0885,1.1499,1.1499,1.2057,1.2705,1.2705,1.2705,1.2705,1.2705,1.2035,1.1324,1.0958,1.0155,0.9433,0.9071,0.9003,0.9003,0.8889,0.8965,0.8965,0.8889,0.8856,0.8803,0.8571,0.7034,0.5902,0.5705,0.5667,0.5589,0.544,0.5362,0.5323,0.5323,0.5287,0.5479,0.6015,0.6015,0.6325,0.6899,0.6903,0.6903,0.6903,0.6903,0.6938,0.7015,0.7015,0.7053,2.4202,2.4202,2.4202,2.4202,2.4202,2.4202,2.4202,2.4202,2.4082,2.3581,2.3499,2.3398,2.3068,2.3279,2.3721,2.433,2.4707,2.5051,2.5518,2.5234,2.4959,2.4895,2.3531,2.2494,2.2224,2.0416,0.0,0.0,1.8094,1.7582,1.7582,1.7582,1.7582,1.7582,1.7582,1.7468,1.728,1.7226,1.6958,1.6469,1.6368,1.6146,1.5905,1.5852,1.5784,1.5764,0.0,0.0,1.5357,1.487,1.4599,1.4482,1.4286,1.4193,1.4193,1.4193,1.4166,1.4119,1.4119,1.391,1.361,1.3222,1.2966,1.2747,1.2577,1.2485,1.2448,1.2448,1.2577,1.2705,1.2705,1.2705,1.2705,1.2705,1.2409,1.2046,1.1745,1.1208,1.0761,1.0718,1.0694,1.0475,0.9803,1.025,1.0475,0.9803,0.969,0.9616,0.9338,0.8501,0.7846,0.7621,0.7621,0.7583,0.7544,0.7276,0.708,0.708,0.6745,0.6633,0.671,0.6707,0.6784,0.6903,0.6903,0.6903,0.6903,0.6903,0.7169,0.7629,0.7629,0.7897,2.4202,2.4202,2.4202,2.4202,2.4202,2.4202,2.4202,2.4202,2.4082,2.3581,2.3499,2.3435,2.3251,2.337,2.37,2.4381,2.4647,2.4922,2.5317,2.5032,2.4785,2.4785,2.3948,2.3138,2.2577,2.1038,1.9849,1.9228,1.8199,1.7582,1.7582,1.7582,1.7582,1.7582,1.7435,1.734,1.7199,1.6898,1.6603,1.6321,1.6119,1.5965,1.5784,1.5784,1.5784,1.5764,1.5524,0.0,1.5182,1.4696,1.4429,1.4282,1.4142,1.4088,1.4088,1.4088,1.4088,1.4088,1.4088,1.3997,1.3913,1.3786,1.3525,1.3222,1.3137,1.3009,1.2881,1.2747,1.2705,1.2705,1.2705,1.2705,1.2705,1.2705,1.2403,1.2041,1.1736,1.1363,1.1111,1.1111,1.1111,1.0962,1.0588,1.085,1.0962,1.0588,1.0513,1.0467,1.0341,1.0017,0.9359,0.8164,0.8043,0.8045,0.8109,0.7927,0.7812,0.7812,0.7625,0.7587,0.7659,0.7698,0.774,0.7821,0.7821,0.7821,0.7821,0.7821,0.7974,0.828,0.828,0.8432,2.4202,2.4202,2.4202,2.4202,2.4202,2.4202,2.4202,2.4202,2.4082,2.3581,2.3499,2.3499,2.3499,2.3499,2.3736,2.4528,2.4647,2.4757,2.512,2.4891,2.4647,2.4647,2.4404,2.3845,2.2937,2.165,0.0,1.9642,1.8356,0.0,1.7582,1.7582,1.7582,1.7582,1.7353,1.7172,1.7105,1.6583,1.6239,1.6179,1.5939,1.5784,1.5784,1.5784,1.5784,1.5764,1.5458,0.0,0.0,1.4576,1.4295,1.4088,1.4088,1.4088,1.4088,1.4088,1.4088,1.4088,1.4088,1.4088,1.4088,1.4088,1.3828,1.344,1.3264,1.3185,1.3052,1.2833,1.2747,1.2705,1.2705,1.2705,1.2674,1.2566,1.218,1.1724,1.1459,1.1268,1.1111,1.1111,1.1111,1.1111,1.1111,1.1111,1.1111,1.1111,1.1111,1.1093,1.1033,1.1027,1.0384,0.8763,0.8636,0.8696,0.8751,0.8651,0.8613,0.8613,0.8542,0.8537,0.8727,0.8727,0.8808,0.897,0.8856,0.8818,0.8818,0.8742,0.8703,0.8703,0.8703,0.8742,2.4202,2.4202,2.4202,2.4202,2.4202,2.4202,2.4202,2.4202,2.4082,2.3581,2.3499,2.3499,2.3499,2.3499,2.3694,2.4183,2.4266,2.4275,2.4312,2.4284,2.4266,2.4266,2.4229,2.4152,2.4053,2.2156,2.0885,2.0731,0.0,0.0,1.7582,1.7582,1.7582,1.7582,1.7353,1.7072,1.6747,1.6433,1.6139,1.5872,1.5798,1.5784,1.5784,1.5784,1.5784,1.5751,0.0,0.0,0.0,1.4398,1.4115,1.4088,1.4088,1.4088,1.4088,1.4088,1.4088,1.4088,1.4088,1.4088,1.4088,1.4088,1.3913,1.3652,1.3652,1.3392,1.3094,1.3052,1.2875,1.2705,1.2705,1.2705,1.2584,1.2107,1.1736,1.1453,1.117,1.1129,1.1111,1.1111,1.1111,1.1111,1.1111,1.1111,1.1111,1.1111,1.1111,1.1027,1.0785,1.0755,1.0671,1.0467,1.0673,1.082,1.0807,1.0475,1.0288,1.0288,0.9954,0.9728,0.9765,0.9765,0.9765,0.9809,0.9435,0.9246,0.9246,0.8894,0.8703,0.8703,0.8703,0.8899,2.4202,2.4202,2.4202,2.4202,2.4202,2.4202,2.4202,2.4202,2.4156,2.3941,2.3904,2.3904,2.3904,2.3904,2.396,2.4174,2.4202,2.4202,2.4202,2.4202,2.4202,2.4202,2.4202,2.4202,2.4202,0.0,2.1293,2.0004,0.0,0.0,1.738,1.7488,1.7554,1.738,1.7034,1.674,1.6446,1.6152,1.5945,1.5784,1.5784,1.5784,1.5784,1.5784,1.5784,1.5751,0.0,0.0,0.0,1.4329,1.4088,1.4088,1.4088,1.4088,1.4088,1.4088,1.4088,1.4088,1.4088,1.4088,1.4088,1.4088,1.4046,1.3913,1.3737,1.361,1.3398,1.3185,1.3009,1.2887,1.2554,1.2355,1.2137,1.1736,1.1567,1.1417,1.1172,1.1111,1.1111,1.1111,1.1111,1.1111,1.1111,1.1111,1.1111,1.1111,1.1111,1.1069,1.0966,1.0954,1.0954,1.0954,1.0869,1.0936,1.1099,1.0962,1.085,1.085,1.07,1.0519,1.0255,1.0255,1.0143,0.9922,0.9733,0.9657,0.9657,0.9506,0.9311,0.9051,0.9311,0.9392,2.4102,2.4202,2.4202,2.4202,2.4202,2.4202,2.4202,2.4202,2.4202,2.4202,2.4202,2.4202,2.4202,2.4202,2.4202,2.4202,2.4202,2.4202,2.4202,2.4202,2.4202,2.4202,2.4202,2.4202,2.4202,2.3188,2.17,1.9849,0.0,0.0,0.0,1.7719,1.7537,1.7079,1.6734,1.648,1.6279,1.5979,1.5784,1.5784,1.5784,1.5784,1.5778,1.5738,1.5705,1.5671,0.0,0.0,0.0,1.4295,1.4088,1.4088,1.4088,1.4088,1.4088,1.4088,1.4088,1.4088,1.4088,1.4088,1.4088,1.4088,1.4088,1.4046,1.387,1.3779,1.3652,1.3349,1.3123,1.2872,1.2476,1.2125,1.1836,1.1615,1.1544,1.1391,1.1154,1.1111,1.1111,1.1111,1.1111,1.1111,1.1111,1.1111,1.1111,1.1111,1.1111,1.1111,1.1111,1.1111,1.1111,1.1111,1.0942,1.0869,1.1093,1.1111,1.1111,1.1111,1.1111,1.0962,1.07,1.0663,1.0556,1.0255,1.0143,1.0067,1.0067,0.9954,0.9771,0.9473,0.9771,0.9733,2.3895,2.4202,2.4202,2.4202,2.4202,2.4202,2.4202,2.4202,2.4202,2.4202,2.4202,2.4202,2.4202,2.4202,2.4202,2.4202,2.4202,2.4202,2.4202,2.4202,2.4202,2.4202,2.4202,2.4202,2.4202,2.3188,2.2064,0.0,0.0,0.0,0.0,1.8417,1.7754,1.6757,1.6426,1.6279,1.6321,1.5979,1.5784,1.5784,1.5784,1.5784,1.5771,1.5531,1.5398,0.0,0.0,0.0,0.0,1.4208,1.4088,1.4088,1.4088,1.4088,1.4088,1.4088,1.4088,1.4088,1.4088,1.4088,1.4088,1.4088,1.4088,1.4088,1.4088,1.3913,1.3695,1.3695,1.3236,1.2675,1.2515,1.2165,1.1805,1.1805,1.1582,1.1341,1.1149,1.1111,1.1111,1.1111,1.1111,1.1111,1.1111,1.1111,1.1111,1.1111,1.1111,1.1111,1.1111,1.1111,1.1111,1.1111,1.1105,1.1105,1.1111,1.1111,1.1111,1.1111,1.1111,1.1111,1.1074,1.1074,1.1074,1.1074,1.07,1.0475,1.0475,1.0105,0.9884,0.9884,0.9884,0.9884,2.2929,2.3596,2.4202,2.4202,2.4202,2.4202,2.4202,2.4202,2.4202,2.4202,2.4202,2.4119,2.3785,2.3739,2.3739,2.3739,2.3739,2.3831,2.4165,2.4202,2.4202,2.4202,2.4202,2.4202,0.0,0.0,2.1975,0.0,0.0,0.0,0.0,1.8021,1.7476,1.6462,1.6319,1.6179,1.5972,1.5831,1.5784,1.5784,1.5784,1.5784,1.5771,1.5531,0.0,0.0,0.0,0.0,0.0,1.4208,1.4088,1.4088,1.4088,1.4088,1.4088,1.4088,1.4088,1.4088,1.4088,1.4088,1.4088,1.4088,1.4088,1.4088,1.4088,1.4039,1.3915,1.3544,1.2896,1.2275,1.2226,1.1986,1.1734,1.1734,1.1552,1.1372,1.1335,1.1186,1.1111,1.1111,1.1111,1.1111,1.1111,1.1111,1.1111,1.1111,1.1111,1.1111,1.1111,1.1111,1.1111,1.1111,1.1111,1.1111,1.1111,1.1111,1.1111,1.1111,1.1111,1.1111,1.1111,1.1111,1.1111,1.1111,1.0962,1.0925,1.0925,1.0775,1.07,1.07,1.0443,1.0475,2.2248,2.3338,2.4202,2.4202,2.4202,2.4202,2.4202,2.4251,2.4291,2.4291,2.4171,2.3996,2.3689,2.3419,2.3325,2.3471,2.3499,2.3636,2.4146,2.4202,2.4202,2.4202,2.4202,0.0,0.0,2.3081,0.0,0.0,0.0,0.0,0.0,1.8445,1.7721,1.6725,1.6299,1.6019,1.5784,1.5784,1.5784,1.5784,1.5784,1.5772,1.5658,1.5364,0.0,0.0,0.0,0.0,0.0,1.4162,1.4088,1.4088,1.4088,1.4088,1.4088,1.4088,1.4088,1.4088,1.4088,1.4088,1.4088,1.4088,1.4088,1.4088,1.4088,1.4008,1.382,1.3398,1.2778,1.2241,1.2202,1.1996,1.1818,1.1818,1.1706,1.1595,1.1446,1.1298,1.1186,1.1111,1.1111,1.1111,1.1111,1.1111,1.1111,1.1111,1.1111,1.1111,1.1111,1.1111,1.1111,1.1111,1.1111,1.1111,1.1111,1.1111,1.1111,1.1111,1.1111,1.1111,1.1111,1.1111,1.1111,1.1111,1.1111,1.1111,1.1111,1.1111,1.1111,1.1074,1.085,1.085,0.0,2.3176,2.4057,2.4106,2.4156,2.4156,2.4119,2.4258,0.0,2.4445,2.4147,2.3895,2.3886,2.337,2.3052,2.3474,2.3519,2.3657,2.4137,2.4202,2.4202,2.4202,2.4202,0.0,2.3584,2.3471,0.0,0.0,0.0,0.0,0.0,1.9619,1.8427,1.7419,1.648,1.592,1.5784,1.5784,1.5784,1.5784,1.5758,1.5658,1.5384,1.5122,0.0,0.0,0.0,0.0,0.0,1.4088,1.4088,1.4088,1.4088,1.4088,1.4088,1.4088,1.4088,1.4088,1.4088,1.4088,1.4088,1.4088,1.4088,1.4082,1.4062,1.3848,1.3513,1.3287,1.2869,1.2444,1.2341,1.2157,1.2003,1.2003,1.2003,1.1892,1.1521,1.1446,1.1372,1.1149,1.1111,1.1111,1.1111,1.1111,1.1111,1.1111,1.1111,1.1111,1.1111,1.1111,1.1111,1.1111,1.1111,1.1111,1.1111,1.1111,1.1111,1.1111,1.1111,1.1111,1.1111,1.1111,1.1111,1.1111,1.1111,1.1111,1.1111,1.1111,1.1111,1.1111,1.1111,1.1111,2.0068,0.0,2.277,2.349,2.3636,2.3659,0.0,2.3568,2.3616,2.3862,2.3834,2.3758,2.3739,2.3344,2.3214,2.4012,2.3681,2.3584,2.4337,2.4301,2.4251,2.439,2.4301,2.4095,2.3825,2.332,0.0,0.0,0.0,0.0,0.0,2.0119,1.9476,1.8473,1.8241,1.7358,1.5825,1.5784,1.5784,1.5778,1.5605,1.5464,1.5378,1.4863,0.0,0.0,0.0,0.0,1.4088,1.4088,1.4088,1.4088,1.4088,1.4088,1.4088,1.4088,1.4088,1.4088,1.4088,1.4088,1.4088,1.4088,1.4088,1.4048,1.3814,1.35,1.33,1.3227,1.2787,1.2324,1.2325,1.2261,1.2224,1.2224,1.2114,1.1966,1.1892,1.1744,1.1558,1.1372,1.1335,1.1298,1.1149,1.1111,1.1111,1.1111,1.1111,1.1111,1.1111,1.1111,1.1111,1.1111,1.1111,1.1111,1.1111,1.1111,1.1111,1.1111,1.1111,1.1111,1.1111,1.1111,1.1111,1.1111,1.1111,1.1111,1.1111,1.1111,1.1111,1.1111,1.1111,1.1111,1.9199,2.0823,2.2336,2.3296,2.3499,2.3483,2.3567,2.3504,2.3551,2.3784,2.3526,2.3326,2.3543,2.3093,2.3002,2.389,2.3871,2.3926,2.4445,2.4489,2.4498,2.439,2.4341,2.411,0.0,0.0,0.0,0.0,0.0,0.0,0.0,2.0529,2.0068,1.9521,1.9018,1.8056,1.6487,1.648,1.6183,1.5625,1.5471,1.5251,1.4983,1.4663,0.0,0.0,0.0,0.0,1.4088,1.4088,1.4088,1.4088,1.4088,1.4088,1.4088,1.4088,1.4088,1.4088,1.4088,1.4088,1.4088,1.4088,1.4088,1.4035,1.3693,1.34,1.318,1.3039,1.2659,1.2305,1.2305,1.2305,1.2305,1.2305,1.2231,1.2114,1.2003,1.1892,1.1781,1.1595,1.1446,1.1372,1.126,1.1149,1.1111,1.1111,1.1111,1.1111,1.1111,1.1111,1.1111,1.1111,1.1111,1.1111,1.1111,1.1111,1.1111,1.1111,1.1111,1.1111,1.1111,1.1111,1.1111,1.1111,1.1111,1.1111,1.1111,1.1111,1.1111,1.1111,1.1111,1.1111,1.8683,2.0606,2.2228,2.3187,2.3501,2.3625,2.3801,2.3749,2.3717,2.3948,2.3377,2.2992,2.3474,2.3035,2.2919,2.386,2.4279,2.4486,2.4531,2.4784,2.4794,2.4399,2.444,0.0,0.0,0.0,0.0,0.0,0.0,0.0,0.0,2.0943,2.0529,2.0529,1.9654,1.8662,1.7663,1.7531,1.6882,1.5844,1.5709,1.5394,1.4893,1.4722,1.453,0.0,0.0,0.0,1.4088,1.4088,1.4088,1.4088,1.4088,1.4088,1.4088,1.4088,1.4088,1.4088,1.4088,1.4088,1.4088,1.4088,1.4055,1.3968,1.3626,1.3333,1.3073,1.2804,1.2536,1.2305,1.2305,1.2305,1.2305,1.2305,1.2305,1.2268,1.2077,1.204,1.2003,1.1781,1.1595,1.1484,1.1409,1.126,1.1149,1.1111,1.1111,1.1111,1.1111,1.1111,1.1111,1.1111,1.1111,1.1111,1.1111,1.1111,1.1111,1.1111,1.1111,1.1111,1.1111,1.1111,1.1111,1.1111,1.1111,1.1111,1.1111,1.1111,1.1111,1.1111,1.1111,1.1111,1.8493,2.0188,2.1699,2.2715,2.3443,2.3839,2.3768,2.3583,2.3515,2.3796,2.3397,2.329,2.4078,2.3884,2.3955,2.5188,2.5247,2.5061,2.4873,2.4883,2.4981,2.5088,0.0,0.0,0.0,0.0,0.0,0.0,0.0,0.0,0.0,2.1553,2.1508,2.1508,2.1022,2.0272,1.9343,1.8494,1.7975,1.7778,1.7139,1.6807,1.6649,1.571,1.5236,0.0,0.0,1.4088,1.4088,1.4088,1.4088,1.4088,1.4088,1.4088,1.4088,1.4088,1.4088,1.4088,1.4088,1.4088,1.4088,1.4088,1.3915,1.3613,1.3367,1.306,1.279,1.2452,1.2338,1.2305,1.2305,1.2305,1.2305,1.2305,1.2305,1.2298,1.2261,1.2268,1.2194,1.2003,1.1929,1.1781,1.1446,1.1372,1.1298,1.1149,1.1111,1.1111,1.1111,1.1111,1.1111,1.1111,1.1111,1.1111,1.1111,1.1111,1.1111,1.1111,1.1111,1.1111,1.1111,1.1111,1.1111,1.1111,1.1111,1.1111,1.1111,1.1111,1.1111,1.1111,1.1111,1.1111,1.8491,2.0005,2.1348,2.2519,2.3466,2.4125,2.4221,2.398,2.3857,2.4085,2.3789,2.3682,2.4307,2.4258,2.4482,2.5508,2.5586,2.544,2.5137,2.5235,2.5284,0.0,0.0,0.0,0.0,0.0,0.0,0.0,0.0,0.0,0.0,0.0,2.1392,2.1392,2.1007,2.0573,2.0144,1.9462,1.8622,1.7613,1.7281,1.7028,1.6887,1.6358,1.5842,1.5394,0.0,1.4538,1.4088,1.4088,1.4088,1.4088,1.4088,1.4088,1.4088,1.4088,1.4088,1.4088,1.4088,1.4088,1.4088,1.4088,1.3888,1.3547,1.33,1.2993,1.2723,1.2385,1.2305,1.2305,1.2305,1.2305,1.2305,1.2305,1.2305,1.2305,1.2305,1.2305,1.2268,1.2187,1.2077,1.1929,1.1744,1.1632,1.1484,1.1298,1.126,1.1223,1.1111,1.1111,1.1149,1.126,1.126,1.126,1.126,1.126,1.1223,1.1111,1.1111,1.1111,1.1111,1.1111,1.126,1.1595,1.1595,1.1744,1.2077,1.2077,1.2077,1.2077,1.2077,1.2077,1.8881,2.0207,2.1324,2.2621,2.3627,2.4402,2.4746,2.4495,2.4268,2.4504,2.4228,2.4062,2.4492,2.4658,2.4904,2.5577,2.5693,2.5635,2.544,2.5586,2.5499,2.4994,0.0,0.0,0.0,0.0,0.0,0.0,0.0,0.0,0.0,0.0,2.097,2.097,2.0585,2.0383,2.0383,1.9948,1.9071,1.7761,1.7671,1.7491,1.7302,1.7107,1.6657,1.6008,1.5801,1.5193,1.4412,1.4622,1.458,1.4412,1.4412,1.4292,1.4088,1.4088,1.4088,1.4088,1.4088,1.4088,1.4075,1.4008,1.3781,1.3447,1.3193,1.2924,1.263,1.2365,1.2305,1.2305,1.2305,1.2305,1.2305,1.2305,1.2305,1.2342,1.2556,1.2445,1.2378,1.2556,1.2298,1.2077,1.2003,1.1855,1.1706,1.1484,1.1484,1.1409,1.126,1.1223,1.1298,1.1446,1.1484,1.1484,1.1484,1.1558,1.1558,1.1409,1.1335,1.1372,1.1521,1.1521,1.1744,1.2187,1.2224,1.2452,1.29,1.29,1.29,1.29,1.29,1.29,1.9813,2.0882,2.1826,2.3249,2.3985,2.4478,2.5111,2.4783,2.4485,2.4941,2.4668,2.4502,2.4941,2.5361,2.5615,2.5674,2.5693,2.5684,2.5684,0.0,2.5538,0.0,0.0,0.0,0.0,0.0,0.0,0.0,0.0,0.0,0.0,0.0,0.0,2.0558,2.0131,1.993,1.993,1.9558,1.946,1.967,1.9321,1.9121,1.9094,1.8278,1.7876,1.7755,1.6944,1.6124,1.5352,1.6165,1.6049,1.5311,1.5311,1.4824,1.4088,1.4088,1.4088,1.4088,1.4088,1.4088,1.4041,1.3726,1.344,1.318,1.2911,1.261,1.2325,1.2311,1.2305,1.2305,1.2305,1.2305,1.2305,1.2305,1.2305,1.2519,1.3244,1.2849,1.2519,1.328,1.2806,1.2231,1.204,1.2003,1.1892,1.1706,1.1669,1.1669,1.1669,1.1669,1.1669,1.1669,1.1669,1.1669,1.1669,1.2003,1.2224,1.2224,1.204,1.2194,1.2746,1.2783,1.279,1.282,1.2826,1.2856,1.29,1.29,1.29,1.29,1.29,1.29,1.9571,2.0957,2.1998,2.246,2.3355,2.4306,2.5024,2.5011,2.4951,2.5391,2.5352,2.5245,2.5449,2.5625,2.5693,2.5693,2.5693,2.5693,2.5693,2.5498,0.0,0.0,0.0,0.0,0.0,0.0,0.0,0.0,0.0,0.0,0.0,0.0,0.0,2.0113,1.9751,1.954,1.954,1.9384,1.9384,1.954,1.9375,1.9301,1.9301,1.8975,1.8527,1.7997,1.7634,1.7025,1.6206,1.6576,1.6494,1.6165,1.5594,1.5193,1.4824,1.4292,1.4454,1.4908,1.4908,1.4774,1.459,1.4436,1.3744,1.2938,1.2817,1.2576,1.2305,1.2305,1.2305,1.2305,1.2305,1.2305,1.2305,1.2305,1.2666,1.3135,1.3426,1.36,1.381,1.4135,1.3954,1.3709,1.3629,1.3629,1.3557,1.3332,1.3332,1.3259,1.3142,1.315,1.3004,1.2652,1.2615,1.2615,1.2615,1.3084,1.352,1.389,1.3062,1.2673,1.29,1.29,1.3076,1.3433,1.347,1.3622,1.3949,1.3949,1.3949,1.3949,1.3949,1.3949,1.9624,2.09,2.181,2.201,2.2878,2.3911,2.4709,2.4863,2.5029,2.5567,2.5693,2.5693,2.5693,2.5693,2.5693,0.0,2.5567,2.5527,2.5527,0.0,0.0,0.0,0.0,0.0,0.0,0.0,0.0,0.0,0.0,0.0,0.0,0.0,0.0,0.0,1.9497,1.9301,1.9301,1.9301,1.9301,1.9301,1.9301,1.9301,1.9301,1.9301,1.8975,1.8407,1.8407,1.7917,1.7147,1.7432,1.735,1.7066,1.6453,1.5884,1.5352,1.5026,1.511,1.5436,1.5718,1.5651,1.5425,1.5223,1.4496,1.3651,1.3151,1.2868,1.265,1.2493,1.2557,1.2686,1.2783,1.2735,1.2739,1.2989,1.3455,1.3926,1.4178,1.4516,1.4816,1.4947,1.4876,1.4736,1.4625,1.4601,1.4605,1.4607,1.4587,1.459,1.4581,1.446,1.4177,1.368,1.3629,1.3629,1.3629,1.4091,1.4565,1.4974,1.4258,1.376,1.3615,1.3615,1.376,1.4057,1.4057,1.4238,1.4605,1.4605,1.4605,1.4605,1.4605,1.4605,2.0107,2.0796,2.1286,2.2152,2.2754,2.3317,2.4188,2.4424,2.4631,2.5508,2.5693,2.5693,2.5684,2.5684,2.5684,2.5674,2.5352,2.5106,0.0,0.0,0.0,0.0,0.0,0.0,0.0,0.0,0.0,0.0,0.0,0.0,0.0,0.0,0.0,0.0,1.9429,1.9301,1.9301,1.9301,1.9301,1.9301,1.9301,1.9301,1.9301,1.9301,1.9301,1.9301,1.9301,1.8816,1.8078,1.8935,1.8807,1.7997,1.7997,1.6944,1.5519,1.637,1.6165,1.556,1.6412,1.6698,1.6579,1.5943,1.572,1.5432,1.3962,1.3506,1.3426,1.2969,1.3168,1.3579,1.3857,1.3741,1.3716,1.4422,1.4601,1.4816,1.5613,1.5521,1.534,1.5733,1.5493,1.5112,1.4709,1.4645,1.4764,1.5176,1.5224,1.5389,1.5771,1.5477,1.5051,1.4685,1.4609,1.4609,1.4609,1.4974,1.524,1.524,1.5586,1.5621,1.524,1.5204,1.5026,1.4605,1.4605,1.4605,1.4605,1.4605,1.4605,1.4605,1.4605,1.4605,1.8633,1.9906,2.1094,2.1633,2.2799,2.394,2.4513,2.4742,2.5039,2.5567,2.5693,2.5596,2.5322,2.5273,0.0,2.4863,2.4697,2.4609,0.0,0.0,0.0,0.0,0.0,0.0,0.0,0.0,0.0,0.0,0.0,0.0,0.0,0.0,0.0,0.0,1.9666,1.9587,1.9301,1.9429,1.9429,1.9301,1.9301,1.9301,1.9301,1.9301,1.9301,1.9301,1.9301,1.9143,1.8935,1.9183,1.9143,1.8856,1.8238,1.7674,1.7188,1.6821,1.6903,1.7269,1.7513,1.7506,1.7293,1.7122,1.6445,1.5702,1.526,1.5122,1.5108,1.4942,1.501,1.5259,1.5891,1.603,1.5712,1.4836,1.5037,1.5507,1.5762,1.6349,1.6838,1.6974,1.6902,1.689,1.7012,1.6846,1.6793,1.7162,1.7224,1.7268,1.7411,1.6874,1.6417,1.6307,1.6046,1.5886,1.5886,1.6201,1.6412,1.6412,1.6517,1.6298,1.5657,1.5621,1.5551,1.5453,1.5444,1.5444,1.5444,1.5169,1.5026,1.5026,1.474,1.4605,1.88,2.0274,2.1553,2.1891,2.3087,2.4296,2.4745,2.5119,2.541,2.5635,2.5547,2.5391,2.5117,2.4969,0.0,2.4463,2.4277,0.0,0.0,0.0,0.0,0.0,0.0,0.0,0.0,0.0,0.0,0.0,0.0,0.0,0.0,0.0,0.0,0.0,1.9794,1.9666,1.9429,1.9478,1.9429,1.9301,1.9381,1.9381,1.9301,1.9301,1.9301,1.9301,1.9301,1.9301,1.9301,1.9301,1.9301,1.9262,1.8727,1.8278,1.7997,1.7796,1.7836,1.8037,1.8407,1.8417,1.8236,1.8094,1.7527,1.6881,1.6395,1.6277,1.6234,1.6057,1.6116,1.6392,1.6826,1.7165,1.7202,1.6201,1.6232,1.6493,1.6493,1.7126,1.7697,1.7523,1.7752,1.8009,1.8072,1.7917,1.788,1.8293,1.8457,1.854,1.8375,1.797,1.7605,1.7446,1.7217,1.7066,1.7066,1.727,1.7385,1.7385,1.7229,1.6926,1.6484,1.6166,1.5947,1.5798,1.5798,1.5798,1.5798,1.5551,1.5444,1.5444,1.5204,1.5098,1.9718,2.1133,2.2281,2.2583,2.3514,2.4421,2.4974,2.5352,2.5567,2.5567,2.5293,2.5047,2.5008,2.4629,2.4346,2.4307,0.0,0.0,0.0,0.0,0.0,0.0,0.0,0.0,0.0,0.0,0.0,0.0,0.0,0.0,0.0,0.0,0.0,0.0,1.9912,1.9676,1.9606,1.9429,1.9341,0.0,1.9518,1.9518,1.9341,1.9341,1.9301,1.9301,1.9301,1.9301,1.9301,1.9301,1.9301,1.9301,1.9301,1.8816,1.8198,1.9015,1.8807,1.8238,1.9015,1.9301,1.9246,1.888,1.876,1.8581,1.7526,1.7223,1.7111,1.6694,1.6865,1.7194,1.708,1.7619,1.8191,1.8191,1.788,1.755,1.755,1.788,1.8064,1.7678,1.8201,1.8614,1.8284,1.8164,1.8274,1.8705,1.9072,1.9173,1.8815,1.876,1.8623,1.8228,1.8164,1.8136,1.8136,1.8109,1.8091,1.8091,1.7724,1.7513,1.755,1.6785,1.6202,1.5903,1.5903,1.5903,1.5903,1.5868,1.5833,1.5833,1.5798,1.5798,1.7227,1.9265,2.152,2.2208,2.3374,2.4421,2.4974,2.4883,2.4697,2.4697,2.4629,2.4453,2.4131,2.3984,2.3818,0.0,0.0,0.0,0.0,0.0,0.0,0.0,0.0,0.0,0.0,0.0,0.0,0.0,0.0,0.0,0.0,0.0,0.0,2.0303,2.0372,2.0137,1.9606,1.9706,1.9618,0.0,1.9518,1.9566,1.9557,1.9557,1.9429,1.9301,1.9301,1.9301,1.9301,1.9301,1.9301,1.9301,1.9301,1.9183,1.9054,1.9222,1.9173,1.9054,1.9222,1.9301,1.9283,1.9201,1.9173,1.9125,1.8867,1.8801,1.878,1.8664,1.8746,1.881,1.8762,1.8888,1.9045,1.9045,1.8504,1.799,1.799,1.8302,1.8559,1.8467,1.8586,1.8779,1.9008,1.8788,1.8715,1.9118,1.9246,1.9265,1.9182,1.9173,1.9146,1.9054,1.877,1.8586,1.8586,1.8264,1.8091,1.8091,1.7724,1.7642,1.7981,1.7187,1.6735,1.6656,1.6656,1.6656,1.6656,1.6342,1.6202,1.6202,1.5903,1.5798,1.7491,1.9428,2.1383,2.275,2.371,2.4307,2.4272,2.4185,2.4053,2.3803,2.3975,2.4053,2.3828,2.3623,2.3531,0.0,0.0,0.0,0.0,0.0,0.0,0.0,0.0,0.0,0.0,0.0,0.0,0.0,0.0,0.0,0.0,2.0605,2.0566,2.045,2.045,2.0303,1.996,1.9902,1.9784,1.9587,1.9833,1.996,1.9912,1.9715,1.9478,1.9301,1.939,1.9429,1.9429,1.9429,1.9429,1.9429,1.9341,1.9301,1.9301,1.9301,1.9301,1.9301,1.9301,1.9301,1.9301,1.9301,1.9301,1.9301,1.9301,1.9301,1.9301,1.9301,1.9301,1.9256,1.9072,1.9164,1.9256,1.9063,1.8705,1.8412,1.8412,1.8568,1.8715,1.8715,1.8871,1.9063,1.9265,1.9127,1.9063,1.9265,1.9301,1.9301,1.9301,1.9301,1.9301,1.9301,1.9118,1.8999,1.8999,1.8806,1.8687,1.8687,1.8302,1.8174,1.8394,1.7623,1.7193,1.7193,1.7,1.6908,1.6908,1.67,1.6595,1.6586,1.6412,1.6333,1.7987,1.9791,2.1393,2.3294,2.3917,2.3928,2.3446,2.3506,2.351,2.3038,2.3335,2.3652,2.3584,2.3271,0.0,0.0,0.0,0.0,0.0,0.0,0.0,0.0,0.0,0.0,0.0,0.0,0.0,0.0,0.0,0.0,2.0605,2.0605,2.0605,2.0605,2.0459,2.0342,2.0303,2.0069,1.9942,1.9902,2.0186,2.0303,2.0303,1.9912,1.9597,1.9341,1.9518,1.9606,1.9606,1.9606,1.9606,1.9566,1.9381,1.9301,1.9341,1.9341,1.9341,1.9341,1.9341,1.9341,1.9301,1.9301,1.9301,1.9341,1.9341,1.9341,1.9341,1.9341,1.9341,1.9228,1.8898,1.9054,1.9219,1.8889,1.8815,1.8815,1.8815,1.8815,1.8815,1.8815,1.9072,1.9301,1.9301,1.9301,1.9301,1.9301,1.9301,1.9301,1.9301,1.9301,1.9301,1.9301,1.9301,1.9301,1.9301,1.9301,1.9301,1.9301,1.8935,1.8742,1.8806,1.7963,1.7532,1.7596,1.7147,1.6908,1.6908,1.6908,1.6908,1.6908,1.6908,1.6908,1.5577,1.8126,2.103,2.2908,2.3122,2.297,2.3095,2.3016,2.2809,2.2394,2.2809,2.3071,2.2754,2.2637,0.0,0.0,0.0,0.0,0.0,0.0,0.0,0.0,0.0,0.0,0.0,0.0,0.0,0.0,0.0,0.0,2.0605,2.0605,2.0605,2.0605,2.0566,2.0489,2.0303,2.0264,2.0147,1.9902,2.0186,2.0303,2.0303,2.0225,1.9951,1.9557,1.9597,1.9606,1.9606,1.9606,1.9606,1.9566,1.9381,1.9429,1.9557,1.9557,1.9557,1.9557,1.9557,1.9429,1.9301,1.9301,1.9429,1.9557,1.9557,1.9557,1.9557,1.9557,1.9429,1.9292,1.9237,1.9265,1.9292,1.9237,1.9219,1.9219,1.9219,1.9219,1.9219,1.9219,1.9265,1.9301,1.9301,1.9301,1.9301,1.9301,1.9301,1.9301,1.9301,1.9301,1.9301,1.9301,1.9301,1.9301,1.9301,1.9301,1.9301,1.9301,1.8935,1.8871,1.921,1.8109,1.7669,1.7999,1.7293,1.6908,1.6908,1.6908,1.6908,1.6908,1.6908,1.6908,1.5961,1.8328,2.0613,2.2346,2.2732,2.2682,2.2548,2.2403,2.2183,2.2002,2.2121,2.2184,2.2146,2.2158,0.0,0.0,0.0,0.0,0.0,0.0,0.0,0.0,0.0,0.0,0.0,0.0,0.0,0.0,0.0,2.0605,2.0605,2.0332,2.0195,2.0195,2.0008,1.9816,1.9741,1.9741,1.9782,1.9899,2.0294,2.0459,2.045,2.0342,2.0108,1.9794,1.9912,1.999,1.999,1.999,1.9912,1.9754,1.9666,1.9627,1.9597,1.9715,1.9754,1.9754,1.9636,1.9557,1.9469,1.9469,1.9518,1.9606,1.9715,1.9676,1.9606,1.9606,1.9478,1.9301,1.9301,1.9301,1.9301,1.9301,1.9301,1.9301,1.9301,1.9301,1.9301,1.9301,1.9301,1.9301,1.9301,1.9301,1.9301,1.9301,1.9301,1.9301,1.9301,1.9301,1.9301,1.9301,1.9301,1.9301,1.9301,1.9301,1.9301,1.9301,1.9136,1.9118,1.9292,1.8577,1.8164,1.8091,1.7321,1.6908,1.6908,1.6908,1.6908,1.6908,1.6908,1.6908,1.581,1.7681,1.9212,2.1006,2.1725,2.1961,2.2,2.1867,2.1702,2.1556,2.1398,2.1322,2.1491,0.0,0.0,0.0,0.0,0.0,0.0,0.0,0.0,0.0,0.0,0.0,0.0,0.0,0.0,0.0,0.0,2.039,2.0282,1.9932,1.9756,1.9756,1.9453,1.9287,1.9287,1.9287,1.9443,1.9756,2.0088,2.0282,2.0273,2.0129,1.9937,1.9754,2.0129,2.0303,2.0303,2.0303,2.0186,1.9981,1.9942,1.9872,1.9803,1.9951,1.9981,1.9981,1.9833,1.9715,1.9676,1.9676,1.9715,1.9794,1.9951,1.9912,1.9803,1.9803,1.9587,1.9381,1.9381,1.9341,1.9301,1.9301,1.9301,1.9301,1.9301,1.9301,1.9301,1.9301,1.9301,1.9301,1.9301,1.9301,1.9301,1.9301,1.9301,1.9301,1.9301,1.9301,1.9301,1.9301,1.9301,1.9301,1.9301,1.9301,1.9301,1.9301,1.9301,1.9301,1.9301,1.8916,1.8522,1.8091,1.7422,1.7009,1.6908,1.6908,1.6908,1.6908,1.6908,1.6908,1.3646,1.4698,1.6016,1.8478,1.9513,2.0236,2.1471,2.1586,2.1394,2.095,2.0724,2.0602,2.0409,0.0,0.0,0.0,0.0,0.0,0.0,0.0,0.0,0.0,0.0,0.0,0.0,0.0,0.0,0.0,0.0,1.9775,1.9375,1.9336,1.9316,1.9316,1.9297,1.9287,1.9287,1.9287,1.9297,1.9316,1.9346,1.9355,1.9355,1.9355,1.9355,1.9368,2.0033,2.0303,2.0303,2.0303,2.0303,2.0264,1.9981,2.0069,2.0264,2.0264,2.0264,2.0264,2.0264,2.0108,1.9863,1.9863,2.0059,2.0264,2.0264,2.0264,2.0264,2.0264,1.996,1.9566,1.9566,1.9429,1.9301,1.9301,1.9301,1.9301,1.9301,1.9301,1.9301,1.9301,1.9301,1.9301,1.9301,1.9301,1.9301,1.9301,1.9301,1.9301,1.9301,1.9301,1.9301,1.9301,1.9301,1.9301,1.9301,1.9301,1.9301,1.9301,1.9301,1.9301,1.9301,1.8916,1.8522,1.8091,1.7688,1.7284,1.6908,1.6908,1.6908,1.6908,1.6908,1.6908,1.3192,1.4053,1.5032,1.6923,1.8155,1.9009,1.9706,2.0153,2.0435,2.0246,2.0058,1.9933,1.9861,0.0,0.0,0.0,0.0,0.0,0.0,0.0,0.0,0.0,0.0,0.0,0.0,0.0,0.0,0.0,0.0,0.0,1.9333,1.9023,1.8867,1.8867,1.8603,1.8467,1.8467,1.874,1.8867,1.8831,1.915,1.9287,1.9287,1.9287,1.9287,1.9307,1.9545,1.9789,2.0061,2.0382,2.042,2.0303,2.0333,2.0342,2.0303,2.045,2.0489,2.045,2.0342,2.0225,2.0147,2.0147,2.0225,2.0303,2.045,2.042,2.0303,2.0303,2.0069,1.9754,1.9645,1.9557,1.9478,1.9478,1.9587,1.9706,1.9706,1.946,1.9341,1.9469,1.939,1.9301,1.9301,1.9301,1.9301,1.9301,1.9301,1.9301,1.9301,1.9301,1.9301,1.9301,1.9301,1.9301,1.9301,1.9301,1.9301,1.9301,1.9301,1.9301,1.9301,1.8916,1.8522,1.8091,1.7706,1.7303,1.6908,1.6908,1.6908,1.6908,1.6908,1.6908,1.2246,1.2912,1.3814,1.5389,1.6359,1.7276,1.8645,1.9053,1.9304,1.9788,1.9684,1.9518,1.9597,0.0,0.0,0.0,0.0,0.0,0.0,0.0,0.0,0.0,0.0,0.0,0.0,0.0,0.0,0.0,0.0,0.0,1.8903,1.8584,1.8393,1.8393,1.812,1.8008,1.8008,1.8256,1.8393,1.8393,1.8721,1.8857,1.8857,1.8857,1.8857,1.8867,1.9004,1.9316,1.9727,2.0057,2.0148,2.0198,2.0313,2.0362,2.042,2.0566,2.0605,2.0566,2.045,2.042,2.042,2.042,2.042,2.042,2.0566,2.0489,2.042,2.042,2.0216,1.9981,1.9872,1.9754,1.9715,1.9715,1.9784,1.9902,2.002,1.9745,1.9548,1.9676,1.9557,1.939,1.939,1.9341,1.9301,1.9301,1.9301,1.9301,1.9301,1.9301,1.9301,1.9301,1.9301,1.9301,1.9301,1.9301,1.9301,1.9301,1.9301,1.9301,1.9301,1.8916,1.8522,1.8091,1.7706,1.7303,1.6908,1.6908,1.6908,1.6908,1.6908,1.6908,0.0,0.0,0.0,1.3733,1.4111,1.4996,1.8296,1.8331,1.8074,1.9543,1.9509,1.9313,1.9557,0.0,0.0,0.0,0.0,0.0,0.0,0.0,0.0,0.0,0.0,0.0,0.0,0.0,0.0,0.0,0.0,1.9223,1.8061,1.8008,1.8008,1.8008,1.8008,1.8008,1.8008,1.8008,1.8008,1.8008,1.8008,1.8008,1.8008,1.8008,1.8008,1.8037,1.8403,1.8857,1.9248,1.9277,1.9531,1.9893,1.9912,2.0176,2.0586,2.0595,2.0605,2.0605,2.0605,2.0605,2.0605,2.0605,2.0605,2.0605,2.0605,2.0605,2.0605,2.0605,2.045,2.0303,2.0284,2.0089,1.9883,1.9883,1.9883,1.9971,2.0264,2.0108,1.9902,1.9902,1.9754,1.9606,1.9606,1.9429,1.9301,1.9301,1.9301,1.9301,1.9301,1.9301,1.9301,1.9301,1.9301,1.9301,1.9301,1.9301,1.9301,1.9301,1.9292,1.9283,1.9283,1.8889,1.8495,1.8072,1.7697,1.7293,1.6908,1.6908,1.6908,1.6908,1.6908,1.6908,1.0727,0.0,0.0,0.0,0.0,0.0,0.0,1.565,1.6687,1.7661,1.817,1.8623,1.9279,0.0,0.0,0.0,0.0,0.0,0.0,0.0,0.0,0.0,0.0,0.0,0.0,0.0,0.0,0.0,2.009,1.9423,1.8086,1.8008,1.8008,1.8008,1.8008,1.8008,1.8008,1.8008,1.8008,1.8008,1.8008,1.8008,1.8008,1.8008,1.8008,1.8018,1.8135,1.8252,1.8408,1.9033,1.9355,1.9492,1.9795,1.999,2.0127,2.0488,2.0605,2.0605,2.0605,2.0605,2.0605,2.0605,2.0605,2.0605,2.0605,2.0605,2.0605,2.0605,2.0566,2.042,1.9918,1.9726,1.9688,1.9688,1.9793,2.0023,2.042,2.045,2.0372,2.0225,1.999,1.9754,1.9645,1.9557,1.9469,1.9301,1.9301,1.9341,1.9518,1.939,1.9341,1.9518,1.939,1.9301,1.9301,1.9301,1.9301,1.9301,1.9036,1.8871,1.8871,1.8201,1.7779,1.7669,1.7275,1.7009,1.6908,1.6908,1.6908,1.6908,1.6908,1.6908,1.1049,1.1256,1.157,1.1403,0.0,0.0,1.3321,1.4202,1.5196,0.0,1.7353,1.7881,1.8647,0.0,0.0,0.0,0.0,0.0,0.0,0.0,0.0,0.0,0.0,0.0,0.0,0.0,0.0,1.9969,2.0015,1.9606,1.8496,1.8134,1.8008,1.8008,1.8008,1.8008,1.8008,1.8008,1.8008,1.8008,1.8008,1.8008,1.8008,1.8008,1.8008,1.8008,1.8008,1.8008,1.8047,1.8555,1.8857,1.9043,1.9287,1.9492,1.9678,1.9979,2.0146,2.0293,2.0293,2.0449,2.0576,2.0352,2.0293,2.0302,2.0126,2.0067,2.0067,2.0067,2.0067,1.9971,1.9577,1.9472,1.9521,1.9695,1.9809,2.0029,2.0507,2.0605,2.0566,2.045,2.0216,2.0029,1.9912,1.9794,1.9676,1.9469,1.9508,1.9548,1.9606,1.9409,1.9297,1.9336,1.9101,1.8948,1.9045,1.9054,1.9054,1.9054,1.8843,1.8641,1.8476,1.7844,1.7495,1.7495,1.711,1.6908,1.6908,1.6908,1.7012,1.7235,1.7003,1.7141,1.1563,1.1717,1.198,1.1879,0.0,0.0,1.3324,1.3394,1.3764,0.0,1.657,1.6856,1.7593,0.0,0.0,0.0,0.0,0.0,0.0,0.0,0.0,0.0,0.0,0.0,0.0,2.0378,2.0209,1.9047,1.9506,1.9573,1.8911,1.8327,1.8008,1.8008,1.8008,1.8008,1.8008,1.8008,1.8008,1.8008,1.8008,1.8008,1.8008,1.8008,1.8008,1.8008,1.8008,1.8008,1.8008,1.8008,1.8198,1.8539,1.8588,1.8831,1.9219,1.9268,1.9521,1.9844,1.9844,2.0098,2.04,1.9971,1.9844,1.9775,1.9404,1.9287,1.9287,1.9287,1.9287,1.9277,1.9228,1.9219,1.9307,1.9687,1.9775,1.9893,2.037,2.0468,2.0468,2.0468,2.0391,2.0342,2.0303,2.0108,1.9863,1.9676,1.9794,1.9814,1.962,1.9409,1.9231,1.9023,1.8658,1.8518,1.869,1.8689,1.8689,1.8689,1.8605,1.8421,1.8073,1.7651,1.7431,1.7431,1.7082,1.6943,1.7003,1.6943,1.7176,1.7672,1.721,1.7545,1.196,1.2208,1.2442,0.0,0.0,0.0,1.1416,1.1928,1.2745,0.0,1.3966,1.4598,1.5367,0.0,0.0,0.0,0.0,0.0,0.0,0.0,0.0,0.0,0.0,0.0,0.0,1.9175,1.9191,1.873,1.8492,1.8337,1.8202,1.8076,1.8008,1.8008,1.8008,1.8008,1.8008,1.8008,1.8008,1.8008,1.8008,1.8008,1.8008,1.8008,1.8008,1.8008,1.8008,1.8008,1.8008,1.8008,1.8057,1.8164,1.8471,1.8656,1.8773,1.916,1.9336,1.9404,1.9404,1.9463,1.9521,1.9434,1.9404,1.9394,1.9307,1.9287,1.9287,1.9287,1.9287,1.9209,1.8822,1.8724,1.8754,1.8831,1.8851,1.8968,1.9443,1.9541,1.9541,1.9541,2.0098,2.0489,2.0342,2.0264,2.0147,1.9863,1.9863,1.9828,1.964,1.9421,1.9203,1.901,1.8767,1.8647,1.8685,1.8564,1.8527,1.8695,1.811,1.7779,1.7859,1.7309,1.7018,1.7018,1.6945,1.7107,1.7545,1.7107,1.7176,1.7706,1.7569,1.791,0.0,0.0,0.0,1.1977,0.0,0.0,0.0,1.1477,1.1923,1.2699,1.3006,1.3424,1.4364,0.0,0.0,0.0,0.0,0.0,0.0,0.0,0.0,0.0,0.0,0.0,0.0,1.8422,1.8755,1.9307,1.8819,1.8664,1.9021,1.8687,1.8337,1.8008,1.8008,1.8008,1.8008,1.8008,1.8008,1.8008,1.8008,1.8008,1.8008,1.8008,1.8008,1.8008,1.8008,1.8008,1.8008,1.8008,1.8008,1.8037,1.8208,1.8286,1.8315,1.8574,1.8789,1.8965,1.8965,1.9102,1.9248,1.9033,1.8965,1.8926,1.8711,1.8652,1.8652,1.8652,1.8652,1.8603,1.8344,1.8286,1.8344,1.8549,1.8598,1.8724,1.9189,1.9287,1.9287,1.9287,1.9639,1.9932,1.9819,1.9781,1.9705,1.9478,1.9554,1.9515,1.9341,1.9093,1.8881,1.8726,1.8388,1.8278,1.8379,1.8326,1.8289,1.8398,1.8011,1.7733,1.7652,1.7253,1.7141,1.7304,1.7304,1.7579,1.8104,1.7842,1.7969,1.8509,1.824,1.861,0.0,0.0,0.0,0.0,0.0,1.1744,0.0,0.0,0.0,1.2348,1.2362,0.0,0.0,0.0,0.0,0.0,0.0,0.0,0.0,0.0,0.0,0.0,0.0,0.0,0.0,1.7939,1.8449,1.9802,1.9258,1.9182,1.9868,1.9299,1.8687,1.8008,1.8008,1.8008,1.8008,1.8008,1.8008,1.8008,1.8008,1.8008,1.8008,1.8008,1.8008,1.8008,1.8008,1.8008,1.8008,1.8008,1.8008,1.8008,1.8008,1.8008,1.8008,1.8008,1.8223,1.8481,1.8481,1.875,1.8984,1.8598,1.8481,1.8422,1.8115,1.8008,1.8008,1.8008,1.8008,1.8008,1.8008,1.8008,1.8096,1.8403,1.8481,1.8578,1.8965,1.9043,1.9043,1.9043,1.9043,1.9092,1.9258,1.9287,1.9251,1.9078,1.9187,1.9221,1.8962,1.8715,1.8543,1.8344,1.7971,1.786,1.8066,1.8059,1.8024,1.8068,1.8033,1.7916,1.7745,1.7672,1.7765,1.8027,1.8037,1.8297,1.8867,1.8767,1.8944,1.9299,1.89,1.9398,0.0,0.0,0.0,0.0,1.2659,0.0,0.0,0.0,1.1249,1.0931,0.0,0.0,0.0,0.0,0.0,0.0,0.0,0.0,0.0,0.0,0.0,0.0,0.0,0.0,0.0,0.0,1.7929,1.9046,1.8704,1.8662,1.909,1.9044,1.8687,1.8008,1.8008,1.8008,1.8008,1.8008,1.8008,1.8008,1.8008,1.8008,1.8008,1.8008,1.8008,1.8008,1.8008,1.8008,1.8008,1.8008,1.8008,1.8008,1.8008,1.8008,1.8008,1.8008,1.8037,1.8076,1.8076,1.8115,1.8144,1.8096,1.8076,1.8076,1.8027,1.8008,1.8008,1.8008,1.8008,1.8008,1.8008,1.8008,1.8018,1.8076,1.8076,1.8096,1.8144,1.8154,1.8154,1.8154,1.8154,1.8398,1.916,1.9287,1.9287,1.9251,1.9287,1.915,1.8689,1.8637,1.8461,1.8091,1.8003,1.7993,1.8008,1.7861,1.7817,1.8008,1.7743,1.7876,1.861,1.9013,1.9278,1.93,1.9311,1.9574,2.0107,1.9792,1.954,1.9309,1.954,2.0009,0.0,0.0,0.0,0.0,0.0,0.0,1.1276,0.0,1.0935,0.0,0.0,0.0,0.0,0.0,0.0,0.0,0.0,0.0,0.0,0.0,0.0,0.0,0.0,0.0,0.0,0.0,0.0,0.0,0.0,1.8578,1.899,1.9011,1.8687,1.8008,1.8008,1.8008,1.8008,1.8008,1.8008,1.8008,1.8008,1.8008,1.8008,1.8008,1.8008,1.8008,1.8008,1.8008,1.8008,1.8008,1.8008,1.8008,1.8008,1.8008,1.8008,1.8008,1.8008,1.8008,1.8008,1.8008,1.8008,1.8008,1.8008,1.8008,1.8008,1.8008,1.8008,1.8008,1.8008,1.8008,1.8008,1.8008,1.8008,1.8008,1.8008,1.8008,1.8008,1.8008,1.8008,1.8008,1.8008,1.8125,1.8486,1.8545,1.8545,1.8545,1.8545,1.8477,1.8301,1.8237,1.8203,1.8027,1.8008,1.8008,1.8008,1.8293,1.8476,1.8553,1.8854,1.911,1.9377,1.9563,1.977,1.9966,1.9966,2.0236,2.0816,2.0688,2.0528,2.0399,2.0302,2.0592,1.3587,0.0,0.0,0.0,0.0,0.0,0.0,0.0,0.0,0.0,0.0,0.0,0.0,0.0,0.0,0.0,0.0,0.0,0.0,0.0,0.0,0.0,0.0,0.0,0.0,0.0,0.0,0.0,0.0,0.0,1.898,1.9011,1.8687,1.8008,1.8178,1.8202,1.8008,1.8168,1.8168,1.8008,1.8008,1.8008,1.8008,1.8008,1.8008,1.8008,1.8008,1.8008,1.8008,1.8008,1.8008,1.8008,1.8008,1.8008,1.8008,1.8008,1.8008,1.8008,1.8008,1.8008,1.8008,1.8008,1.8008,1.8008,1.8008,1.8008,1.8008,1.8008,1.8008,1.8008,1.8008,1.8008,1.8008,1.8008,1.8008,1.8008,1.8008,1.8008,1.8008,1.8008,1.8008,1.8008,1.8008,1.8008,1.8008,1.8008,1.8008,1.8076,1.8269,1.8269,1.8337,1.8563,1.8573,1.8573,1.8573,1.9011,1.9309,1.9309,1.9966,2.0312,2.016,2.0354,2.0558,2.0826,2.0826,2.104,2.1486,2.138,2.138,2.1443,2.1083,2.1178,0.0,0.0,0.0,1.2605,0.0,0.0,0.0,0.0,1.1289,0.0,0.0,0.0,0.0,0.0,0.0,1.1035,0.0,0.0,0.0,0.0,0.0,0.0,0.0,0.0,0.0,0.0,0.0,0.0,0.0,0.0,1.8959,1.9011,1.8687,1.8008,1.862,1.8654,1.8008,1.8654,1.8654,1.8008,1.8008,1.8008,1.8008,1.8008,1.8008,1.8008,1.8008,1.8008,1.8008,1.8008,1.8008,1.8008,1.8008,1.8008,1.8008,1.8008,1.8008,1.8008,1.8008,1.8008,1.8008,1.8008,1.8008,1.8008,1.8008,1.8008,1.8008,1.8008,1.8008,1.8008,1.8008,1.8008,1.8008,1.8008,1.8008,1.8008,1.8008,1.8008,1.8008,1.8008,1.8008,1.8008,1.8008,1.8008,1.8008,1.8008,1.8008,1.8236,1.8877,1.8977,1.9243,1.9966,2.0031,2.0031,2.0031,2.0063,2.0063,2.0063,2.0709,2.106,2.106,2.1726,2.2123,2.2123,2.2123,2.2154,2.2154,2.1851,2.1851,2.2166,2.1819,2.1683,0.0,0.0,1.3901,1.31,0.0,0.0,0.0,0.0,0.0,0.0,0.0,0.0,0.0,0.0,0.0,1.1042,0.0,0.0,0.0,0.0,0.0,0.0,0.0,0.0,0.0,0.0,0.0,0.0,0.0,0.0,0.0,1.8327,1.8428,1.8654,1.8462,1.8428,1.8654,1.8462,1.8236,1.8008,1.8008,1.8008,1.8008,1.8008,1.8008,1.8008,1.8008,1.8008,1.8008,1.8008,1.8008,1.8008,1.8008,1.8008,1.8008,1.8008,1.8008,1.8008,1.8008,1.8008,1.8008,1.8008,1.8008,1.8008,1.8008,1.8008,1.8008,1.8008,1.8008,1.8008,1.8008,1.8008,1.8008,1.8008,1.8008,1.81,1.8553,1.8654,1.8821,1.9276,1.9386,1.9386,1.9386,1.9386,1.9088,1.8144,1.8008,1.8236,1.8911,1.9011,1.9276,2.0031,2.0096,2.0096,2.0096,2.0516,2.0976,2.1474,2.1694,2.1831,2.1831,2.2061,2.2197,2.2197,2.2197,2.2197,2.2197,2.2092,2.2092,2.2197,2.2092,2.2018,1.4208,1.4166,0.0,1.3427,1.2951,0.0,1.1744,0.0,0.0,0.0,0.0,0.0,0.0,0.0,0.0,1.1336,1.1129,0.0,0.0,1.1973,0.0,0.0,0.0,0.0,0.0,0.0,1.6007,1.6877,0.0,0.0,0.0,0.0,1.8202,1.862,1.8462,1.8462,1.8654,1.8697,1.8506,1.8008,1.8236,1.8236,1.8008,1.8008,1.8008,1.8008,1.8008,1.8008,1.8008,1.8008,1.8008,1.8008,1.8008,1.8008,1.8008,1.8008,1.8008,1.8008,1.8008,1.8008,1.8008,1.8008,1.8008,1.8008,1.8008,1.8008,1.8008,1.8008,1.8008,1.8042,1.8293,1.8168,1.8144,1.863,1.8563,1.8563,1.9243,1.9408,1.954,1.9998,2.0096,2.0096,2.0096,2.0096,1.9781,1.8888,1.8764,1.8988,1.9661,1.9759,2.002,2.0784,2.0848,2.0848,2.0848,2.123,2.1694,2.2154,2.2197,2.2197,2.2197,2.2197,2.2197,2.2197,2.2197,2.2197,2.2197,2.2197,2.2101,2.1909,2.1909,2.1813]}]]